Mountain GroveWeather Station
Hourly Leaf Wetness Data

Source: University of Missouri

To the bottom of the page

Year Month Day Hour Leaf Wetness Total
Precipitation
Avg. Temp Avg. Rel.
Humidity
Wind
Speed
CST mV in mm F C % mph
2017 01 01 1:00 263.8 0.00 0.000 0.0 0.5 65.33 4.8
2017 01 01 2:00 264.3 0.00 0.000 0.0 -0.6 70 3.6
2017 01 01 3:00 265.3 0.00 0.000 29.3 -1.5 74.5 1.4
2017 01 01 4:00 265.4 0.00 0.000 30.2 -1.0 73.7 2.7
2017 01 01 5:00 265.3 0.00 0.000 0.0 -1.0 74.6 2.6
2017 01 01 6:00 265.7 0.00 0.000 28.8 -1.8 78.5 1.5
2017 01 01 7:00 266.9 0.00 0.000 27.7 -2.4 82.9 0.9
2017 01 01 8:00 266.8 0.00 0.000 27.7 -2.4 84.9 3.7
2017 01 01 9:00 266.1 0.00 0.000 0.0 -0.3 80.5 5.4
2017 01 01 10:00 266.9 0.00 0.000 0.0 0.4 86.3 7.2
2017 01 01 11:00 269.7 0.00 0.000 0.0 0.8 99.6 6.4
2017 01 01 12:00 266.3 0.00 0.000 35.7 2.1 99.2 4.9
2017 01 01 13:00 265.6 0.00 0.000 39.0 3.9 86.9 6.5
2017 01 01 14:00 265.7 0.00 0.000 40.3 4.6 82.1 5.6
2017 01 01 15:00 265.4 0.00 0.000 42.0 5.6 78.6 6.0
2017 01 01 16:00 265.6 0.00 0.000 42.5 5.8 79.3 5.6
2017 01 01 17:00 266.2 0.00 0.000 41.4 5.2 83.5 6.7
2017 01 01 18:00 266.4 0.00 0.000 40.9 5.0 85.4 6.3
2017 01 01 19:00 266.9 0.00 0.000 40.2 4.5 88.4 6.5
2017 01 01 20:00 268.0 0.00 0.000 39.6 4.2 92.4 6.9
2017 01 01 21:00 269.7 0.00 0.000 39.0 3.9 95.6 8.1
2017 01 01 22:00 273.5 0.00 0.000 38.7 3.7 98 9.2
2017 01 01 23:00 Wet 307.0 0.00 0.000 38.7 3.7 98.9 8.0
2017 01 01 24:00 Wet 307.5 0.00 0.000 38.9 3.8 99.5 8.7
2017 01 02 1:00 Wet 321.0 0.00 0.000 39.0 3.9 99.8 8.9
2017 01 02 2:00 Wet 319.9 0.00 0.000 39.3 4.0 99.9 7.7
2017 01 02 3:00 Wet 320.8 0.00 0.000 39.7 4.3 99.9 5.9
2017 01 02 4:00 Wet 319.8 0.00 0.000 40.5 4.7 99.8 7.1
2017 01 02 5:00 Wet 321.5 0.00 0.000 40.4 4.7 99.8 5.6
2017 01 02 6:00 Wet 337.6 0.00 0.000 40.5 4.7 99.8 6.5
2017 01 02 7:00 Wet 309.7 0.00 0.000 40.8 4.9 99.8 4.6
2017 01 02 8:00 Wet 324.6 0.00 0.000 41.4 5.2 99.6 2.5
2017 01 02 9:00 Wet 340.8 0.01 0.254 41.9 5.5 99.5 5.6
2017 01 02 10:00 Wet 340.3 0.00 0.000 42.7 5.9 99.6 8.6
2017 01 02 11:00 Wet 307.6 0.00 0.000 44.3 6.8 99.7 8.3
2017 01 02 12:00 Wet 302.2 0.00 0.000 45.5 7.5 99.6 6.3
2017 01 02 13:00 Wet 316.6 0.00 0.000 46.7 8.2 99.7 5.2
2017 01 02 14:00 Wet 315.2 0.00 0.000 48.2 9.0 99.5 3.5
2017 01 02 15:00 Wet 342.3 0.00 0.000 48.6 9.2 99.5 3.7
2017 01 02 16:00 Wet 306.8 0.00 0.000 48.6 9.2 99.6 4.2
2017 01 02 17:00 Wet 308.4 0.00 0.000 49.1 9.5 99.7 0.9
2017 01 02 18:00 Wet 317.1 0.00 0.000 48.8 9.3 99.8 2.7
2017 01 02 19:00 Wet 329.0 0.00 0.000 48.1 8.9 99.9 3.2
2017 01 02 20:00 Wet 344.4 0.01 0.254 48.8 9.3 100.1 1.7
2017 01 02 21:00 Wet 346.3 0.00 0.000 48.8 9.3 100 1.4
2017 01 02 22:00 Wet 338.1 0.00 0.000 49.0 9.4 100.2 1.3
2017 01 02 23:00 Wet 332.0 0.00 0.000 48.3 9.1 100.2 2.0
2017 01 02 24:00 Wet 331.3 0.00 0.000 47.6 8.7 100.3 3.4
2017 01 03 1:00 Wet 349.6 0.00 0.000 46.6 8.1 100.3 4.2
2017 01 03 2:00 Wet 322.3 0.00 0.000 46.8 8.2 100.3 3.3
2017 01 03 3:00 Wet 319.8 0.00 0.000 47.0 8.3 100.3 4.1
2017 01 03 4:00 Wet 332.8 0.00 0.000 47.0 8.3 100.4 5.6
2017 01 03 5:00 Wet 351.6 0.00 0.000 47.6 8.7 100.4 4.7
2017 01 03 6:00 Wet 340.6 0.00 0.000 47.9 8.9 100.4 4.0
2017 01 03 7:00 Wet 375.7 0.00 0.000 47.9 8.8 100.4 4.9
2017 01 03 8:00 Wet 374.2 0.00 0.000 47.8 8.8 100.4 5.1
2017 01 03 9:00 Wet 426.0 0.00 0.000 46.6 8.1 100.4 9.5
2017 01 03 10:00 Wet 429.8 0.01 0.254 44.4 6.9 100.4 10.2
2017 01 03 11:00 Wet 384.9 0.00 0.000 43.0 6.1 100.4 11.1
2017 01 03 12:00 Wet 305.2 0.00 0.000 41.7 5.4 100.5 11.7
2017 01 03 13:00 Wet 349.8 0.00 0.000 38.4 3.5 101.1 12.2
2017 01 03 14:00 Wet 291.5 0.00 0.000 36.6 2.5 101.7 11.9
2017 01 03 15:00 272.5 0.00 0.000 35.9 2.1 102 13.1
2017 01 03 16:00 269.7 0.00 0.000 35.3 1.8 99.2 11.6
2017 01 03 17:00 269.2 0.00 0.000 34.7 1.5 94.5 10.9
2017 01 03 18:00 272.2 0.00 0.000 0.0 -0.2 97.4 12.8
2017 01 03 19:00 268.5 0.00 0.000 29.7 -1.3 90.9 12.2
2017 01 03 20:00 267.7 0.00 0.000 28.0 -2.2 86.4 12.5
2017 01 03 21:00 267.3 0.00 0.000 25.5 -3.6 83.4 12.6
2017 01 03 22:00 267.3 0.00 0.000 24.3 -4.3 83.4 11.1
2017 01 03 23:00 267.3 0.00 0.000 23.4 -4.8 82.1 13.4
2017 01 03 24:00 267.3 0.00 0.000 21.9 -5.6 81 12.2
2017 01 04 1:00 266.8 0.00 0.000 20.0 -6.7 79.6 12.4
2017 01 04 2:00 266.7 0.00 0.000 18.6 -7.5 80.2 12.6
2017 01 04 3:00 266.7 0.00 0.000 17.5 -8.1 81.5 11.6
2017 01 04 4:00 266.7 0.00 0.000 16.3 -8.7 82.9 9.6
2017 01 04 5:00 266.8 0.00 0.000 15.4 -9.2 83.5 10.9
2017 01 04 6:00 266.8 0.00 0.000 14.7 -9.6 83.6 10.1
2017 01 04 7:00 266.8 0.00 0.000 13.8 -10.1 84.8 9.5
2017 01 04 8:00 266.8 0.00 0.000 13.1 -10.5 85.3 7.6
2017 01 04 9:00 266.8 0.00 0.000 14.5 -9.7 80.8 9.2
2017 01 04 10:00 266.3 0.00 0.000 17.4 -8.1 73.4 11.2
2017 01 04 11:00 266.0 0.00 0.000 19.8 -6.8 68.49 11.7
2017 01 04 12:00 265.5 0.00 0.000 22.6 -5.2 58.98 8.9
2017 01 04 13:00 264.8 0.00 0.000 25.6 -3.6 52.36 7.0
2017 01 04 14:00 264.2 0.00 0.000 27.9 -2.3 45.51 5.5
2017 01 04 15:00 263.3 0.00 0.000 0.0 -0.8 36.55 3.1
2017 01 04 16:00 263.1 0.00 0.000 0.0 -0.8 36.06 3.3
2017 01 04 17:00 263.3 0.00 0.000 0.0 -1.0 37.62 3.0
2017 01 04 18:00 263.8 0.00 0.000 25.8 -3.5 45.89 3.3
2017 01 04 19:00 263.9 0.00 0.000 24.4 -4.2 49.49 2.6
2017 01 04 20:00 264.0 0.00 0.000 23.2 -4.9 53.03 4.0
2017 01 04 21:00 264.7 0.00 0.000 22.7 -5.2 58 4.5
2017 01 04 22:00 264.7 0.00 0.000 23.4 -4.8 57.52 4.2
2017 01 04 23:00 264.7 0.00 0.000 23.2 -4.9 58.65 5.8
2017 01 04 24:00 264.6 0.00 0.000 23.2 -4.9 58.87 4.6
2017 01 05 1:00 264.6 0.00 0.000 23.2 -4.9 60.07 3.7
2017 01 05 2:00 264.7 0.00 0.000 22.5 -5.3 62.77 5.5
2017 01 05 3:00 265.0 0.00 0.000 21.2 -6.0 74.8 5.1
2017 01 05 4:00 268.4 0.00 0.000 19.2 -7.1 94.1 3.9
2017 01 05 5:00 268.7 0.00 0.000 18.9 -7.3 94.8 3.3
2017 01 05 6:00 268.7 0.00 0.000 18.6 -7.4 94.7 3.8
2017 01 05 7:00 268.7 0.00 0.000 18.0 -7.8 94.3 5.0
2017 01 05 8:00 268.7 0.00 0.000 17.9 -7.8 93.9 5.3
2017 01 05 9:00 268.7 0.00 0.000 18.2 -7.7 92.9 5.7
2017 01 05 10:00 268.7 0.00 0.000 18.4 -7.5 91.1 6.5
2017 01 05 11:00 268.3 0.00 0.000 19.6 -6.9 85.2 7.0
2017 01 05 12:00 268.1 0.00 0.000 19.1 -7.2 84.2 8.0
2017 01 05 13:00 268.1 0.00 0.000 18.4 -7.5 84.3 8.7
2017 01 05 14:00 267.6 0.00 0.000 18.1 -7.7 83.5 9.8
2017 01 05 15:00 267.4 0.00 0.000 17.0 -8.3 83.8 9.9
2017 01 05 16:00 267.4 0.00 0.000 16.1 -8.8 80.7 10.4
2017 01 05 17:00 266.9 0.00 0.000 15.7 -9.1 81 8.9
2017 01 05 18:00 266.8 0.00 0.000 15.0 -9.5 84 9.9
2017 01 05 19:00 266.8 0.00 0.000 14.6 -9.7 80.6 9.3
2017 01 05 20:00 266.8 0.00 0.000 14.3 -9.8 79.5 7.8
2017 01 05 21:00 265.8 0.00 0.000 13.4 -10.3 77.5 9.2
2017 01 05 22:00 265.3 0.00 0.000 10.9 -11.7 74.2 8.1
2017 01 05 23:00 265.1 0.00 0.000 9.2 -12.7 76.4 4.7
2017 01 05 24:00 265.1 0.00 0.000 10.2 -12.1 75.2 4.7
2017 01 06 1:00 265.2 0.00 0.000 10.4 -12.0 76.2 6.2
2017 01 06 2:00 265.5 0.00 0.000 10.0 -12.2 81.2 8.4
2017 01 06 3:00 265.1 0.00 0.000 8.5 -13.1 78.1 8.5
2017 01 06 4:00 264.9 0.00 0.000 7.4 -13.7 79.1 6.5
2017 01 06 5:00 264.9 0.00 0.000 6.6 -14.1 74.6 10.4
2017 01 06 6:00 264.9 0.00 0.000 5.7 -14.6 75.3 10.0
2017 01 06 7:00 264.9 0.00 0.000 5.1 -14.9 76.8 9.6
2017 01 06 8:00 264.9 0.00 0.000 4.6 -15.2 76.1 8.5
2017 01 06 9:00 264.9 0.00 0.000 4.9 -15.1 74.8 6.2
2017 01 06 10:00 264.5 0.00 0.000 7.0 -13.9 66.94 7.7
2017 01 06 11:00 264.2 0.00 0.000 9.5 -12.5 61.44 6.8
2017 01 06 12:00 264.1 0.00 0.000 9.2 -12.6 62.38 8.4
2017 01 06 13:00 264.1 0.00 0.000 11.4 -11.4 58.52 7.4
2017 01 06 14:00 264.0 0.00 0.000 12.2 -11.0 56.55 6.2
2017 01 06 15:00 264.0 0.00 0.000 11.7 -11.3 61.56 8.2
2017 01 06 16:00 264.1 0.00 0.000 11.6 -11.4 61.86 7.9
2017 01 06 17:00 264.1 0.00 0.000 11.3 -11.5 62.27 6.5
2017 01 06 18:00 264.2 0.00 0.000 11.3 -11.5 64.94 6.6
2017 01 06 19:00 264.6 0.00 0.000 11.4 -11.4 67.33 6.8
2017 01 06 20:00 264.7 0.00 0.000 10.6 -11.9 69.54 6.8
2017 01 06 21:00 264.4 0.00 0.000 9.8 -12.3 68.48 4.9
2017 01 06 22:00 264.5 0.00 0.000 8.1 -13.3 71.5 3.5
2017 01 06 23:00 265.1 0.00 0.000 4.2 -15.4 80.5 2.9
2017 01 06 24:00 266.6 0.00 0.000 2.4 -16.4 84.1 2.5
2017 01 07 1:00 268.0 0.00 0.000 1.1 -17.2 85.7 2.0
2017 01 07 2:00 269.4 0.00 0.000 0.1 -17.7 86.1 2.1
2017 01 07 3:00 270.5 0.00 0.000 -0.4 -18.0 86.1 2.0
2017 01 07 4:00 271.4 0.00 0.000 -1.2 -18.4 85.7 1.8
2017 01 07 5:00 272.0 0.00 0.000 -2.0 -18.9 87.1 0.6
2017 01 07 6:00 272.9 0.00 0.000 -1.6 -18.7 87.2 1.3
2017 01 07 7:00 273.3 0.00 0.000 -3.2 -19.6 86.1 1.3
2017 01 07 8:00 273.8 0.00 0.000 -1.9 -18.8 85.6 1.0
2017 01 07 9:00 274.5 0.00 0.000 7.8 -13.4 72.2 0.9
2017 01 07 10:00 274.6 0.00 0.000 13.9 -10.0 60.13 1.4
2017 01 07 11:00 272.1 0.00 0.000 17.8 -7.9 48.97 2.4
2017 01 07 12:00 265.7 0.00 0.000 19.6 -6.9 46.67 3.8
2017 01 07 13:00 263.8 0.00 0.000 22.1 -5.5 45.93 4.7
2017 01 07 14:00 263.6 0.00 0.000 24.6 -4.1 44.7 5.8
2017 01 07 15:00 263.4 0.00 0.000 26.1 -3.3 41.34 7.4
2017 01 07 16:00 263.3 0.00 0.000 26.8 -2.9 39.84 7.5
2017 01 07 17:00 263.5 0.00 0.000 26.4 -3.1 42.54 5.3
2017 01 07 18:00 263.9 0.00 0.000 23.6 -4.7 48.79 1.6
2017 01 07 19:00 264.6 0.00 0.000 20.4 -6.4 56.88 0.5
2017 01 07 20:00 264.7 0.00 0.000 18.2 -7.7 61.84 1.4
2017 01 07 21:00 264.8 0.00 0.000 18.5 -7.5 60.92 1.7
2017 01 07 22:00 265.1 0.00 0.000 16.2 -8.8 66.95 0.4
2017 01 07 23:00 265.6 0.00 0.000 14.6 -9.7 72.4 0.4
2017 01 07 24:00 265.9 0.00 0.000 15.3 -9.3 71.8 1.1
2017 01 08 1:00 265.5 0.00 0.000 15.5 -9.2 71.8 2.8
2017 01 08 2:00 265.9 0.00 0.000 11.7 -11.3 79.9 1.2
2017 01 08 3:00 266.9 0.00 0.000 11.1 -11.6 79.3 1.6
2017 01 08 4:00 267.3 0.00 0.000 10.7 -11.9 80.6 1.1
2017 01 08 5:00 268.1 0.00 0.000 9.8 -12.3 84.1 0.8
2017 01 08 6:00 268.9 0.00 0.000 12.5 -10.8 78.9 2.5
2017 01 08 7:00 268.2 0.00 0.000 14.3 -9.8 74.5 4.0
2017 01 08 8:00 265.7 0.00 0.000 15.2 -9.3 72.1 5.0
2017 01 08 9:00 265.4 0.00 0.000 16.3 -8.7 70.5 6.2
2017 01 08 10:00 265.3 0.00 0.000 17.5 -8.1 70 8.9
2017 01 08 11:00 264.8 0.00 0.000 20.1 -6.6 67.05 8.7
2017 01 08 12:00 264.7 0.00 0.000 23.4 -4.8 62.98 10.4
2017 01 08 13:00 264.6 0.00 0.000 25.5 -3.6 58.73 10.7
2017 01 08 14:00 264.3 0.00 0.000 27.7 -2.4 54.2 10.3
2017 01 08 15:00 264.2 0.00 0.000 28.7 -1.9 49.43 11.2
2017 01 08 16:00 263.9 0.00 0.000 28.9 -1.7 48.4 12.0
2017 01 08 17:00 264.1 0.00 0.000 28.1 -2.2 50.1 13.3
2017 01 08 18:00 264.6 0.00 0.000 26.7 -2.9 53.74 13.7
2017 01 08 19:00 264.6 0.00 0.000 25.0 -3.9 58.96 13.7
2017 01 08 20:00 264.6 0.00 0.000 23.7 -4.6 62.16 13.1
2017 01 08 21:00 264.6 0.00 0.000 22.6 -5.2 63.25 14.2
2017 01 08 22:00 264.7 0.00 0.000 21.6 -5.8 66.59 13.4
2017 01 08 23:00 265.0 0.00 0.000 20.5 -6.4 71.1 9.6
2017 01 08 24:00 265.4 0.00 0.000 19.5 -6.9 74.7 9.1
2017 01 09 1:00 265.4 0.00 0.000 18.8 -7.3 77.2 8.6
2017 01 09 2:00 265.4 0.00 0.000 18.2 -7.7 79.2 7.9
2017 01 09 3:00 265.7 0.00 0.000 17.4 -8.1 81.6 7.5
2017 01 09 4:00 266.1 0.00 0.000 17.2 -8.2 82.5 7.4
2017 01 09 5:00 266.1 0.00 0.000 16.8 -8.4 83.1 6.8
2017 01 09 6:00 266.1 0.00 0.000 16.7 -8.5 83.4 8.2
2017 01 09 7:00 266.1 0.00 0.000 17.0 -8.3 82.5 8.0
2017 01 09 8:00 266.1 0.00 0.000 18.1 -7.7 79.8 7.8
2017 01 09 9:00 265.5 0.00 0.000 21.0 -6.1 73.9 9.2
2017 01 09 10:00 265.0 0.00 0.000 27.2 -2.7 62.55 9.3
2017 01 09 11:00 264.6 0.00 0.000 0.0 -0.3 54.5 9.5
2017 01 09 12:00 264.3 0.00 0.000 36.4 2.5 49.06 9.9
2017 01 09 13:00 264.0 0.00 0.000 40.5 4.7 49.1 12.0
2017 01 09 14:00 264.0 0.00 0.000 43.2 6.2 49 15.6
2017 01 09 15:00 264.4 0.00 0.000 43.2 6.2 55.93 12.5
2017 01 09 16:00 265.0 0.00 0.000 42.3 5.7 67.76 14.9
2017 01 09 17:00 265.4 0.00 0.000 40.8 4.9 71.4 14.8
2017 01 09 18:00 265.8 0.00 0.000 39.5 4.2 73.9 17.1
2017 01 09 19:00 265.8 0.00 0.000 38.4 3.6 74 17.4
2017 01 09 20:00 265.8 0.00 0.000 38.3 3.5 75.4 17.5
2017 01 09 21:00 265.8 0.00 0.000 38.5 3.6 76.9 16.8
2017 01 09 22:00 265.8 0.00 0.000 38.5 3.6 78.7 16.4
2017 01 09 23:00 266.4 0.00 0.000 39.2 4.0 80.6 16.5
2017 01 09 24:00 266.4 0.00 0.000 40.2 4.6 82.2 15.1
2017 01 10 1:00 266.6 0.00 0.000 41.4 5.2 83.6 15.7
2017 01 10 2:00 267.1 0.00 0.000 42.5 5.9 85.3 15.7
2017 01 10 3:00 267.2 0.00 0.000 43.8 6.6 87 17.3
2017 01 10 4:00 267.8 0.00 0.000 45.7 7.6 88.1 18.9
2017 01 10 5:00 267.7 0.00 0.000 47.4 8.5 88.3 21.0
2017 01 10 6:00 267.7 0.00 0.000 49.1 9.5 87.4 19.8
2017 01 10 7:00 267.7 0.00 0.000 51.3 10.7 85 18.3
2017 01 10 8:00 267.7 0.00 0.000 53.0 11.6 83 18.7
2017 01 10 9:00 267.6 0.00 0.000 53.9 12.2 82.2 18.2
2017 01 10 10:00 267.0 0.00 0.000 56.2 13.5 77.7 16.5
2017 01 10 11:00 266.3 0.00 0.000 60.5 15.8 67.76 17.4
2017 01 10 12:00 265.2 0.00 0.000 63.4 17.4 54.22 17.7
2017 01 10 13:00 264.4 0.00 0.000 64.4 18.0 47.07 19.0
2017 01 10 14:00 263.8 0.00 0.000 64.2 17.9 42.18 19.0
2017 01 10 15:00 263.4 0.00 0.000 64.1 17.8 38.23 18.7
2017 01 10 16:00 262.9 0.00 0.000 62.2 16.8 36.7 14.5
2017 01 10 17:00 262.9 0.00 0.000 58.9 15.0 34.77 9.4
2017 01 10 18:00 262.9 0.00 0.000 55.0 12.8 36.22 5.0
2017 01 10 19:00 263.4 0.00 0.000 50.7 10.4 43.52 2.3
2017 01 10 20:00 263.9 0.00 0.000 46.2 7.9 52.84 1.5
2017 01 10 21:00 264.2 0.00 0.000 44.3 6.8 54.83 1.8
2017 01 10 22:00 264.5 0.00 0.000 42.0 5.5 60.72 1.6
2017 01 10 23:00 265.1 0.00 0.000 38.4 3.6 69.37 1.0
2017 01 10 24:00 265.8 0.00 0.000 37.7 3.2 72.1 0.5
2017 01 11 1:00 265.3 0.00 0.000 41.2 5.1 64 3.0
2017 01 11 2:00 265.1 0.00 0.000 42.0 5.6 63.47 3.8
2017 01 11 3:00 265.1 0.00 0.000 42.7 5.9 62.93 6.6
2017 01 11 4:00 265.1 0.00 0.000 43.9 6.6 61.51 9.4
2017 01 11 5:00 264.5 0.00 0.000 44.7 7.0 59.05 9.2
2017 01 11 6:00 264.6 0.00 0.000 45.6 7.5 60.58 10.8
2017 01 11 7:00 265.1 0.00 0.000 45.5 7.5 67.41 9.5
2017 01 11 8:00 265.9 0.00 0.000 45.5 7.5 79.4 9.1
2017 01 11 9:00 267.3 0.00 0.000 50.1 10.0 90.2 10.8
2017 01 11 10:00 267.3 0.00 0.000 54.6 12.6 88.4 12.3
2017 01 11 11:00 266.7 0.00 0.000 59.0 15.0 79.9 14.6
2017 01 11 12:00 266.2 0.00 0.000 60.6 15.9 76.8 14.9
2017 01 11 13:00 266.1 0.00 0.000 63.6 17.6 70.9 15.8
2017 01 11 14:00 265.5 0.00 0.000 66.1 18.9 64.03 19.6
2017 01 11 15:00 265.0 0.00 0.000 67.1 19.5 59.99 18.9
2017 01 11 16:00 264.9 0.00 0.000 66.8 19.4 59.58 18.3
2017 01 11 17:00 265.3 0.00 0.000 66.2 19.0 59.66 14.0
2017 01 11 18:00 265.5 0.00 0.000 64.7 18.2 64.19 11.5
2017 01 11 19:00 265.9 0.00 0.000 63.6 17.6 68.23 11.0
2017 01 11 20:00 266.2 0.00 0.000 63.2 17.3 69.87 10.9
2017 01 11 21:00 266.2 0.00 0.000 63.2 17.4 70.2 10.0
2017 01 11 22:00 266.2 0.00 0.000 63.1 17.3 71.1 9.9
2017 01 11 23:00 266.2 0.00 0.000 62.6 17.0 73.4 9.9
2017 01 11 24:00 266.6 0.00 0.000 61.6 16.4 76.8 10.1
2017 01 12 1:00 266.9 0.00 0.000 60.5 15.9 80.1 9.9
2017 01 12 2:00 266.9 0.00 0.000 60.6 15.9 80.5 10.1
2017 01 12 3:00 266.9 0.00 0.000 60.7 15.9 80 11.1
2017 01 12 4:00 266.9 0.00 0.000 60.6 15.9 80.1 10.4
2017 01 12 5:00 266.9 0.00 0.000 60.5 15.9 80.2 7.5
2017 01 12 6:00 267.0 0.00 0.000 60.2 15.6 80.5 8.0
2017 01 12 7:00 267.1 0.00 0.000 59.5 15.3 79.1 7.5
2017 01 12 8:00 266.2 0.00 0.000 48.0 8.9 77.4 6.9
2017 01 12 9:00 266.3 0.00 0.000 44.9 7.2 77.8 7.2
2017 01 12 10:00 266.0 0.00 0.000 42.0 5.5 80.4 9.0
2017 01 12 11:00 266.1 0.00 0.000 38.9 3.8 80.7 10.4
2017 01 12 12:00 266.2 0.00 0.000 36.6 2.6 83.7 9.7
2017 01 12 13:00 265.7 0.00 0.000 36.7 2.6 79.5 10.3
2017 01 12 14:00 265.2 0.00 0.000 38.8 3.8 69.93 11.4
2017 01 12 15:00 264.7 0.00 0.000 40.2 4.6 63.61 11.6
2017 01 12 16:00 265.0 0.00 0.000 36.0 2.2 69.89 12.5
2017 01 12 17:00 265.3 0.00 0.000 0.0 0.1 76.4 10.8
2017 01 12 18:00 265.8 0.00 0.000 28.9 -1.7 83 9.5
2017 01 12 19:00 265.9 0.00 0.000 27.7 -2.4 82.1 10.2
2017 01 12 20:00 265.9 0.00 0.000 27.0 -2.8 82.9 8.9
2017 01 12 21:00 265.9 0.00 0.000 27.3 -2.6 81.8 7.6
2017 01 12 22:00 265.9 0.00 0.000 28.0 -2.2 79 8.1
2017 01 12 23:00 265.8 0.00 0.000 27.9 -2.3 78.2 7.9
2017 01 12 24:00 265.6 0.00 0.000 28.2 -2.1 77.3 8.1
2017 01 13 1:00 265.3 0.00 0.000 28.3 -2.0 75.6 8.1
2017 01 13 2:00 265.3 0.00 0.000 28.5 -2.0 74.8 7.2
2017 01 13 3:00 272.7 0.00 0.000 28.2 -2.1 75.2 9.6
2017 01 13 4:00 Wet 290.2 0.00 0.000 28.0 -2.2 79.1 7.7
2017 01 13 5:00 Wet 326.3 0.00 0.000 27.7 -2.4 87.4 6.2
2017 01 13 6:00 Wet 329.7 0.00 0.000 27.9 -2.3 92.3 5.9
2017 01 13 7:00 Wet 329.7 0.00 0.000 28.4 -2.0 95.7 5.0
2017 01 13 8:00 Wet 328.9 0.00 0.000 28.7 -1.8 95.8 4.8
2017 01 13 9:00 Wet 328.3 0.00 0.000 29.0 -1.7 96.9 4.5
2017 01 13 10:00 Wet 325.9 0.00 0.000 29.7 -1.3 97.7 4.6
2017 01 13 11:00 Wet 323.2 0.00 0.000 30.2 -1.0 97.9 4.9
2017 01 13 12:00 Wet 329.8 0.00 0.000 0.0 -0.8 98.1 4.0
2017 01 13 13:00 Wet 534.7 0.00 0.000 0.0 -0.4 97.8 3.4
2017 01 13 14:00 Wet 713.0 0.00 0.000 0.0 -0.2 98.3 4.1
2017 01 13 15:00 Wet 754.0 0.00 0.000 0.0 -0.1 99 3.8
2017 01 13 16:00 Wet 747.0 0.00 0.000 0.0 -0.1 99.8 4.3
2017 01 13 17:00 Wet 671.6 0.00 0.000 0.0 -0.1 100.5 4.3
2017 01 13 18:00 Wet 611.4 0.00 0.000 0.0 -0.2 100.9 4.0
2017 01 13 19:00 Wet 593.2 0.00 0.000 0.0 -0.2 101.1 4.0
2017 01 13 20:00 Wet 589.7 0.00 0.000 0.0 -0.2 101.2 4.5
2017 01 13 21:00 Wet 533.1 0.00 0.000 0.0 -0.2 101.3 4.6
2017 01 13 22:00 Wet 455.1 0.00 0.000 0.0 -0.2 101.4 4.8
2017 01 13 23:00 Wet 392.3 0.00 0.000 0.0 -0.2 101.3 3.6
2017 01 13 24:00 Wet 361.2 0.00 0.000 0.0 -0.1 101.4 4.2
2017 01 14 1:00 Wet 427.8 0.00 0.000 0.0 -0.0 101.4 4.2
2017 01 14 2:00 Wet 423.8 0.00 0.000 0.0 0.1 101.4 3.2
2017 01 14 3:00 Wet 366.9 0.00 0.000 0.0 0.2 101.2 0.8
2017 01 14 4:00 Wet 494.1 0.05 1.270 0.0 0.3 101.2 1.7
2017 01 14 5:00 Wet 400.1 0.01 0.254 0.0 0.5 100.9 0.5
2017 01 14 6:00 Wet 385.9 0.01 0.254 0.0 0.6 101.1 2.3
2017 01 14 7:00 Wet 428.8 0.04 1.016 0.0 0.5 101.3 3.0
2017 01 14 8:00 Wet 396.3 0.03 0.762 0.0 0.6 101.1 2.8
2017 01 14 9:00 Wet 305.3 0.00 0.000 0.0 0.7 101 4.8
2017 01 14 10:00 Wet 346.7 0.01 0.254 0.0 0.8 101 5.9
2017 01 14 11:00 Wet 466.9 0.06 1.524 0.0 0.9 100.8 4.8
2017 01 14 12:00 Wet 478.3 0.11 2.794 0.0 0.9 100.8 4.8
2017 01 14 13:00 Wet 467.8 0.08 2.032 0.0 0.9 100.7 5.7
2017 01 14 14:00 Wet 435.1 0.04 1.016 34.0 1.1 99.2 4.8
2017 01 14 15:00 Wet 328.9 0.00 0.000 34.4 1.3 96.8 5.6
2017 01 14 16:00 Wet 307.4 0.00 0.000 34.2 1.2 96.1 4.8
2017 01 14 17:00 Wet 293.8 0.00 0.000 33.8 1.0 96.6 3.9
2017 01 14 18:00 Wet 286.8 0.00 0.000 0.0 0.7 97 4.5
2017 01 14 19:00 Wet 290.9 0.00 0.000 0.0 0.4 98.6 3.5
2017 01 14 20:00 Wet 385.4 0.00 0.000 0.0 0.3 99.6 3.7
2017 01 14 21:00 Wet 434.6 0.00 0.000 0.0 0.0 99.9 4.6
2017 01 14 22:00 Wet 445.8 0.00 0.000 0.0 -0.1 99.9 4.2
2017 01 14 23:00 Wet 416.0 0.01 0.254 0.0 -0.1 99.5 4.1
2017 01 14 24:00 Wet 461.9 0.02 0.508 0.0 -0.1 98.9 3.9
2017 01 15 1:00 Wet 470.7 0.06 1.524 0.0 0.1 98 2.9
2017 01 15 2:00 Wet 414.1 0.04 1.016 0.0 0.1 98.3 3.8
2017 01 15 3:00 Wet 419.2 0.03 0.762 0.0 0.3 97.5 4.5
2017 01 15 4:00 Wet 440.9 0.03 0.762 0.0 0.4 98.1 4.1
2017 01 15 5:00 Wet 449.7 0.01 0.254 0.0 0.4 98.1 2.4
2017 01 15 6:00 Wet 445.5 0.03 0.762 0.0 0.5 98 3.4
2017 01 15 7:00 Wet 431.1 0.04 1.016 0.0 0.7 97.6 5.0
2017 01 15 8:00 Wet 414.5 0.06 1.524 0.0 0.8 97.7 6.6
2017 01 15 9:00 Wet 402.7 0.03 0.762 0.0 1.0 97.5 4.5
2017 01 15 10:00 Wet 316.2 0.00 0.000 34.5 1.4 97.4 4.7
2017 01 15 11:00 Wet 331.7 0.00 0.000 35.3 1.8 98.5 5.1
2017 01 15 12:00 Wet 318.0 0.00 0.000 35.9 2.2 99.2 6.2
2017 01 15 13:00 Wet 294.9 0.00 0.000 36.4 2.4 99.7 6.6
2017 01 15 14:00 278.0 0.00 0.000 37.6 3.1 99.6 6.2
2017 01 15 15:00 270.4 0.00 0.000 38.4 3.6 99.7 5.0
2017 01 15 16:00 275.6 0.00 0.000 38.9 3.9 99.7 4.7
2017 01 15 17:00 278.0 0.00 0.000 39.5 4.2 99.8 4.4
2017 01 15 18:00 Wet 298.1 0.00 0.000 39.6 4.2 99.9 4.5
2017 01 15 19:00 Wet 358.4 0.00 0.000 39.6 4.2 100.1 5.6
2017 01 15 20:00 Wet 377.3 0.00 0.000 39.4 4.1 100.2 5.8
2017 01 15 21:00 Wet 362.7 0.00 0.000 39.4 4.1 100.2 5.4
2017 01 15 22:00 Wet 380.8 0.00 0.000 39.3 4.0 100.3 5.6
2017 01 15 23:00 Wet 390.2 0.01 0.254 39.5 4.1 100.5 6.0
2017 01 15 24:00 Wet 374.4 0.00 0.000 39.7 4.3 100.6 8.9
2017 01 16 1:00 Wet 371.7 0.00 0.000 40.2 4.6 100.6 7.8
2017 01 16 2:00 Wet 371.5 0.00 0.000 41.3 5.2 100.4 8.6
2017 01 16 3:00 Wet 391.7 0.00 0.000 41.9 5.5 100.3 10.3
2017 01 16 4:00 Wet 346.9 0.01 0.254 43.1 6.1 100.2 10.4
2017 01 16 5:00 Wet 339.5 0.00 0.000 43.9 6.6 100.2 10.1
2017 01 16 6:00 Wet 350.9 0.01 0.254 44.5 7.0 100.3 11.2
2017 01 16 7:00 Wet 344.9 0.01 0.254 44.8 7.1 100.3 11.1
2017 01 16 8:00 Wet 344.1 0.00 0.000 45.6 7.6 100.3 11.0
2017 01 16 9:00 Wet 329.1 0.00 0.000 46.9 8.3 100.3 13.0
2017 01 16 10:00 Wet 380.8 0.07 1.778 48.2 9.0 100.4 12.9
2017 01 16 11:00 Wet 341.6 0.01 0.254 48.5 9.2 100.4 11.3
2017 01 16 12:00 Wet 347.8 0.04 1.016 49.5 9.7 100.4 11.9
2017 01 16 13:00 Wet 357.1 0.11 2.794 50.9 10.5 100.4 11.9
2017 01 16 14:00 Wet 319.2 0.00 0.000 52.1 11.1 100.4 11.8
2017 01 16 15:00 Wet 322.6 0.00 0.000 53.4 11.9 100.4 11.4
2017 01 16 16:00 Wet 341.2 0.01 0.254 53.7 12.1 100.4 9.7
2017 01 16 17:00 Wet 332.2 0.00 0.000 54.0 12.2 100.4 9.1
2017 01 16 18:00 Wet 318.9 0.00 0.000 55.2 12.9 100.4 7.8
2017 01 16 19:00 Wet 304.0 0.00 0.000 55.7 13.2 100.3 8.5
2017 01 16 20:00 Wet 285.1 0.00 0.000 55.5 13.0 100.3 9.7
2017 01 16 21:00 277.7 0.00 0.000 54.4 12.4 100.1 9.7
2017 01 16 22:00 270.0 0.00 0.000 49.8 9.9 88.2 11.2
2017 01 16 23:00 269.3 0.00 0.000 45.1 7.3 87.4 10.7
2017 01 16 24:00 268.6 0.00 0.000 41.7 5.4 82.4 9.9
2017 01 17 1:00 269.5 0.00 0.000 39.3 4.1 84 6.9
2017 01 17 2:00 268.5 0.00 0.000 39.1 4.0 83.6 7.0
2017 01 17 3:00 268.5 0.00 0.000 39.2 4.0 84.8 6.5
2017 01 17 4:00 268.5 0.00 0.000 38.6 3.7 85.5 7.2
2017 01 17 5:00 268.5 0.00 0.000 38.2 3.5 87.3 7.9
2017 01 17 6:00 268.5 0.00 0.000 37.7 3.2 88.1 8.8
2017 01 17 7:00 268.5 0.00 0.000 37.6 3.1 88.4 7.9
2017 01 17 8:00 269.0 0.00 0.000 37.4 3.0 90.3 7.8
2017 01 17 9:00 269.8 0.00 0.000 36.8 2.7 92.7 8.5
2017 01 17 10:00 Wet 297.4 0.00 0.000 37.1 2.8 93.5 7.4
2017 01 17 11:00 Wet 327.4 0.00 0.000 37.6 3.1 92.1 7.4
2017 01 17 12:00 270.7 0.00 0.000 38.5 3.6 87.4 7.7
2017 01 17 13:00 267.8 0.00 0.000 39.3 4.1 84.9 7.5
2017 01 17 14:00 267.8 0.00 0.000 38.9 3.8 86.2 8.8
2017 01 17 15:00 268.0 0.00 0.000 38.6 3.7 88.2 8.1
2017 01 17 16:00 268.5 0.00 0.000 38.2 3.5 88.5 7.7
2017 01 17 17:00 268.5 0.00 0.000 37.9 3.3 88.4 6.7
2017 01 17 18:00 268.5 0.00 0.000 37.1 2.8 89.5 6.7
2017 01 17 19:00 268.5 0.00 0.000 36.9 2.7 90.4 4.3
2017 01 17 20:00 269.1 0.00 0.000 36.6 2.5 92.3 5.0
2017 01 17 21:00 269.3 0.00 0.000 36.3 2.4 93.6 4.9
2017 01 17 22:00 270.2 0.00 0.000 35.6 2.0 95.4 5.5
2017 01 17 23:00 270.6 0.00 0.000 35.5 1.9 96.2 3.9
2017 01 17 24:00 273.1 0.00 0.000 34.9 1.6 97.7 4.5
2017 01 18 1:00 279.8 0.00 0.000 34.7 1.5 99.4 4.2
2017 01 18 2:00 Wet 330.8 0.00 0.000 34.4 1.3 100.5 4.4
2017 01 18 3:00 Wet 413.1 0.00 0.000 34.0 1.1 100.9 3.6
2017 01 18 4:00 Wet 391.2 0.00 0.000 0.0 0.8 101 4.6
2017 01 18 5:00 Wet 377.7 0.00 0.000 0.0 0.7 101.1 1.2
2017 01 18 6:00 Wet 372.9 0.00 0.000 0.0 0.6 101.2 2.7
2017 01 18 7:00 Wet 361.7 0.00 0.000 0.0 0.7 101.2 2.1
2017 01 18 8:00 Wet 356.9 0.00 0.000 0.0 0.7 101.1 2.7
2017 01 18 9:00 Wet 338.5 0.00 0.000 0.0 0.8 101.2 2.6
2017 01 18 10:00 Wet 316.6 0.00 0.000 34.5 1.4 100.8 3.8
2017 01 18 11:00 Wet 286.5 0.00 0.000 36.1 2.3 99.4 5.0
2017 01 18 12:00 267.5 0.00 0.000 39.3 4.1 87.7 5.6
2017 01 18 13:00 266.9 0.00 0.000 40.8 4.9 79.8 5.0
2017 01 18 14:00 265.9 0.00 0.000 43.9 6.6 71.9 4.0
2017 01 18 15:00 266.4 0.00 0.000 43.8 6.5 74.9 6.9
2017 01 18 16:00 266.5 0.00 0.000 43.5 6.4 77.5 6.1
2017 01 18 17:00 267.1 0.00 0.000 42.6 5.9 81.4 6.5
2017 01 18 18:00 267.2 0.00 0.000 41.4 5.2 85.2 6.7
2017 01 18 19:00 267.8 0.00 0.000 40.9 4.9 87.1 4.7
2017 01 18 20:00 269.3 0.00 0.000 40.4 4.7 90.6 5.7
2017 01 18 21:00 Wet 328.6 0.00 0.000 40.2 4.5 93.2 4.5
2017 01 18 22:00 280.9 0.00 0.000 40.2 4.6 93.2 5.5
2017 01 18 23:00 269.8 0.00 0.000 40.1 4.5 93.9 6.5
2017 01 18 24:00 274.1 0.00 0.000 40.0 4.4 94.9 6.2
2017 01 19 1:00 273.4 0.00 0.000 40.0 4.5 96.5 4.7
2017 01 19 2:00 275.1 0.00 0.000 40.1 4.5 97.1 5.3
2017 01 19 3:00 Wet 328.8 0.00 0.000 39.9 4.4 98.6 6.3
2017 01 19 4:00 Wet 349.8 0.00 0.000 40.1 4.5 99.4 5.2
2017 01 19 5:00 Wet 395.2 0.01 0.254 40.2 4.6 99.8 4.0
2017 01 19 6:00 Wet 354.8 0.00 0.000 40.8 4.9 100.1 6.2
2017 01 19 7:00 Wet 356.9 0.00 0.000 40.8 4.9 100.2 5.5
2017 01 19 8:00 Wet 357.8 0.00 0.000 41.1 5.1 100.3 3.8
2017 01 19 9:00 Wet 355.5 0.00 0.000 41.9 5.5 100.1 2.4
2017 01 19 10:00 Wet 329.9 0.00 0.000 43.7 6.5 100 4.7
2017 01 19 11:00 Wet 308.6 0.00 0.000 44.0 6.7 99.9 6.1
2017 01 19 12:00 Wet 307.6 0.00 0.000 45.2 7.3 100.1 6.6
2017 01 19 13:00 274.5 0.00 0.000 46.6 8.1 100 5.6
2017 01 19 14:00 269.7 0.00 0.000 48.1 8.9 100 4.5
2017 01 19 15:00 270.3 0.00 0.000 49.2 9.5 100.1 6.1
2017 01 19 16:00 271.9 0.00 0.000 48.7 9.3 100 5.2
2017 01 19 17:00 Wet 288.3 0.00 0.000 48.7 9.3 100.1 1.7
2017 01 19 18:00 Wet 351.3 0.00 0.000 48.5 9.2 100 2.3
2017 01 19 19:00 Wet 385.0 0.00 0.000 47.9 8.9 100.1 2.0
2017 01 19 20:00 Wet 371.5 0.00 0.000 47.6 8.7 100.2 3.3
2017 01 19 21:00 Wet 351.6 0.00 0.000 47.6 8.7 100.3 4.2
2017 01 19 22:00 Wet 354.4 0.00 0.000 47.7 8.7 100.3 4.8
2017 01 19 23:00 Wet 346.9 0.00 0.000 47.7 8.7 100.4 6.1
2017 01 19 24:00 Wet 341.4 0.00 0.000 47.5 8.6 100.4 7.2
2017 01 20 1:00 Wet 328.7 0.00 0.000 47.1 8.4 100.5 5.3
2017 01 20 2:00 Wet 322.9 0.00 0.000 46.7 8.2 100.5 5.0
2017 01 20 3:00 Wet 331.1 0.00 0.000 46.4 8.0 100.5 3.6
2017 01 20 4:00 Wet 323.9 0.00 0.000 46.1 7.9 100.5 2.3
2017 01 20 5:00 Wet 319.1 0.00 0.000 45.9 7.7 100.5 4.6
2017 01 20 6:00 Wet 321.0 0.00 0.000 45.8 7.7 100.5 4.4
2017 01 20 7:00 Wet 328.5 0.00 0.000 45.8 7.7 100.5 6.9
2017 01 20 8:00 Wet 308.6 0.00 0.000 46.1 7.8 100.5 7.7
2017 01 20 9:00 Wet 284.8 0.00 0.000 46.4 8.0 100.5 7.2
2017 01 20 10:00 271.1 0.00 0.000 47.2 8.4 100.5 7.8
2017 01 20 11:00 270.3 0.00 0.000 48.1 9.0 97.9 9.9
2017 01 20 12:00 269.5 0.00 0.000 49.5 9.7 91.7 8.8
2017 01 20 13:00 268.5 0.00 0.000 51.6 10.9 86.7 9.9
2017 01 20 14:00 267.3 0.00 0.000 55.0 12.8 77.3 11.7
2017 01 20 15:00 266.7 0.00 0.000 58.1 14.5 69.31 11.8
2017 01 20 16:00 266.2 0.00 0.000 60.2 15.7 63.53 12.2
2017 01 20 17:00 266.2 0.00 0.000 60.1 15.6 61.89 10.6
2017 01 20 18:00 266.6 0.00 0.000 57.2 14.0 66.69 8.2
2017 01 20 19:00 266.9 0.00 0.000 55.8 13.2 70.5 8.7
2017 01 20 20:00 267.0 0.00 0.000 54.5 12.5 73.3 9.3
2017 01 20 21:00 267.0 0.00 0.000 53.5 12.0 74.4 9.0
2017 01 20 22:00 267.0 0.00 0.000 53.1 11.7 73.4 9.2
2017 01 20 23:00 267.0 0.00 0.000 52.9 11.6 70.8 9.6
2017 01 20 24:00 266.9 0.00 0.000 52.8 11.6 68.06 8.7
2017 01 21 1:00 266.7 0.00 0.000 52.0 11.1 68.09 8.2
2017 01 21 2:00 267.0 0.00 0.000 49.6 9.8 75 6.8
2017 01 21 3:00 267.0 0.00 0.000 50.5 10.3 72.8 8.1
2017 01 21 4:00 267.0 0.00 0.000 51.3 10.7 70 8.4
2017 01 21 5:00 267.4 0.00 0.000 48.5 9.2 77.1 6.3
2017 01 21 6:00 267.0 0.00 0.000 49.7 9.8 74.9 7.7
2017 01 21 7:00 267.0 0.00 0.000 49.7 9.9 73 6.7
2017 01 21 8:00 267.0 0.00 0.000 49.5 9.7 73.5 6.5
2017 01 21 9:00 267.0 0.00 0.000 53.0 11.7 67.11 6.5
2017 01 21 10:00 266.3 0.00 0.000 56.7 13.7 60.67 8.8
2017 01 21 11:00 265.6 0.00 0.000 59.3 15.2 52.84 8.7
2017 01 21 12:00 264.4 0.00 0.000 62.7 17.0 41.36 8.8
2017 01 21 13:00 263.5 0.00 0.000 62.6 17.0 38.03 7.7
2017 01 21 14:00 263.5 0.00 0.000 63.7 17.6 39.93 7.1
2017 01 21 15:00 263.3 0.00 0.000 64.9 18.3 39.76 9.9
2017 01 21 16:00 263.4 0.00 0.000 63.5 17.5 44.3 8.1
2017 01 21 17:00 263.8 0.00 0.000 62.0 16.6 48.62 5.5
2017 01 21 18:00 264.3 0.00 0.000 59.6 15.3 54.13 3.0
2017 01 21 19:00 264.7 0.00 0.000 58.7 14.9 55.85 3.4
2017 01 21 20:00 264.9 0.00 0.000 57.1 14.0 59.28 2.9
2017 01 21 21:00 264.9 0.00 0.000 57.0 13.9 60.93 5.4
2017 01 21 22:00 Wet 348.5 0.00 0.000 53.0 11.6 79.3 6.7
2017 01 21 23:00 Wet 286.6 0.00 0.000 51.2 10.6 82.4 4.0
2017 01 21 24:00 267.2 0.00 0.000 51.8 11.0 78.9 4.6
2017 01 22 1:00 267.7 0.00 0.000 52.6 11.4 80.9 4.6
2017 01 22 2:00 268.5 0.00 0.000 52.5 11.4 89.2 4.2
2017 01 22 3:00 271.1 0.00 0.000 53.4 11.9 93.3 2.0
2017 01 22 4:00 272.5 0.00 0.000 53.3 11.8 94.6 2.4
2017 01 22 5:00 271.8 0.00 0.000 53.2 11.8 93.3 4.4
2017 01 22 6:00 270.2 0.00 0.000 53.3 11.8 92.6 6.1
2017 01 22 7:00 270.8 0.00 0.000 53.0 11.7 92.6 5.6
2017 01 22 8:00 275.9 0.00 0.000 52.3 11.3 93.3 5.7
2017 01 22 9:00 Wet 369.9 0.07 1.778 49.4 9.7 90.4 7.8
2017 01 22 10:00 Wet 431.3 0.04 1.016 47.4 8.6 91.2 7.8
2017 01 22 11:00 Wet 415.5 0.03 0.762 47.7 8.7 93 9.5
2017 01 22 12:00 Wet 488.5 0.14 3.556 46.8 8.2 94.5 9.9
2017 01 22 13:00 Wet 504.9 0.29 7.370 45.3 7.4 95.2 12.1
2017 01 22 14:00 Wet 453.2 0.09 2.286 43.5 6.4 93.5 15.3
2017 01 22 15:00 Wet 400.0 0.02 0.508 42.7 5.9 92.8 16.0
2017 01 22 16:00 Wet 354.5 0.01 0.254 42.3 5.7 92.1 13.8
2017 01 22 17:00 271.9 0.00 0.000 42.4 5.8 89.9 16.0
2017 01 22 18:00 269.1 0.00 0.000 42.2 5.7 89.9 16.1
2017 01 22 19:00 269.1 0.01 0.254 41.8 5.5 89.6 16.5
2017 01 22 20:00 269.0 0.00 0.000 40.7 4.8 88.7 15.5
2017 01 22 21:00 268.5 0.00 0.000 38.9 3.8 89.2 16.6
2017 01 22 22:00 268.8 0.00 0.000 36.5 2.5 91.7 16.5
2017 01 22 23:00 269.2 0.00 0.000 36.3 2.4 92.5 16.5
2017 01 22 24:00 268.7 0.00 0.000 36.7 2.6 91 16.6
2017 01 23 1:00 268.6 0.00 0.000 36.9 2.7 90.7 16.6
2017 01 23 2:00 277.4 0.00 0.000 36.8 2.7 91.4 17.1
2017 01 23 3:00 271.5 0.00 0.000 37.0 2.8 87.6 17.7
2017 01 23 4:00 268.5 0.00 0.000 37.1 2.8 88.6 14.4
2017 01 23 5:00 268.7 0.00 0.000 36.8 2.7 90.4 13.7
2017 01 23 6:00 268.5 0.00 0.000 36.8 2.7 90.2 11.9
2017 01 23 7:00 268.6 0.00 0.000 36.7 2.6 90.9 11.1
2017 01 23 8:00 268.5 0.00 0.000 36.7 2.6 90.6 9.6
2017 01 23 9:00 268.5 0.00 0.000 36.9 2.7 89 10.0
2017 01 23 10:00 268.2 0.00 0.000 37.3 3.0 88.1 10.7
2017 01 23 11:00 267.5 0.00 0.000 38.5 3.6 84.4 10.7
2017 01 23 12:00 266.8 0.00 0.000 40.6 4.8 79.5 9.2
2017 01 23 13:00 266.3 0.00 0.000 42.2 5.7 74.1 9.0
2017 01 23 14:00 265.9 0.00 0.000 43.8 6.6 68.62 8.7
2017 01 23 15:00 265.5 0.00 0.000 44.9 7.1 64.58 6.9
2017 01 23 16:00 265.1 0.00 0.000 45.8 7.6 61.16 6.4
2017 01 23 17:00 265.0 0.00 0.000 45.8 7.7 60.02 3.9
2017 01 23 18:00 266.4 0.00 0.000 41.5 5.3 69.73 1.7
2017 01 23 19:00 270.0 0.00 0.000 37.8 3.2 79.3 1.1
2017 01 23 20:00 Wet 290.3 0.00 0.000 34.4 1.3 87.8 0.9
2017 01 23 21:00 Wet 301.5 0.00 0.000 0.0 0.2 93.8 1.1
2017 01 23 22:00 278.1 0.00 0.000 0.0 -0.2 95.6 0.4
2017 01 23 23:00 281.4 0.00 0.000 0.0 -0.2 94.6 1.5
2017 01 23 24:00 283.1 0.00 0.000 29.5 -1.4 96.9 0.9
2017 01 24 1:00 Wet 285.4 0.00 0.000 30.0 -1.1 97.7 0.7
2017 01 24 2:00 Wet 286.4 0.00 0.000 29.3 -1.5 96.7 1.0
2017 01 24 3:00 Wet 288.5 0.00 0.000 0.0 0.4 91.9 2.5
2017 01 24 4:00 Wet 290.4 0.00 0.000 33.8 1.0 87.3 3.7
2017 01 24 5:00 Wet 293.0 0.00 0.000 34.1 1.1 86.8 5.5
2017 01 24 6:00 Wet 316.6 0.00 0.000 34.3 1.3 85.8 6.7
2017 01 24 7:00 Wet 357.2 0.00 0.000 34.1 1.2 87 8.6
2017 01 24 8:00 Wet 286.5 0.00 0.000 0.0 0.8 89.9 9.5
2017 01 24 9:00 Wet 284.7 0.00 0.000 36.0 2.2 86.7 9.9
2017 01 24 10:00 267.8 0.00 0.000 39.4 4.1 82.2 13.8
2017 01 24 11:00 266.8 0.00 0.000 43.1 6.2 74 16.5
2017 01 24 12:00 266.1 0.00 0.000 47.2 8.5 65.55 17.2
2017 01 24 13:00 265.3 0.00 0.000 52.0 11.1 55.19 18.4
2017 01 24 14:00 264.6 0.00 0.000 54.4 12.4 50.76 18.2
2017 01 24 15:00 264.3 0.00 0.000 56.1 13.4 48.46 18.7
2017 01 24 16:00 264.2 0.00 0.000 57.4 14.1 45.58 18.4
2017 01 24 17:00 264.2 0.00 0.000 55.9 13.3 50.16 16.2
2017 01 24 18:00 264.8 0.00 0.000 52.9 11.6 57.91 15.8
2017 01 24 19:00 265.2 0.00 0.000 50.5 10.3 64.76 14.2
2017 01 24 20:00 265.6 0.00 0.000 48.9 9.4 69.99 11.5
2017 01 24 21:00 266.1 0.00 0.000 48.2 9.0 73 10.5
2017 01 24 22:00 266.4 0.00 0.000 47.8 8.8 74.6 10.8
2017 01 24 23:00 266.4 0.00 0.000 47.5 8.6 76.4 10.9
2017 01 24 24:00 266.4 0.00 0.000 47.8 8.8 76.8 9.4
2017 01 25 1:00 266.7 0.00 0.000 47.7 8.7 77.2 7.4
2017 01 25 2:00 267.1 0.00 0.000 47.6 8.7 78.1 6.6
2017 01 25 3:00 267.1 0.00 0.000 47.6 8.7 79 4.5
2017 01 25 4:00 267.1 0.00 0.000 49.2 9.6 76.6 4.6
2017 01 25 5:00 266.7 0.00 0.000 48.5 9.2 73 7.9
2017 01 25 6:00 266.4 0.00 0.000 42.3 5.7 74.3 8.7
2017 01 25 7:00 267.0 0.00 0.000 38.6 3.7 82.5 6.6
2017 01 25 8:00 266.6 0.00 0.000 37.3 2.9 80.8 8.9
2017 01 25 9:00 266.0 0.00 0.000 37.9 3.3 73.2 11.9
2017 01 25 10:00 265.7 0.00 0.000 37.1 2.9 67.19 12.1
2017 01 25 11:00 265.1 0.00 0.000 39.0 3.9 60.08 14.2
2017 01 25 12:00 264.8 0.00 0.000 41.3 5.1 55.08 13.0
2017 01 25 13:00 264.4 0.00 0.000 41.9 5.5 54.24 12.8
2017 01 25 14:00 264.4 0.00 0.000 41.7 5.4 58.32 12.5
2017 01 25 15:00 264.3 0.00 0.000 41.9 5.5 55.94 12.7
2017 01 25 16:00 264.3 0.00 0.000 42.7 6.0 52.12 11.9
2017 01 25 17:00 264.4 0.00 0.000 40.2 4.6 53.85 11.3
2017 01 25 18:00 264.4 0.00 0.000 38.1 3.4 56.79 11.3
2017 01 25 19:00 264.4 0.00 0.000 36.5 2.5 59.63 10.8
2017 01 25 20:00 264.5 0.00 0.000 35.6 2.0 58.82 12.4
2017 01 25 21:00 264.5 0.00 0.000 34.7 1.5 59.27 13.2
2017 01 25 22:00 264.5 0.00 0.000 0.0 0.8 60.52 12.1
2017 01 25 23:00 264.5 0.00 0.000 0.0 0.5 62.25 12.8
2017 01 25 24:00 264.5 0.00 0.000 0.0 0.1 63.79 12.0
2017 01 26 1:00 264.5 0.00 0.000 0.0 -0.4 66.93 11.6
2017 01 26 2:00 264.7 0.00 0.000 0.0 -0.8 69.82 12.8
2017 01 26 3:00 265.2 0.00 0.000 0.0 -1.0 72.1 11.1
2017 01 26 4:00 265.2 0.00 0.000 29.2 -1.6 75.1 11.6
2017 01 26 5:00 265.2 0.00 0.000 28.9 -1.7 76.6 12.0
2017 01 26 6:00 265.2 0.00 0.000 28.5 -2.0 78.2 11.2
2017 01 26 7:00 265.4 0.00 0.000 27.8 -2.3 79.8 9.2
2017 01 26 8:00 265.7 0.00 0.000 27.0 -2.8 80.2 9.4
2017 01 26 9:00 265.4 0.00 0.000 27.8 -2.3 78.8 9.4
2017 01 26 10:00 265.3 0.00 0.000 28.9 -1.7 75 10.5
2017 01 26 11:00 264.7 0.00 0.000 30.0 -1.1 67.83 10.0
2017 01 26 12:00 264.5 0.00 0.000 0.0 -0.6 64.82 10.5
2017 01 26 13:00 264.5 0.00 0.000 0.0 -0.5 64.29 9.9
2017 01 26 14:00 264.5 0.00 0.000 0.0 -0.5 62.78 10.5
2017 01 26 15:00 264.5 0.00 0.000 0.0 -0.4 61.67 9.9
2017 01 26 16:00 264.5 0.00 0.000 0.0 -0.5 62.14 8.8
2017 01 26 17:00 264.5 0.00 0.000 0.0 -0.9 62.13 9.2
2017 01 26 18:00 264.5 0.00 0.000 29.9 -1.1 62.2 9.6
2017 01 26 19:00 264.5 0.00 0.000 29.6 -1.4 60.37 9.8
2017 01 26 20:00 264.6 0.00 0.000 29.5 -1.4 60.67 8.6
2017 01 26 21:00 264.6 0.00 0.000 29.5 -1.4 61.06 5.7
2017 01 26 22:00 264.6 0.00 0.000 29.5 -1.4 62.4 5.2
2017 01 26 23:00 264.6 0.00 0.000 29.6 -1.3 63.68 5.4
2017 01 26 24:00 264.6 0.00 0.000 29.3 -1.5 65.49 5.7
2017 01 27 1:00 265.3 0.00 0.000 27.7 -2.4 69.87 5.7
2017 01 27 2:00 265.5 0.00 0.000 26.1 -3.3 73.9 4.8
2017 01 27 3:00 265.9 0.00 0.000 25.3 -3.8 75.2 4.4
2017 01 27 4:00 266.0 0.00 0.000 25.0 -3.9 75.4 4.5
2017 01 27 5:00 266.0 0.00 0.000 24.5 -4.2 76.4 4.5
2017 01 27 6:00 266.0 0.00 0.000 24.7 -4.0 75.9 6.7
2017 01 27 7:00 266.0 0.00 0.000 24.3 -4.3 77.2 6.8
2017 01 27 8:00 266.0 0.00 0.000 24.3 -4.3 76.3 6.7
2017 01 27 9:00 265.5 0.00 0.000 26.8 -2.9 71.8 9.0
2017 01 27 10:00 265.2 0.00 0.000 29.2 -1.6 65.9 11.0
2017 01 27 11:00 264.6 0.00 0.000 0.0 -0.5 59.73 13.0
2017 01 27 12:00 264.5 0.00 0.000 0.0 -0.2 60.02 14.6
2017 01 27 13:00 264.4 0.00 0.000 0.0 0.3 59.05 13.0
2017 01 27 14:00 264.2 0.00 0.000 0.0 0.9 55.12 13.8
2017 01 27 15:00 263.8 0.00 0.000 36.8 2.7 45.77 12.2
2017 01 27 16:00 263.7 0.00 0.000 38.3 3.5 41.11 12.6
2017 01 27 17:00 263.7 0.00 0.000 38.0 3.3 40.4 11.7
2017 01 27 18:00 263.8 0.00 0.000 35.7 2.1 45.92 6.9
2017 01 27 19:00 264.3 0.00 0.000 0.0 0.9 51.17 4.8
2017 01 27 20:00 264.5 0.00 0.000 0.0 0.2 54.55 4.4
2017 01 27 21:00 264.5 0.00 0.000 0.0 0.1 54.74 4.6
2017 01 27 22:00 264.6 0.00 0.000 0.0 0.3 53.16 5.7
2017 01 27 23:00 264.6 0.00 0.000 0.0 0.3 51.46 6.1
2017 01 27 24:00 264.5 0.00 0.000 0.0 0.4 49.18 6.3
2017 01 28 1:00 264.0 0.00 0.000 0.0 0.8 45.96 7.2
2017 01 28 2:00 263.9 0.00 0.000 0.0 0.8 46.29 8.5
2017 01 28 3:00 263.9 0.00 0.000 0.0 0.3 49.85 9.1
2017 01 28 4:00 264.4 0.00 0.000 0.0 -0.6 56.28 7.2
2017 01 28 5:00 264.6 0.00 0.000 30.0 -1.1 63.13 7.4
2017 01 28 6:00 265.1 0.00 0.000 29.4 -1.5 70.4 9.8
2017 01 28 7:00 265.3 0.00 0.000 29.7 -1.3 74.8 12.5
2017 01 28 8:00 265.7 0.00 0.000 29.2 -1.6 77.7 9.1
2017 01 28 9:00 265.7 0.00 0.000 0.0 -0.9 76 9.0
2017 01 28 10:00 265.2 0.00 0.000 0.0 0.2 71.5 11.2
2017 01 28 11:00 265.1 0.00 0.000 35.1 1.7 66.37 12.6
2017 01 28 12:00 264.5 0.00 0.000 37.5 3.1 59.81 11.2
2017 01 28 13:00 264.4 0.00 0.000 40.0 4.4 56 12.0
2017 01 28 14:00 264.0 0.00 0.000 41.6 5.3 49.24 14.1
2017 01 28 15:00 263.7 0.00 0.000 42.8 6.0 43.54 13.9
2017 01 28 16:00 263.3 0.00 0.000 43.8 6.6 40.35 11.9
2017 01 28 17:00 263.1 0.00 0.000 43.1 6.1 38.99 12.1
2017 01 28 18:00 263.6 0.00 0.000 41.2 5.1 42.35 7.0
2017 01 28 19:00 263.7 0.00 0.000 41.1 5.1 45.46 8.4
2017 01 28 20:00 263.7 0.00 0.000 41.6 5.4 45.19 9.8
2017 01 28 21:00 263.7 0.00 0.000 41.9 5.5 44.69 10.5
2017 01 28 22:00 263.7 0.00 0.000 41.7 5.4 47.29 10.0
2017 01 28 23:00 263.7 0.00 0.000 41.2 5.1 49.7 9.3
2017 01 28 24:00 263.8 0.00 0.000 40.5 4.7 54.81 9.7
2017 01 29 1:00 265.4 0.00 0.000 38.9 3.8 62.96 7.8
2017 01 29 2:00 264.8 0.00 0.000 37.7 3.1 68.28 5.5
2017 01 29 3:00 264.9 0.00 0.000 38.2 3.5 65.9 6.8
2017 01 29 4:00 265.0 0.00 0.000 38.5 3.6 66.44 11.6
2017 01 29 5:00 265.6 0.00 0.000 37.6 3.1 70.5 11.4
2017 01 29 6:00 265.1 0.00 0.000 36.5 2.5 72.8 10.8
2017 01 29 7:00 265.1 0.00 0.000 35.9 2.2 70.8 10.4
2017 01 29 8:00 265.1 0.00 0.000 35.6 2.0 68.76 11.3
2017 01 29 9:00 265.2 0.00 0.000 35.1 1.7 69.2 12.4
2017 01 29 10:00 264.6 0.00 0.000 36.7 2.6 59.83 13.8
2017 01 29 11:00 264.4 0.00 0.000 37.5 3.0 58.44 14.2
2017 01 29 12:00 264.1 0.00 0.000 38.9 3.8 55.38 13.5
2017 01 29 13:00 263.7 0.00 0.000 41.5 5.3 47.05 13.1
2017 01 29 14:00 263.7 0.00 0.000 42.7 5.9 44.81 14.7
2017 01 29 15:00 263.3 0.00 0.000 44.0 6.7 41.98 13.5
2017 01 29 16:00 263.0 0.00 0.000 45.3 7.4 39.15 12.8
2017 01 29 17:00 263.0 0.00 0.000 45.2 7.3 41.24 11.8
2017 01 29 18:00 263.7 0.00 0.000 43.3 6.3 47.37 9.3
2017 01 29 19:00 264.0 0.00 0.000 40.6 4.8 53.91 4.8
2017 01 29 20:00 264.4 0.00 0.000 38.8 3.8 58.8 3.7
2017 01 29 21:00 264.6 0.00 0.000 37.7 3.1 61.6 3.8
2017 01 29 22:00 265.1 0.00 0.000 38.2 3.5 64.32 4.9
2017 01 29 23:00 265.2 0.00 0.000 37.4 3.0 69.16 4.6
2017 01 29 24:00 265.6 0.00 0.000 37.1 2.8 72.3 5.5
2017 01 30 1:00 266.1 0.00 0.000 35.8 2.1 77 4.7
2017 01 30 2:00 266.8 0.00 0.000 35.0 1.7 79.7 4.1
2017 01 30 3:00 268.8 0.00 0.000 0.0 0.8 83.5 3.8
2017 01 30 4:00 274.9 0.00 0.000 0.0 -0.1 87.6 1.7
2017 01 30 5:00 271.9 0.00 0.000 29.7 -1.3 93.6 1.0
2017 01 30 6:00 274.2 0.00 0.000 27.3 -2.6 95.8 0.8
2017 01 30 7:00 276.5 0.00 0.000 27.4 -2.6 96.8 0.8
2017 01 30 8:00 278.4 0.00 0.000 0.0 -0.8 91.3 1.7
2017 01 30 9:00 Wet 317.0 0.00 0.000 36.6 2.6 80.5 4.0
2017 01 30 10:00 267.5 0.00 0.000 41.2 5.1 70.4 7.3
2017 01 30 11:00 265.2 0.00 0.000 45.4 7.5 59.47 8.8
2017 01 30 12:00 264.5 0.00 0.000 50.5 10.3 50.69 9.3
2017 01 30 13:00 263.5 0.00 0.000 55.2 12.9 37.7 9.6
2017 01 30 14:00 262.4 0.00 0.000 59.1 15.1 27.17 9.5
2017 01 30 15:00 261.9 0.00 0.000 59.8 15.4 27.66 10.2
2017 01 30 16:00 261.5 0.00 0.000 60.5 15.8 28.16 10.5
2017 01 30 17:00 261.5 0.00 0.000 61.1 16.1 24.44 9.7
2017 01 30 18:00 261.7 0.00 0.000 58.0 14.4 27.17 5.3
2017 01 30 19:00 262.2 0.00 0.000 54.7 12.6 30.48 4.4
2017 01 30 20:00 262.3 0.00 0.000 52.1 11.1 33.15 4.5
2017 01 30 21:00 262.3 0.00 0.000 52.0 11.1 32.78 6.2
2017 01 30 22:00 262.3 0.00 0.000 52.5 11.4 33.13 6.6
2017 01 30 23:00 262.4 0.00 0.000 49.9 10.0 37.25 5.0
2017 01 30 24:00 262.7 0.00 0.000 48.8 9.3 39.61 5.3
2017 01 31 1:00 263.0 0.00 0.000 45.0 7.2 46.37 3.0
2017 01 31 2:00 263.5 0.00 0.000 43.2 6.2 51.43 4.5
2017 01 31 3:00 263.5 0.00 0.000 44.2 6.8 48.5 4.9
2017 01 31 4:00 263.8 0.00 0.000 40.7 4.8 55.06 2.4
2017 01 31 5:00 264.5 0.00 0.000 36.8 2.6 65.23 0.5
2017 01 31 6:00 264.6 0.00 0.000 35.7 2.1 64.1 1.0
2017 01 31 7:00 264.5 0.00 0.000 35.9 2.2 57.65 2.4
2017 01 31 8:00 264.5 0.00 0.000 35.7 2.0 57.79 1.6
2017 01 31 9:00 263.8 0.00 0.000 43.9 6.6 41.91 4.4
2017 01 31 10:00 263.1 0.00 0.000 48.3 9.1 36.5 5.3
2017 01 31 11:00 262.4 0.00 0.000 52.1 11.2 30 5.2
2017 01 31 12:00 261.7 0.00 0.000 55.0 12.8 25.53 5.0
2017 01 31 13:00 260.7 0.00 0.000 58.0 14.5 20.86 3.2
2017 01 31 14:00 260.0 0.00 0.000 60.1 15.6 18.83 2.6
2017 01 31 15:00 259.8 0.00 0.000 60.1 15.6 18.98 3.3
2017 01 31 16:00 259.9 0.00 0.000 60.2 15.7 19.17 1.9
2017 01 31 17:00 260.2 0.00 0.000 58.6 14.8 22.85 4.2
2017 01 31 18:00 260.8 0.00 0.000 53.1 11.7 27.77 4.8
2017 01 31 19:00 261.3 0.00 0.000 50.1 10.0 31.63 4.1
2017 01 31 20:00 261.6 0.00 0.000 48.0 8.9 33.84 3.8
2017 01 31 21:00 261.7 0.00 0.000 46.5 8.1 36.05 4.4
2017 01 31 22:00 261.7 0.00 0.000 45.1 7.3 39.52 5.1
2017 01 31 23:00 262.0 0.00 0.000 44.2 6.8 41.03 5.8
2017 01 31 24:00 262.3 0.00 0.000 43.0 6.1 41.86 5.9
2017 02 01 1:00 262.4 0.00 0.000 42.5 5.8 42.32 4.8
2017 02 01 2:00 262.4 0.00 0.000 40.3 4.6 46.14 5.6
2017 02 01 3:00 262.4 0.00 0.000 39.2 4.0 47.65 6.8
2017 02 01 4:00 262.6 0.00 0.000 38.0 3.3 54.91 7.9
2017 02 01 5:00 263.1 0.00 0.000 37.5 3.0 59.03 8.6
2017 02 01 6:00 263.1 0.00 0.000 37.0 2.8 60.06 8.3
2017 02 01 7:00 263.2 0.00 0.000 36.6 2.5 63.4 9.9
2017 02 01 8:00 263.8 0.00 0.000 36.6 2.5 64.98 9.6
2017 02 01 9:00 263.8 0.00 0.000 37.7 3.2 62.9 9.6
2017 02 01 10:00 263.3 0.00 0.000 40.5 4.7 55.92 11.6
2017 02 01 11:00 263.1 0.00 0.000 44.1 6.7 47.03 10.3
2017 02 01 12:00 262.5 0.00 0.000 46.9 8.3 41.69 9.1
2017 02 01 13:00 262.2 0.00 0.000 49.4 9.7 38.45 7.5
2017 02 01 14:00 261.7 0.00 0.000 51.6 10.9 36.1 6.8
2017 02 01 15:00 261.6 0.00 0.000 52.3 11.3 36.62 7.5
2017 02 01 16:00 261.6 0.00 0.000 52.4 11.3 36.66 6.7
2017 02 01 17:00 262.0 0.00 0.000 51.3 10.7 38.37 6.9
2017 02 01 18:00 262.3 0.00 0.000 46.8 8.2 45.28 8.3
2017 02 01 19:00 262.9 0.00 0.000 43.6 6.4 49.54 6.7
2017 02 01 20:00 263.0 0.00 0.000 40.8 4.9 53.21 7.3
2017 02 01 21:00 263.1 0.00 0.000 38.1 3.4 58.99 8.2
2017 02 01 22:00 263.2 0.00 0.000 35.7 2.0 62.78 7.6
2017 02 01 23:00 263.8 0.00 0.000 34.2 1.2 67.22 9.0
2017 02 01 24:00 263.8 0.00 0.000 0.0 0.5 71.1 6.8
2017 02 02 1:00 264.0 0.00 0.000 0.0 -0.1 73.2 7.3
2017 02 02 2:00 264.4 0.00 0.000 0.0 -0.6 73.3 8.5
2017 02 02 3:00 264.1 0.00 0.000 0.0 -0.7 72.1 9.3
2017 02 02 4:00 263.9 0.00 0.000 29.8 -1.2 72.6 10.6
2017 02 02 5:00 263.9 0.00 0.000 28.6 -1.9 73.7 10.8
2017 02 02 6:00 263.9 0.00 0.000 27.9 -2.3 71.9 10.3
2017 02 02 7:00 263.9 0.00 0.000 27.3 -2.6 71.2 9.3
2017 02 02 8:00 263.9 0.00 0.000 26.1 -3.3 71.6 9.3
2017 02 02 9:00 263.9 0.00 0.000 25.7 -3.5 72.6 8.8
2017 02 02 10:00 263.9 0.00 0.000 26.0 -3.4 71.2 8.4
2017 02 02 11:00 263.9 0.00 0.000 26.7 -2.9 68.06 8.4
2017 02 02 12:00 263.3 0.00 0.000 29.2 -1.6 61.59 7.6
2017 02 02 13:00 263.1 0.00 0.000 0.0 -0.3 54.23 7.1
2017 02 02 14:00 262.8 0.00 0.000 0.0 0.2 51.12 6.4
2017 02 02 15:00 262.6 0.00 0.000 0.0 0.8 49.18 6.3
2017 02 02 16:00 262.5 0.00 0.000 0.0 0.8 46.44 6.6
2017 02 02 17:00 263.0 0.00 0.000 0.0 0.7 46.32 5.9
2017 02 02 18:00 262.8 0.00 0.000 0.0 0.4 44.59 5.5
2017 02 02 19:00 262.6 0.00 0.000 0.0 0.1 45.21 4.9
2017 02 02 20:00 262.9 0.00 0.000 0.0 -0.8 47.33 4.7
2017 02 02 21:00 263.2 0.00 0.000 28.3 -2.1 51.88 3.6
2017 02 02 22:00 263.2 0.00 0.000 26.1 -3.3 54.41 3.7
2017 02 02 23:00 263.2 0.00 0.000 25.2 -3.8 55.01 4.0
2017 02 02 24:00 263.3 0.00 0.000 24.3 -4.3 56.4 4.1
2017 02 03 1:00 263.3 0.00 0.000 23.3 -4.8 60.47 4.7
2017 02 03 2:00 263.5 0.00 0.000 22.0 -5.5 63.19 3.5
2017 02 03 3:00 264.0 0.00 0.000 20.7 -6.3 67.66 4.3
2017 02 03 4:00 264.0 0.00 0.000 20.2 -6.6 66.69 3.8
2017 02 03 5:00 264.0 0.00 0.000 19.6 -6.9 69.13 5.3
2017 02 03 6:00 264.0 0.00 0.000 19.2 -7.1 70.4 5.9
2017 02 03 7:00 264.0 0.00 0.000 18.8 -7.3 70.7 6.0
2017 02 03 8:00 264.0 0.00 0.000 19.7 -6.8 68.14 4.6
2017 02 03 9:00 264.0 0.00 0.000 22.7 -5.2 63.52 6.3
2017 02 03 10:00 263.9 0.00 0.000 25.9 -3.4 58.4 8.0
2017 02 03 11:00 263.2 0.00 0.000 28.1 -2.1 52.95 8.4
2017 02 03 12:00 262.9 0.00 0.000 0.0 -0.9 44.75 9.7
2017 02 03 13:00 262.4 0.00 0.000 0.0 0.1 38.27 10.3
2017 02 03 14:00 261.8 0.00 0.000 33.8 1.0 33.21 8.7
2017 02 03 15:00 261.7 0.00 0.000 35.0 1.7 29.32 6.8
2017 02 03 16:00 261.5 0.00 0.000 35.3 1.8 27.72 7.3
2017 02 03 17:00 261.6 0.00 0.000 0.0 0.9 29.18 6.7
2017 02 03 18:00 261.8 0.00 0.000 0.0 -0.6 32.32 4.3
2017 02 03 19:00 261.8 0.00 0.000 28.2 -2.1 36.39 3.2
2017 02 03 20:00 262.5 0.00 0.000 26.1 -3.3 41.85 2.6
2017 02 03 21:00 262.6 0.00 0.000 25.6 -3.6 42.72 2.3
2017 02 03 22:00 263.2 0.00 0.000 22.5 -5.3 51.98 0.5
2017 02 03 23:00 263.3 0.00 0.000 23.7 -4.6 48.47 1.2
2017 02 03 24:00 263.3 0.00 0.000 24.4 -4.2 46.8 3.5
2017 02 04 1:00 263.2 0.00 0.000 24.5 -4.2 46.95 5.4
2017 02 04 2:00 262.8 0.00 0.000 23.9 -4.5 45.91 5.4
2017 02 04 3:00 263.2 0.00 0.000 22.8 -5.1 51.1 6.9
2017 02 04 4:00 263.3 0.00 0.000 22.1 -5.5 53.48 8.3
2017 02 04 5:00 263.3 0.00 0.000 21.5 -5.8 56.52 7.5
2017 02 04 6:00 263.3 0.00 0.000 21.2 -6.0 59.11 8.3
2017 02 04 7:00 263.3 0.00 0.000 20.8 -6.2 61.04 8.9
2017 02 04 8:00 263.3 0.00 0.000 20.8 -6.3 62.28 11.2
2017 02 04 9:00 263.3 0.00 0.000 23.5 -4.7 56.24 12.1
2017 02 04 10:00 263.0 0.00 0.000 27.2 -2.7 47.88 13.9
2017 02 04 11:00 262.6 0.00 0.000 28.9 -1.7 38.91 12.4
2017 02 04 12:00 262.2 0.00 0.000 29.2 -1.6 34.85 12.1
2017 02 04 13:00 261.8 0.00 0.000 0.0 -0.5 33.68 11.8
2017 02 04 14:00 261.8 0.00 0.000 0.0 -0.2 33.42 12.4
2017 02 04 15:00 261.8 0.00 0.000 0.0 0.1 33.57 12.8
2017 02 04 16:00 261.8 0.00 0.000 0.0 0.1 35.44 13.1
2017 02 04 17:00 261.8 0.00 0.000 0.0 0.5 39.04 11.4
2017 02 04 18:00 262.2 0.00 0.000 0.0 0.4 42.62 8.6
2017 02 04 19:00 262.5 0.00 0.000 0.0 0.4 46.42 9.2
2017 02 04 20:00 262.5 0.00 0.000 0.0 0.1 50.64 8.6
2017 02 04 21:00 263.1 0.00 0.000 0.0 -0.5 54.7 7.0
2017 02 04 22:00 263.2 0.00 0.000 0.0 -0.8 57.85 6.0
2017 02 04 23:00 263.2 0.00 0.000 0.0 -0.9 60.8 6.6
2017 02 04 24:00 263.7 0.00 0.000 0.0 -0.8 64.94 6.7
2017 02 05 1:00 264.0 0.00 0.000 0.0 -0.8 70.5 4.9
2017 02 05 2:00 264.6 0.00 0.000 29.9 -1.2 74.6 3.6
2017 02 05 3:00 265.1 0.00 0.000 29.4 -1.4 78.7 4.5
2017 02 05 4:00 265.3 0.00 0.000 0.0 -0.8 81.1 6.0
2017 02 05 5:00 267.2 0.00 0.000 0.0 -0.4 83.4 2.2
2017 02 05 6:00 268.9 0.00 0.000 0.0 -0.7 86.4 2.3
2017 02 05 7:00 270.3 0.00 0.000 0.0 -1.0 89.4 0.7
2017 02 05 8:00 272.5 0.00 0.000 0.0 -0.2 88.6 1.6
2017 02 05 9:00 Wet 293.0 0.00 0.000 39.6 4.2 79.4 3.8
2017 02 05 10:00 265.7 0.00 0.000 44.2 6.8 73.5 6.9
2017 02 05 11:00 264.7 0.00 0.000 49.4 9.7 62.43 4.5
2017 02 05 12:00 263.8 0.00 0.000 54.5 12.5 52.32 2.8
2017 02 05 13:00 262.9 0.00 0.000 57.9 14.4 45.87 4.1
2017 02 05 14:00 262.2 0.00 0.000 60.0 15.6 40.64 5.4
2017 02 05 15:00 262.1 0.00 0.000 60.9 16.1 38.27 6.6
2017 02 05 16:00 262.0 0.00 0.000 61.2 16.2 36.93 6.5
2017 02 05 17:00 262.1 0.00 0.000 60.0 15.6 39.16 6.5
2017 02 05 18:00 262.7 0.00 0.000 55.8 13.2 46.63 3.1
2017 02 05 19:00 264.0 0.00 0.000 50.7 10.4 57.13 0.9
2017 02 05 20:00 264.5 0.00 0.000 48.7 9.3 62.02 2.8
2017 02 05 21:00 264.5 0.00 0.000 48.0 8.9 65.03 5.5
2017 02 05 22:00 265.0 0.00 0.000 45.7 7.6 71.8 6.3
2017 02 05 23:00 265.9 0.00 0.000 44.6 7.0 79.7 7.4
2017 02 05 24:00 266.5 0.00 0.000 45.2 7.3 85.6 9.2
2017 02 06 1:00 268.1 0.00 0.000 45.5 7.5 88.6 8.2
2017 02 06 2:00 269.0 0.00 0.000 46.4 8.0 91.1 7.5
2017 02 06 3:00 268.3 0.00 0.000 46.2 7.9 95.6 6.1
2017 02 06 4:00 269.6 0.00 0.000 46.5 8.1 97.7 5.3
2017 02 06 5:00 Wet 284.5 0.00 0.000 46.8 8.2 98.4 5.8
2017 02 06 6:00 Wet 330.8 0.00 0.000 47.1 8.4 99.1 7.4
2017 02 06 7:00 Wet 355.9 0.00 0.000 47.2 8.5 99.5 9.1
2017 02 06 8:00 Wet 348.9 0.00 0.000 47.4 8.6 99.9 8.7
2017 02 06 9:00 Wet 339.1 0.00 0.000 48.0 8.9 100.1 9.1
2017 02 06 10:00 Wet 320.6 0.00 0.000 48.8 9.4 100.2 10.0
2017 02 06 11:00 Wet 311.4 0.00 0.000 50.0 10.0 100.3 9.8
2017 02 06 12:00 283.2 0.00 0.000 52.8 11.5 100.3 10.6
2017 02 06 13:00 268.5 0.00 0.000 55.7 13.2 99.8 9.9
2017 02 06 14:00 266.6 0.00 0.000 61.5 16.4 80.3 12.1
2017 02 06 15:00 265.8 0.00 0.000 65.7 18.7 69.19 12.5
2017 02 06 16:00 265.8 0.00 0.000 65.1 18.4 71.5 11.9
2017 02 06 17:00 266.4 0.00 0.000 62.7 17.1 78.4 12.5
2017 02 06 18:00 267.1 0.00 0.000 60.5 15.9 84.9 13.6
2017 02 06 19:00 267.6 0.00 0.000 60.0 15.5 87.5 13.0
2017 02 06 20:00 267.8 0.00 0.000 60.1 15.6 87.7 12.9
2017 02 06 21:00 268.3 0.00 0.000 60.0 15.6 89 12.7
2017 02 06 22:00 268.7 0.00 0.000 60.2 15.7 89.1 13.6
2017 02 06 23:00 268.7 0.00 0.000 60.9 16.1 87.2 12.7
2017 02 06 24:00 268.9 0.00 0.000 61.1 16.2 87.1 12.8
2017 02 07 1:00 268.9 0.00 0.000 60.7 15.9 88.1 12.7
2017 02 07 2:00 268.9 0.00 0.000 60.6 15.9 87.5 11.2
2017 02 07 3:00 267.9 0.00 0.000 61.0 16.1 80.4 10.8
2017 02 07 4:00 267.6 0.00 0.000 60.3 15.7 77.9 10.5
2017 02 07 5:00 267.4 0.00 0.000 59.6 15.4 77.2 10.6
2017 02 07 6:00 267.3 0.00 0.000 59.2 15.1 79.4 10.5
2017 02 07 7:00 268.1 0.00 0.000 57.7 14.3 84.7 7.5
2017 02 07 8:00 269.3 0.00 0.000 57.4 14.1 88.3 6.7
2017 02 07 9:00 269.4 0.00 0.000 58.6 14.8 88 7.3
2017 02 07 10:00 267.5 0.00 0.000 62.5 17.0 75.4 9.9
2017 02 07 11:00 265.8 0.00 0.000 64.9 18.3 57.74 12.0
2017 02 07 12:00 264.1 0.00 0.000 66.5 19.2 39.32 11.2
2017 02 07 13:00 262.7 0.00 0.000 68.2 20.1 28.54 11.8
2017 02 07 14:00 262.1 0.00 0.000 67.7 19.9 29.37 14.3
2017 02 07 15:00 261.7 0.00 0.000 67.4 19.7 28.1 12.8
2017 02 07 16:00 261.5 0.00 0.000 66.2 19.0 27.85 11.6
2017 02 07 17:00 262.0 0.00 0.000 63.3 17.4 30.78 8.5
2017 02 07 18:00 262.2 0.00 0.000 60.0 15.6 33.5 4.1
2017 02 07 19:00 262.8 0.00 0.000 55.4 13.0 45.56 5.8
2017 02 07 20:00 263.8 0.00 0.000 49.1 9.5 61.44 5.2
2017 02 07 21:00 264.7 0.00 0.000 47.2 8.4 67.79 2.3
2017 02 07 22:00 265.9 0.00 0.000 44.0 6.7 75.9 2.3
2017 02 07 23:00 266.8 0.00 0.000 42.7 5.9 81.5 4.5
2017 02 07 24:00 267.5 0.00 0.000 41.2 5.1 87.9 3.7
2017 02 08 1:00 266.8 0.00 0.000 39.7 4.3 86 5.5
2017 02 08 2:00 267.1 0.00 0.000 38.5 3.6 87.8 3.4
2017 02 08 3:00 267.1 0.00 0.000 38.3 3.5 88.3 5.2
2017 02 08 4:00 267.2 0.00 0.000 37.2 2.9 88.3 6.2
2017 02 08 5:00 267.2 0.00 0.000 35.9 2.2 89 6.1
2017 02 08 6:00 267.3 0.00 0.000 35.7 2.0 90.5 5.1
2017 02 08 7:00 267.9 0.00 0.000 35.8 2.1 90.4 3.5
2017 02 08 8:00 268.7 0.00 0.000 35.6 2.0 91.2 3.4
2017 02 08 9:00 267.0 0.00 0.000 37.4 3.0 87.8 5.8
2017 02 08 10:00 266.5 0.00 0.000 38.5 3.6 85.2 6.2
2017 02 08 11:00 266.0 0.00 0.000 40.3 4.6 80 9.5
2017 02 08 12:00 265.8 0.00 0.000 39.5 4.2 78.1 13.7
2017 02 08 13:00 265.8 0.00 0.000 35.9 2.2 80.7 16.5
2017 02 08 14:00 265.8 0.00 0.000 0.0 0.8 79.5 15.3
2017 02 08 15:00 265.7 0.00 0.000 0.0 0.5 75.5 16.8
2017 02 08 16:00 265.2 0.00 0.000 0.0 -0.3 71.4 16.9
2017 02 08 17:00 265.2 0.00 0.000 29.7 -1.3 72.2 16.1
2017 02 08 18:00 265.2 0.00 0.000 27.9 -2.3 73.7 13.2
2017 02 08 19:00 265.7 0.00 0.000 26.7 -3.0 77.1 12.0
2017 02 08 20:00 265.9 0.00 0.000 25.3 -3.7 80.4 9.1
2017 02 08 21:00 265.9 0.00 0.000 24.7 -4.0 81.1 12.2
2017 02 08 22:00 266.0 0.00 0.000 23.9 -4.5 80.5 11.3
2017 02 08 23:00 266.0 0.00 0.000 22.8 -5.1 82.5 9.2
2017 02 08 24:00 266.0 0.00 0.000 22.3 -5.4 81 11.5
2017 02 09 1:00 266.0 0.00 0.000 20.5 -6.4 83.5 11.0
2017 02 09 2:00 266.0 0.00 0.000 19.3 -7.0 86 9.0
2017 02 09 3:00 266.0 0.00 0.000 18.5 -7.5 87.2 10.7
2017 02 09 4:00 266.0 0.00 0.000 17.7 -8.0 87.7 8.2
2017 02 09 5:00 266.1 0.00 0.000 16.8 -8.5 86.1 8.4
2017 02 09 6:00 266.0 0.00 0.000 16.1 -8.8 84 6.9
2017 02 09 7:00 265.8 0.00 0.000 15.6 -9.1 83.6 5.5
2017 02 09 8:00 265.4 0.00 0.000 16.2 -8.8 76.4 8.1
2017 02 09 9:00 264.9 0.00 0.000 18.2 -7.7 67.62 8.2
2017 02 09 10:00 264.7 0.00 0.000 20.5 -6.4 60.77 5.9
2017 02 09 11:00 264.1 0.00 0.000 24.2 -4.3 53.91 4.9
2017 02 09 12:00 263.6 0.00 0.000 28.6 -1.9 46.76 3.4
2017 02 09 13:00 262.8 0.00 0.000 0.0 0.7 39.7 2.1
2017 02 09 14:00 262.4 0.00 0.000 36.3 2.4 36.58 3.2
2017 02 09 15:00 261.8 0.00 0.000 39.4 4.1 31.8 3.6
2017 02 09 16:00 261.9 0.00 0.000 39.6 4.2 30.73 6.6
2017 02 09 17:00 262.0 0.00 0.000 39.1 3.9 30.11 6.8
2017 02 09 18:00 262.5 0.00 0.000 36.8 2.7 33.91 5.9
2017 02 09 19:00 263.1 0.00 0.000 34.6 1.5 39.65 5.3
2017 02 09 20:00 263.2 0.00 0.000 0.0 1.0 43.47 6.7
2017 02 09 21:00 263.2 0.00 0.000 0.0 0.5 45.63 10.8
2017 02 09 22:00 263.2 0.00 0.000 0.0 0.2 47.25 12.0
2017 02 09 23:00 263.4 0.00 0.000 0.0 -0.8 56.43 12.7
2017 02 09 24:00 263.9 0.00 0.000 29.7 -1.3 63.65 12.2
2017 02 10 1:00 263.9 0.00 0.000 29.8 -1.2 64.77 12.3
2017 02 10 2:00 264.3 0.00 0.000 29.2 -1.5 68.21 12.2
2017 02 10 3:00 264.6 0.00 0.000 29.0 -1.7 72.9 13.5
2017 02 10 4:00 264.6 0.00 0.000 29.1 -1.6 75 13.4
2017 02 10 5:00 265.2 0.00 0.000 28.7 -1.8 77.2 12.9
2017 02 10 6:00 265.3 0.00 0.000 28.7 -1.8 78.6 11.1
2017 02 10 7:00 265.3 0.00 0.000 28.9 -1.7 80.1 11.5
2017 02 10 8:00 265.3 0.00 0.000 0.0 -0.9 78.5 11.7
2017 02 10 9:00 265.2 0.00 0.000 34.5 1.4 71.3 12.6
2017 02 10 10:00 264.5 0.00 0.000 41.7 5.4 58.6 13.4
2017 02 10 11:00 264.0 0.00 0.000 47.6 8.6 49.85 14.0
2017 02 10 12:00 263.4 0.00 0.000 55.6 13.1 39.84 14.3
2017 02 10 13:00 262.7 0.00 0.000 60.9 16.0 33.05 15.3
2017 02 10 14:00 261.9 0.00 0.000 64.8 18.2 29.33 14.7
2017 02 10 15:00 261.4 0.00 0.000 66.2 19.0 28.3 14.4
2017 02 10 16:00 261.4 0.00 0.000 66.5 19.2 28.28 15.4
2017 02 10 17:00 261.4 0.00 0.000 65.4 18.6 29.91 15.0
2017 02 10 18:00 261.7 0.00 0.000 62.9 17.1 33.77 10.7
2017 02 10 19:00 262.4 0.00 0.000 59.6 15.4 40.78 8.1
2017 02 10 20:00 262.9 0.00 0.000 57.7 14.3 46.83 7.8
2017 02 10 21:00 263.3 0.00 0.000 56.5 13.6 52.72 6.7
2017 02 10 22:00 263.9 0.00 0.000 54.4 12.5 59.35 4.3
2017 02 10 23:00 264.6 0.00 0.000 52.6 11.4 65.24 2.9
2017 02 10 24:00 265.5 0.00 0.000 51.0 10.6 72.3 2.9
2017 02 11 1:00 266.2 0.00 0.000 51.0 10.6 78 3.9
2017 02 11 2:00 266.9 0.00 0.000 52.1 11.2 81.2 5.8
2017 02 11 3:00 267.4 0.00 0.000 53.0 11.7 82.4 5.2
2017 02 11 4:00 270.0 0.00 0.000 50.7 10.4 87.9 4.3
2017 02 11 5:00 270.7 0.00 0.000 51.0 10.5 90.6 6.4
2017 02 11 6:00 271.0 0.00 0.000 51.4 10.8 92.2 9.3
2017 02 11 7:00 Wet 284.1 0.00 0.000 51.6 10.9 94.2 9.2
2017 02 11 8:00 Wet 318.2 0.00 0.000 52.4 11.3 95.5 8.3
2017 02 11 9:00 Wet 290.9 0.00 0.000 54.4 12.5 95.6 8.3
2017 02 11 10:00 268.7 0.00 0.000 60.0 15.5 85.7 8.4
2017 02 11 11:00 266.6 0.00 0.000 66.0 18.9 71.7 9.2
2017 02 11 12:00 265.5 0.00 0.000 68.7 20.4 64.84 10.1
2017 02 11 13:00 265.0 0.00 0.000 71.7 22.1 58.13 11.2
2017 02 11 14:00 264.0 0.00 0.000 75.4 24.1 49.46 12.1
2017 02 11 15:00 263.4 0.00 0.000 77.5 25.3 44.95 11.6
2017 02 11 16:00 263.2 0.00 0.000 78.5 25.8 41.8 10.9
2017 02 11 17:00 263.3 0.00 0.000 78.2 25.6 41.49 10.9
2017 02 11 18:00 263.5 0.00 0.000 75.3 24.1 45.44 6.3
2017 02 11 19:00 264.1 0.00 0.000 71.2 21.8 53.55 4.7
2017 02 11 20:00 264.8 0.00 0.000 69.5 20.9 56.96 3.5
2017 02 11 21:00 264.8 0.00 0.000 67.6 19.8 59.5 3.6
2017 02 11 22:00 265.4 0.00 0.000 65.7 18.7 63.49 3.5
2017 02 11 23:00 265.5 0.00 0.000 64.7 18.2 65.24 4.0
2017 02 11 24:00 265.7 0.00 0.000 63.0 17.3 68.87 4.2
2017 02 12 1:00 266.2 0.00 0.000 61.0 16.1 71.5 4.3
2017 02 12 2:00 266.2 0.00 0.000 59.7 15.4 70.2 4.4
2017 02 12 3:00 265.9 0.00 0.000 58.3 14.6 69.57 5.2
2017 02 12 4:00 266.2 0.00 0.000 54.6 12.6 77.8 9.0
2017 02 12 5:00 267.7 0.00 0.000 51.6 10.9 87.6 12.7
2017 02 12 6:00 268.5 0.00 0.000 49.9 9.9 88.6 11.3
2017 02 12 7:00 267.8 0.00 0.000 47.9 8.8 86.3 14.7
2017 02 12 8:00 266.7 0.00 0.000 45.2 7.3 79.4 14.5
2017 02 12 9:00 265.8 0.00 0.000 46.3 7.9 67.05 12.5
2017 02 12 10:00 265.3 0.00 0.000 48.8 9.3 59.31 14.0
2017 02 12 11:00 264.7 0.00 0.000 51.4 10.8 53.83 17.2
2017 02 12 12:00 264.3 0.00 0.000 53.1 11.7 50.05 15.6
2017 02 12 13:00 263.5 0.00 0.000 55.0 12.8 38.15 17.2
2017 02 12 14:00 262.6 0.00 0.000 55.9 13.3 30.31 16.2
2017 02 12 15:00 262.2 0.00 0.000 55.3 12.9 30.44 15.5
2017 02 12 16:00 262.2 0.00 0.000 53.7 12.1 32.5 15.0
2017 02 12 17:00 262.3 0.00 0.000 51.5 10.9 35.46 14.0
2017 02 12 18:00 262.3 0.00 0.000 47.6 8.7 35.39 9.7
2017 02 12 19:00 262.4 0.00 0.000 43.8 6.6 36.31 8.6
2017 02 12 20:00 262.4 0.00 0.000 40.6 4.8 39.53 4.7
2017 02 12 21:00 263.1 0.00 0.000 38.0 3.3 46.08 2.3
2017 02 12 22:00 263.1 0.00 0.000 37.7 3.2 44.6 3.2
2017 02 12 23:00 263.2 0.00 0.000 36.6 2.6 45.56 3.0
2017 02 12 24:00 263.2 0.00 0.000 35.8 2.1 45.53 2.8
2017 02 13 1:00 263.4 0.00 0.000 0.0 0.4 54.26 2.2
2017 02 13 2:00 263.9 0.00 0.000 0.0 -0.6 57.52 1.3
2017 02 13 3:00 264.4 0.00 0.000 28.3 -2.0 64.92 1.2
2017 02 13 4:00 264.6 0.00 0.000 27.6 -2.5 69.17 1.1
2017 02 13 5:00 264.7 0.00 0.000 27.8 -2.3 68.85 1.4
2017 02 13 6:00 264.9 0.00 0.000 29.0 -1.6 73.1 1.5
2017 02 13 7:00 265.0 0.00 0.000 0.0 -0.4 72.5 0.8
2017 02 13 8:00 264.8 0.00 0.000 0.0 0.6 67 2.1
2017 02 13 9:00 263.8 0.00 0.000 36.3 2.4 52.68 4.5
2017 02 13 10:00 263.2 0.00 0.000 38.4 3.5 46.65 6.1
2017 02 13 11:00 263.0 0.00 0.000 39.7 4.3 44.77 7.2
2017 02 13 12:00 262.4 0.00 0.000 43.1 6.2 38.67 5.4
2017 02 13 13:00 261.7 0.00 0.000 45.9 7.7 32.9 5.8
2017 02 13 14:00 261.4 0.00 0.000 47.7 8.7 28.9 5.3
2017 02 13 15:00 260.8 0.00 0.000 50.9 10.5 26.57 4.2
2017 02 13 16:00 260.3 0.00 0.000 53.0 11.6 23.08 4.7
2017 02 13 17:00 260.9 0.00 0.000 51.3 10.7 24.54 4.9
2017 02 13 18:00 261.6 0.00 0.000 48.1 9.0 28.67 2.4
2017 02 13 19:00 261.6 0.00 0.000 47.7 8.7 29.81 1.7
2017 02 13 20:00 261.6 0.00 0.000 47.3 8.5 30.53 0.9
2017 02 13 21:00 261.6 0.00 0.000 46.8 8.2 32.6 1.0
2017 02 13 22:00 262.2 0.00 0.000 45.8 7.7 35.86 1.9
2017 02 13 23:00 265.7 0.00 0.000 44.8 7.1 43.16 0.8
2017 02 13 24:00 Wet 389.1 0.01 0.254 43.1 6.2 54.82 0.7
2017 02 14 1:00 Wet 495.4 0.07 1.778 39.8 4.3 81.4 2.0
2017 02 14 2:00 Wet 475.2 0.09 2.286 38.2 3.4 88.9 2.8
2017 02 14 3:00 Wet 464.5 0.07 1.778 37.3 2.9 91.7 3.8
2017 02 14 4:00 Wet 427.3 0.02 0.508 37.1 2.9 94.2 3.4
2017 02 14 5:00 Wet 404.5 0.01 0.254 37.5 3.0 94.9 1.8
2017 02 14 6:00 Wet 338.0 0.00 0.000 37.7 3.2 95.3 1.3
2017 02 14 7:00 Wet 320.1 0.00 0.000 37.5 3.0 95.5 0.5
2017 02 14 8:00 Wet 336.1 0.00 0.000 37.2 2.9 96.5 0.4
2017 02 14 9:00 Wet 311.5 0.00 0.000 38.7 3.7 94 1.5
2017 02 14 10:00 278.8 0.00 0.000 40.2 4.6 89.4 1.3
2017 02 14 11:00 266.5 0.00 0.000 41.3 5.1 85.8 2.4
2017 02 14 12:00 266.0 0.00 0.000 42.6 5.9 79.9 2.8
2017 02 14 13:00 265.2 0.00 0.000 44.4 6.9 71.4 1.3
2017 02 14 14:00 265.0 0.00 0.000 45.2 7.3 66.41 0.7
2017 02 14 15:00 264.7 0.00 0.000 45.2 7.3 62.68 0.7
2017 02 14 16:00 280.1 0.00 0.000 44.6 7.0 68.74 3.1
2017 02 14 17:00 268.8 0.00 0.000 44.2 6.8 71.6 1.4
2017 02 14 18:00 265.9 0.00 0.000 43.6 6.4 74.4 0.4
2017 02 14 19:00 266.6 0.00 0.000 42.1 5.6 80.7 0.8
2017 02 14 20:00 266.0 0.00 0.000 42.8 6.0 74.8 3.9
2017 02 14 21:00 265.8 0.00 0.000 42.7 6.0 74.1 4.9
2017 02 14 22:00 265.8 0.00 0.000 42.3 5.7 69.64 5.4
2017 02 14 23:00 265.6 0.00 0.000 41.5 5.3 65.88 5.4
2017 02 14 24:00 265.1 0.00 0.000 40.6 4.8 63.39 4.1
2017 02 15 1:00 265.1 0.00 0.000 39.8 4.3 61.57 7.3
2017 02 15 2:00 265.1 0.00 0.000 39.2 4.0 60.75 9.6
2017 02 15 3:00 265.1 0.00 0.000 38.5 3.6 62.61 13.0
2017 02 15 4:00 265.1 0.00 0.000 36.9 2.7 66.33 13.1
2017 02 15 5:00 265.3 0.00 0.000 34.7 1.5 71.5 11.5
2017 02 15 6:00 265.9 0.00 0.000 0.0 0.5 75.9 11.8
2017 02 15 7:00 265.9 0.00 0.000 0.0 -0.2 77.8 11.9
2017 02 15 8:00 265.9 0.00 0.000 0.0 -0.3 77.9 12.2
2017 02 15 9:00 265.4 0.00 0.000 0.0 0.7 69.61 13.9
2017 02 15 10:00 265.0 0.00 0.000 35.5 1.9 59.4 13.8
2017 02 15 11:00 264.4 0.00 0.000 38.4 3.5 49.51 11.9
2017 02 15 12:00 263.8 0.00 0.000 40.6 4.8 41.03 11.9
2017 02 15 13:00 263.2 0.00 0.000 42.5 5.8 38.57 9.2
2017 02 15 14:00 262.7 0.00 0.000 44.8 7.1 32.67 9.6
2017 02 15 15:00 262.2 0.00 0.000 46.3 8.0 29.21 10.5
2017 02 15 16:00 261.6 0.00 0.000 47.5 8.6 27.13 9.2
2017 02 15 17:00 261.6 0.00 0.000 47.2 8.5 27.05 7.6
2017 02 15 18:00 261.8 0.00 0.000 45.3 7.4 28.5 3.9
2017 02 15 19:00 262.3 0.00 0.000 41.2 5.1 32.66 1.6
2017 02 15 20:00 262.7 0.00 0.000 38.2 3.5 38 0.6
2017 02 15 21:00 263.1 0.00 0.000 36.0 2.2 43.04 1.8
2017 02 15 22:00 263.3 0.00 0.000 35.7 2.1 44.58 0.9
2017 02 15 23:00 263.8 0.00 0.000 0.0 0.4 52 0.5
2017 02 15 24:00 263.9 0.00 0.000 0.0 -0.4 56.44 0.6
2017 02 16 1:00 263.9 0.00 0.000 0.0 0.6 52 0.6
2017 02 16 2:00 263.9 0.00 0.000 34.4 1.3 50.29 2.6
2017 02 16 3:00 263.9 0.00 0.000 34.4 1.3 49.79 3.0
2017 02 16 4:00 263.9 0.00 0.000 35.3 1.8 49.35 5.2
2017 02 16 5:00 263.8 0.00 0.000 35.6 2.0 50.32 4.2
2017 02 16 6:00 263.8 0.00 0.000 36.3 2.4 51.02 2.9
2017 02 16 7:00 264.0 0.00 0.000 36.2 2.3 56.93 3.7
2017 02 16 8:00 264.3 0.00 0.000 35.5 1.9 59.68 3.0
2017 02 16 9:00 263.9 0.00 0.000 41.7 5.4 51.7 3.9
2017 02 16 10:00 263.6 0.00 0.000 48.3 9.1 41.95 6.7
2017 02 16 11:00 263.0 0.00 0.000 51.3 10.7 37.52 8.6
2017 02 16 12:00 262.3 0.00 0.000 55.3 12.9 30.59 9.8
2017 02 16 13:00 261.6 0.00 0.000 58.4 14.7 27.05 10.9
2017 02 16 14:00 261.2 0.00 0.000 60.1 15.6 25.23 11.2
2017 02 16 15:00 260.8 0.00 0.000 61.9 16.6 24.75 10.9
2017 02 16 16:00 260.8 0.00 0.000 63.5 17.5 24.25 9.7
2017 02 16 17:00 260.2 0.00 0.000 63.3 17.4 19.6 9.6
2017 02 16 18:00 260.5 0.00 0.000 60.6 15.9 21.3 10.3
2017 02 16 19:00 260.8 0.00 0.000 56.4 13.6 25.81 5.6
2017 02 16 20:00 261.2 0.00 0.000 54.6 12.6 28.13 7.2
2017 02 16 21:00 261.5 0.00 0.000 52.6 11.4 30.69 7.0
2017 02 16 22:00 261.6 0.00 0.000 51.0 10.5 33.27 6.5
2017 02 16 23:00 261.6 0.00 0.000 49.3 9.6 36.51 6.3
2017 02 16 24:00 262.1 0.00 0.000 47.1 8.4 40.36 4.0
2017 02 17 1:00 262.4 0.00 0.000 45.7 7.6 42.22 3.9
2017 02 17 2:00 262.5 0.00 0.000 44.3 6.8 43.53 2.7
2017 02 17 3:00 263.1 0.00 0.000 43.9 6.6 48.82 5.2
2017 02 17 4:00 263.1 0.00 0.000 43.3 6.3 52.34 4.6
2017 02 17 5:00 263.5 0.00 0.000 42.2 5.6 56.51 5.1
2017 02 17 6:00 263.8 0.00 0.000 41.9 5.5 58.8 4.8
2017 02 17 7:00 263.9 0.00 0.000 41.2 5.1 60.6 3.1
2017 02 17 8:00 263.8 0.00 0.000 42.8 6.0 58.04 3.1
2017 02 17 9:00 263.7 0.00 0.000 47.6 8.7 51.77 5.9
2017 02 17 10:00 263.0 0.00 0.000 52.1 11.2 44.35 8.6
2017 02 17 11:00 262.7 0.00 0.000 57.3 14.1 37.86 8.7
2017 02 17 12:00 262.1 0.00 0.000 62.0 16.6 32.76 9.4
2017 02 17 13:00 261.5 0.00 0.000 65.5 18.6 29.23 10.3
2017 02 17 14:00 260.9 0.00 0.000 67.0 19.4 27 10.2
2017 02 17 15:00 260.7 0.00 0.000 68.1 20.0 24.67 11.3
2017 02 17 16:00 260.3 0.00 0.000 68.9 20.5 22.52 11.2
2017 02 17 17:00 260.1 0.00 0.000 67.9 19.9 22.43 9.9
2017 02 17 18:00 260.5 0.00 0.000 64.4 18.0 25.54 6.1
2017 02 17 19:00 261.3 0.00 0.000 60.2 15.7 30.99 5.2
2017 02 17 20:00 261.5 0.00 0.000 57.9 14.4 36.32 6.0
2017 02 17 21:00 261.9 0.00 0.000 56.5 13.6 40.9 5.1
2017 02 17 22:00 262.3 0.00 0.000 55.7 13.2 44.07 5.4
2017 02 17 23:00 262.3 0.00 0.000 55.0 12.8 45.84 5.1
2017 02 17 24:00 262.4 0.00 0.000 53.7 12.1 47.93 4.0
2017 02 18 1:00 262.9 0.00 0.000 52.7 11.5 49.46 3.1
2017 02 18 2:00 262.9 0.00 0.000 51.9 11.1 51.14 1.4
2017 02 18 3:00 263.4 0.00 0.000 51.7 10.9 53.45 2.2
2017 02 18 4:00 263.1 0.00 0.000 51.8 11.0 55.09 2.2
2017 02 18 5:00 Wet 334.2 0.00 0.000 51.0 10.6 59.95 2.6
2017 02 18 6:00 Wet 433.2 0.02 0.508 48.2 9.0 77.9 2.2
2017 02 18 7:00 Wet 392.1 0.00 0.000 47.7 8.7 79.8 3.0
2017 02 18 8:00 Wet 369.9 0.01 0.254 48.0 8.9 81.3 2.6
2017 02 18 9:00 Wet 320.6 0.00 0.000 49.4 9.7 79.3 4.1
2017 02 18 10:00 266.6 0.00 0.000 50.2 10.1 78.2 6.7
2017 02 18 11:00 265.2 0.00 0.000 53.0 11.7 74 5.7
2017 02 18 12:00 264.6 0.00 0.000 55.5 13.1 65.86 5.6
2017 02 18 13:00 264.2 0.00 0.000 58.3 14.6 62.45 5.8
2017 02 18 14:00 263.3 0.00 0.000 61.8 16.6 56.28 5.1
2017 02 18 15:00 263.4 0.00 0.000 62.1 16.7 54.59 2.4
2017 02 18 16:00 263.2 0.00 0.000 63.1 17.3 51.84 4.3
2017 02 18 17:00 263.4 0.00 0.000 62.4 16.9 52.24 6.7
2017 02 18 18:00 263.8 0.00 0.000 60.0 15.5 56.76 4.4
2017 02 18 19:00 265.1 0.00 0.000 55.6 13.1 67.1 2.0
2017 02 18 20:00 266.6 0.00 0.000 53.6 12.0 78.8 3.0
2017 02 18 21:00 272.1 0.00 0.000 51.9 11.0 87.2 4.0
2017 02 18 22:00 Wet 301.4 0.00 0.000 51.0 10.6 92.3 5.0
2017 02 18 23:00 Wet 371.3 0.00 0.000 50.3 10.2 94.9 3.3
2017 02 18 24:00 Wet 455.6 0.00 0.000 49.5 9.7 98.1 3.6
2017 02 19 1:00 Wet 508.1 0.00 0.000 48.7 9.3 99.1 2.5
2017 02 19 2:00 Wet 501.3 0.00 0.000 48.6 9.2 99.2 2.3
2017 02 19 3:00 Wet 480.5 0.00 0.000 47.5 8.6 99 2.8
2017 02 19 4:00 Wet 402.1 0.00 0.000 45.4 7.5 99.1 1.0
2017 02 19 5:00 Wet 388.3 0.00 0.000 44.2 6.8 99.4 0.4
2017 02 19 6:00 Wet 387.3 0.00 0.000 45.0 7.2 100.1 0.7
2017 02 19 7:00 Wet 385.3 0.00 0.000 44.0 6.7 99.6 0.4
2017 02 19 8:00 Wet 371.1 0.00 0.000 45.8 7.7 99.4 0.6
2017 02 19 9:00 Wet 350.5 0.00 0.000 52.6 11.5 98.6 2.8
2017 02 19 10:00 Wet 304.0 0.00 0.000 57.3 14.0 84.7 5.7
2017 02 19 11:00 267.0 0.00 0.000 60.5 15.8 73 6.9
2017 02 19 12:00 265.7 0.00 0.000 62.9 17.2 68.53 9.4
2017 02 19 13:00 265.2 0.00 0.000 65.0 18.3 65.06 9.6
2017 02 19 14:00 265.4 0.00 0.000 64.1 17.8 71.4 10.5
2017 02 19 15:00 265.3 0.00 0.000 65.3 18.5 69.78 10.5
2017 02 19 16:00 265.1 0.00 0.000 66.1 18.9 67.07 9.8
2017 02 19 17:00 265.4 0.00 0.000 65.6 18.6 68.01 10.5
2017 02 19 18:00 265.8 0.00 0.000 63.4 17.4 72.6 8.3
2017 02 19 19:00 266.9 0.00 0.000 60.6 15.9 79.3 7.2
2017 02 19 20:00 267.6 0.00 0.000 59.5 15.3 82.3 7.5
2017 02 19 21:00 267.8 0.00 0.000 58.6 14.8 84 8.9
2017 02 19 22:00 268.5 0.00 0.000 57.6 14.2 86.5 9.1
2017 02 19 23:00 269.6 0.00 0.000 56.6 13.7 89.3 10.7
2017 02 19 24:00 270.3 0.00 0.000 56.3 13.5 90.3 10.4
2017 02 20 1:00 270.3 0.00 0.000 56.2 13.4 90.6 7.8
2017 02 20 2:00 269.3 0.00 0.000 56.8 13.8 89.1 7.2
2017 02 20 3:00 269.2 0.00 0.000 56.7 13.7 88.5 8.4
2017 02 20 4:00 269.7 0.00 0.000 55.9 13.3 89.3 8.7
2017 02 20 5:00 269.7 0.00 0.000 55.5 13.1 88.1 9.2
2017 02 20 6:00 268.4 0.00 0.000 56.3 13.5 83 13.1
2017 02 20 7:00 268.0 0.00 0.000 56.4 13.6 81.8 13.2
2017 02 20 8:00 267.5 0.00 0.000 57.2 14.0 78.7 13.6
2017 02 20 9:00 266.9 0.00 0.000 58.7 14.8 74.2 13.9
2017 02 20 10:00 266.3 0.00 0.000 61.2 16.2 70.4 15.1
2017 02 20 11:00 265.8 0.00 0.000 64.8 18.2 65.24 14.2
2017 02 20 12:00 265.5 0.00 0.000 67.2 19.6 66.67 14.6
2017 02 20 13:00 265.7 0.00 0.000 66.4 19.1 71.2 10.7
2017 02 20 14:00 265.4 0.00 0.000 68.9 20.5 66.57 12.8
2017 02 20 15:00 265.4 0.00 0.000 69.7 20.9 64.53 14.3
2017 02 20 16:00 265.3 0.00 0.000 70.1 21.1 62.02 11.8
2017 02 20 17:00 265.5 0.00 0.000 69.3 20.8 63.83 9.3
2017 02 20 18:00 265.6 0.00 0.000 68.1 20.0 67.09 6.7
2017 02 20 19:00 Wet 313.4 0.00 0.000 66.2 19.0 71.3 4.3
2017 02 20 20:00 Wet 315.5 0.00 0.000 64.1 17.8 73.7 3.0
2017 02 20 21:00 Wet 447.7 0.03 0.762 61.4 16.3 83.2 1.0
2017 02 20 22:00 Wet 449.8 0.04 1.016 59.4 15.2 86.7 3.7
2017 02 20 23:00 Wet 442.5 0.03 0.762 57.2 14.0 90.1 2.1
2017 02 20 24:00 Wet 453.0 0.06 1.524 56.5 13.6 90 3.4
2017 02 21 1:00 Wet 468.5 0.09 2.286 55.6 13.1 92.7 1.8
2017 02 21 2:00 Wet 427.2 0.02 0.508 55.1 12.8 94.6 3.9
2017 02 21 3:00 Wet 422.1 0.01 0.254 55.2 12.9 94.5 3.9
2017 02 21 4:00 Wet 397.8 0.00 0.000 55.0 12.8 94.6 4.7
2017 02 21 5:00 Wet 332.7 0.01 0.254 54.9 12.7 95.2 6.8
2017 02 21 6:00 Wet 333.6 0.00 0.000 55.1 12.9 93.1 6.8
2017 02 21 7:00 Wet 304.2 0.00 0.000 55.5 13.0 91.6 9.8
2017 02 21 8:00 270.6 0.00 0.000 55.8 13.2 90.6 9.9
2017 02 21 9:00 270.4 0.00 0.000 56.3 13.5 93.4 7.7
2017 02 21 10:00 Wet 313.2 0.00 0.000 57.2 14.0 93.1 7.4
2017 02 21 11:00 Wet 342.7 0.00 0.000 57.3 14.1 93.1 8.4
2017 02 21 12:00 Wet 314.0 0.00 0.000 56.4 13.6 94 7.4
2017 02 21 13:00 274.7 0.00 0.000 57.3 14.1 90.4 3.7
2017 02 21 14:00 269.2 0.00 0.000 57.4 14.1 90.3 6.0
2017 02 21 15:00 Wet 408.2 0.01 0.254 57.1 14.0 91.9 3.8
2017 02 21 16:00 Wet 528.6 0.03 0.762 56.7 13.7 95.7 6.0
2017 02 21 17:00 Wet 501.0 0.02 0.508 56.9 13.8 95.5 5.9
2017 02 21 18:00 Wet 408.0 0.01 0.254 56.1 13.4 95.1 5.6
2017 02 21 19:00 Wet 367.9 0.00 0.000 55.6 13.1 94.5 4.5
2017 02 21 20:00 Wet 377.4 0.00 0.000 53.9 12.2 95.1 3.5
2017 02 21 21:00 Wet 378.3 0.00 0.000 53.9 12.2 96.9 2.2
2017 02 21 22:00 Wet 364.3 0.00 0.000 54.1 12.3 96.6 0.4
2017 02 21 23:00 Wet 370.7 0.00 0.000 53.7 12.1 96.9 0.4
2017 02 21 24:00 Wet 392.2 0.00 0.000 51.2 10.6 97 0.4
2017 02 22 1:00 Wet 399.4 0.00 0.000 48.1 8.9 98.5 0.9
2017 02 22 2:00 Wet 389.8 0.00 0.000 50.5 10.3 99.6 0.6
2017 02 22 3:00 Wet 395.0 0.00 0.000 48.9 9.4 98.7 0.5
2017 02 22 4:00 Wet 386.8 0.00 0.000 48.4 9.1 99.5 0.5
2017 02 22 5:00 Wet 371.1 0.00 0.000 51.4 10.8 99.9 1.3
2017 02 22 6:00 Wet 356.2 0.00 0.000 52.6 11.5 99.5 1.1
2017 02 22 7:00 Wet 354.4 0.00 0.000 52.6 11.4 99.3 0.6
2017 02 22 8:00 Wet 341.2 0.00 0.000 52.7 11.5 99.3 3.2
2017 02 22 9:00 Wet 314.7 0.00 0.000 52.8 11.5 98.4 5.5
2017 02 22 10:00 279.2 0.00 0.000 53.3 11.8 96 6.5
2017 02 22 11:00 269.6 0.00 0.000 55.4 13.0 90.9 8.4
2017 02 22 12:00 268.0 0.00 0.000 58.4 14.7 84.2 8.9
2017 02 22 13:00 266.9 0.00 0.000 62.6 17.0 74.7 7.7
2017 02 22 14:00 266.1 0.01 0.254 65.9 18.8 67.47 7.9
2017 02 22 15:00 265.5 0.00 0.000 67.5 19.7 62.29 8.2
2017 02 22 16:00 265.4 0.00 0.000 67.7 19.8 61.73 8.2
2017 02 22 17:00 265.5 0.00 0.000 66.3 19.1 64.68 8.8
2017 02 22 18:00 266.0 0.00 0.000 64.0 17.8 68.19 7.6
2017 02 22 19:00 267.1 0.00 0.000 60.2 15.7 76.5 7.8
2017 02 22 20:00 268.8 0.00 0.000 57.0 13.9 85.5 7.0
2017 02 22 21:00 276.0 0.00 0.000 54.9 12.7 90.8 6.5
2017 02 22 22:00 Wet 298.4 0.00 0.000 54.1 12.3 93.2 7.3
2017 02 22 23:00 Wet 361.6 0.00 0.000 53.3 11.8 95.2 8.6
2017 02 22 24:00 Wet 402.8 0.00 0.000 53.1 11.7 97.4 8.2
2017 02 23 1:00 Wet 418.4 0.00 0.000 53.0 11.7 98.5 6.5
2017 02 23 2:00 Wet 434.2 0.00 0.000 53.0 11.7 98.9 6.4
2017 02 23 3:00 Wet 392.5 0.00 0.000 53.1 11.7 99.2 5.8
2017 02 23 4:00 Wet 379.8 0.00 0.000 53.0 11.7 99.4 5.9
2017 02 23 5:00 Wet 358.6 0.00 0.000 52.7 11.5 99.8 7.5
2017 02 23 6:00 Wet 342.2 0.00 0.000 52.2 11.2 100 6.6
2017 02 23 7:00 Wet 338.6 0.00 0.000 51.7 10.9 100 6.5
2017 02 23 8:00 Wet 325.1 0.00 0.000 51.5 10.8 100.1 6.9
2017 02 23 9:00 Wet 297.7 0.00 0.000 52.3 11.3 100.1 7.3
2017 02 23 10:00 Wet 296.3 0.00 0.000 53.3 11.8 100 9.1
2017 02 23 11:00 279.2 0.00 0.000 53.7 12.1 100 10.8
2017 02 23 12:00 268.8 0.00 0.000 57.1 14.0 95.1 11.1
2017 02 23 13:00 266.6 0.00 0.000 66.2 19.0 67.96 12.4
2017 02 23 14:00 264.9 0.00 0.000 71.9 22.2 47.83 16.3
2017 02 23 15:00 264.1 0.00 0.000 72.6 22.5 45.55 17.7
2017 02 23 16:00 263.7 0.00 0.000 73.3 23.0 42.3 17.5
2017 02 23 17:00 263.8 0.00 0.000 71.7 22.1 46.84 16.8
2017 02 23 18:00 264.3 0.00 0.000 68.9 20.5 52.84 16.5
2017 02 23 19:00 264.8 0.00 0.000 67.2 19.6 57.64 15.8
2017 02 23 20:00 265.4 0.00 0.000 65.2 18.5 66.82 18.1
2017 02 23 21:00 265.8 0.00 0.000 63.8 17.7 71.6 16.8
2017 02 23 22:00 266.2 0.00 0.000 62.7 17.1 75.1 15.5
2017 02 23 23:00 266.7 0.00 0.000 61.5 16.4 77.6 13.8
2017 02 23 24:00 266.9 0.00 0.000 60.4 15.8 79.6 14.4
2017 02 24 1:00 266.9 0.00 0.000 59.9 15.5 79.3 11.3
2017 02 24 2:00 266.9 0.00 0.000 59.2 15.1 79.4 13.1
2017 02 24 3:00 266.9 0.00 0.000 59.5 15.3 77.7 11.5
2017 02 24 4:00 267.1 0.00 0.000 58.5 14.8 79.7 8.0
2017 02 24 5:00 267.6 0.00 0.000 57.6 14.2 81.8 7.4
2017 02 24 6:00 267.6 0.00 0.000 57.2 14.0 82.4 6.8
2017 02 24 7:00 267.7 0.00 0.000 57.1 13.9 83.1 6.4
2017 02 24 8:00 267.3 0.00 0.000 54.0 12.2 79.3 8.5
2017 02 24 9:00 267.0 0.00 0.000 48.1 9.0 86 10.2
2017 02 24 10:00 266.8 0.00 0.000 46.7 8.2 84.6 11.3
2017 02 24 11:00 266.3 0.00 0.000 45.5 7.5 80.3 10.9
2017 02 24 12:00 265.9 0.00 0.000 45.4 7.5 77.7 11.0
2017 02 24 13:00 265.7 0.00 0.000 46.4 8.0 74 10.2
2017 02 24 14:00 265.0 0.00 0.000 46.7 8.2 66.48 13.5
2017 02 24 15:00 264.7 0.00 0.000 46.2 7.9 61.56 11.3
2017 02 24 16:00 264.3 0.00 0.000 47.8 8.8 51.12 11.7
2017 02 24 17:00 264.0 0.00 0.000 48.1 8.9 45.68 12.5
2017 02 24 18:00 264.0 0.00 0.000 45.5 7.5 47.48 12.3
2017 02 24 19:00 264.4 0.00 0.000 41.5 5.3 52.53 11.0
2017 02 24 20:00 264.4 0.00 0.000 39.8 4.3 56 10.9
2017 02 24 21:00 264.4 0.00 0.000 36.7 2.6 62.57 14.6
2017 02 24 22:00 264.5 0.00 0.000 0.0 1.0 61.17 14.7
2017 02 24 23:00 264.5 0.00 0.000 0.0 -0.1 61.59 13.9
2017 02 24 24:00 264.5 0.00 0.000 0.0 -0.8 64.8 13.1
2017 02 25 1:00 264.5 0.00 0.000 28.6 -1.9 65.05 15.0
2017 02 25 2:00 264.6 0.00 0.000 26.8 -2.9 64.93 14.1
2017 02 25 3:00 264.6 0.00 0.000 26.2 -3.2 67.02 13.6
2017 02 25 4:00 264.6 0.00 0.000 25.7 -3.5 67.54 13.3
2017 02 25 5:00 264.6 0.00 0.000 24.6 -4.1 67.09 13.2
2017 02 25 6:00 264.6 0.00 0.000 22.7 -5.2 70.5 11.4
2017 02 25 7:00 264.7 0.00 0.000 22.5 -5.3 71.6 10.6
2017 02 25 8:00 264.7 0.00 0.000 23.3 -4.9 71.3 9.4
2017 02 25 9:00 264.6 0.00 0.000 25.6 -3.6 66.75 10.9
2017 02 25 10:00 264.6 0.00 0.000 27.7 -2.4 62.58 11.4
2017 02 25 11:00 264.1 0.00 0.000 0.0 -0.8 54.17 11.9
2017 02 25 12:00 263.8 0.00 0.000 0.0 0.7 46.64 11.8
2017 02 25 13:00 263.3 0.00 0.000 36.1 2.3 37.76 13.5
2017 02 25 14:00 262.8 0.00 0.000 38.7 3.7 31.89 12.9
2017 02 25 15:00 262.2 0.00 0.000 40.2 4.6 28.68 11.9
2017 02 25 16:00 261.7 0.00 0.000 41.0 5.0 25.94 8.9
2017 02 25 17:00 261.6 0.00 0.000 41.3 5.2 24.93 5.6
2017 02 25 18:00 261.7 0.00 0.000 39.4 4.1 27.46 3.8
2017 02 25 19:00 262.6 0.00 0.000 34.0 1.1 34.93 1.1
2017 02 25 20:00 263.2 0.00 0.000 0.0 -0.5 41.25 0.7
2017 02 25 21:00 263.5 0.00 0.000 29.2 -1.5 48.42 0.6
2017 02 25 22:00 264.0 0.00 0.000 27.2 -2.7 56.57 0.5
2017 02 25 23:00 264.4 0.00 0.000 26.3 -3.1 60.69 0.5
2017 02 25 24:00 264.7 0.00 0.000 26.4 -3.1 62.65 0.6
2017 02 26 1:00 264.8 0.00 0.000 27.0 -2.8 58.48 2.1
2017 02 26 2:00 264.1 0.00 0.000 29.0 -1.7 44.4 3.9
2017 02 26 3:00 264.0 0.00 0.000 28.8 -1.8 42.22 3.0
2017 02 26 4:00 264.0 0.00 0.000 28.6 -1.9 43.29 4.3
2017 02 26 5:00 263.9 0.00 0.000 28.4 -2.0 45.01 5.7
2017 02 26 6:00 263.6 0.00 0.000 29.1 -1.6 44.53 10.0
2017 02 26 7:00 263.3 0.00 0.000 29.0 -1.7 43.92 8.1
2017 02 26 8:00 263.2 0.00 0.000 0.0 -0.8 41.86 8.0
2017 02 26 9:00 263.2 0.00 0.000 0.0 0.9 44.12 9.7
2017 02 26 10:00 263.2 0.00 0.000 38.3 3.5 42.4 12.3
2017 02 26 11:00 263.1 0.00 0.000 38.8 3.8 45.38 12.8
2017 02 26 12:00 263.4 0.00 0.000 39.9 4.4 50.7 8.0
2017 02 26 13:00 263.1 0.00 0.000 40.7 4.9 43.19 6.0
2017 02 26 14:00 263.1 0.00 0.000 41.9 5.5 42.52 4.6
2017 02 26 15:00 265.2 0.00 0.000 40.1 4.5 61.6 7.8
2017 02 26 16:00 264.0 0.00 0.000 41.0 5.0 64.16 6.7
2017 02 26 17:00 264.8 0.00 0.000 40.9 5.0 66.7 4.7
2017 02 26 18:00 Wet 375.9 0.01 0.254 40.1 4.5 73.3 4.7
2017 02 26 19:00 Wet 346.1 0.00 0.000 39.1 3.9 79.5 4.8
2017 02 26 20:00 282.0 0.00 0.000 40.4 4.7 70.2 5.3
2017 02 26 21:00 265.2 0.00 0.000 41.2 5.1 61.09 5.3
2017 02 26 22:00 264.5 0.00 0.000 41.9 5.5 54.14 5.9
2017 02 26 23:00 264.4 0.00 0.000 41.8 5.5 54.12 4.8
2017 02 26 24:00 264.4 0.00 0.000 42.0 5.5 52.29 2.7
2017 02 27 1:00 264.4 0.00 0.000 41.0 5.0 56.57 2.8
2017 02 27 2:00 264.5 0.00 0.000 39.4 4.1 55.59 3.0
2017 02 27 3:00 264.5 0.00 0.000 38.7 3.7 55.62 2.6
2017 02 27 4:00 265.1 0.00 0.000 38.0 3.3 58.87 2.0
2017 02 27 5:00 265.2 0.00 0.000 38.5 3.6 60.1 2.8
2017 02 27 6:00 265.2 0.00 0.000 37.9 3.3 65.05 2.6
2017 02 27 7:00 266.0 0.00 0.000 37.8 3.2 70.6 2.1
2017 02 27 8:00 265.9 0.00 0.000 40.5 4.7 70 3.3
2017 02 27 9:00 265.8 0.00 0.000 43.7 6.5 73.9 7.9
2017 02 27 10:00 265.7 0.00 0.000 47.8 8.8 70.5 7.1
2017 02 27 11:00 265.0 0.00 0.000 51.9 11.0 61.05 10.6
2017 02 27 12:00 264.4 0.00 0.000 55.5 13.1 54.24 10.6
2017 02 27 13:00 263.5 0.00 0.000 59.5 15.3 43.59 10.3
2017 02 27 14:00 263.0 0.00 0.000 61.4 16.3 37.74 12.6
2017 02 27 15:00 262.9 0.00 0.000 61.5 16.4 40.74 12.5
2017 02 27 16:00 262.9 0.00 0.000 62.1 16.7 41.76 10.6
2017 02 27 17:00 263.4 0.00 0.000 60.7 15.9 48.94 11.8
2017 02 27 18:00 264.0 0.00 0.000 58.3 14.6 60.69 13.0
2017 02 27 19:00 265.0 0.00 0.000 55.6 13.1 69.73 12.9
2017 02 27 20:00 265.6 0.00 0.000 53.7 12.0 78.8 14.4
2017 02 27 21:00 266.2 0.00 0.000 52.6 11.5 82 12.1
2017 02 27 22:00 266.4 0.00 0.000 52.4 11.3 83.2 12.1
2017 02 27 23:00 266.8 0.00 0.000 52.3 11.3 84.5 10.7
2017 02 27 24:00 267.7 0.00 0.000 52.4 11.3 85.2 12.4
2017 02 28 1:00 267.0 0.00 0.000 52.8 11.5 86.8 11.8
2017 02 28 2:00 267.6 0.00 0.000 53.2 11.8 88.1 8.2
2017 02 28 3:00 Wet 302.8 0.00 0.000 52.9 11.6 91.5 9.3
2017 02 28 4:00 Wet 301.4 0.00 0.000 52.7 11.5 95.2 11.6
2017 02 28 5:00 Wet 308.5 0.00 0.000 53.3 11.8 97.2 11.4
2017 02 28 6:00 Wet 292.7 0.00 0.000 54.3 12.4 98.1 11.6
2017 02 28 7:00 Wet 300.2 0.00 0.000 55.0 12.8 98.7 10.6
2017 02 28 8:00 Wet 293.5 0.00 0.000 56.2 13.5 99.2 11.8
2017 02 28 9:00 275.2 0.00 0.000 57.9 14.4 97.1 11.3
2017 02 28 10:00 269.3 0.00 0.000 60.2 15.7 91.6 11.8
2017 02 28 11:00 268.2 0.00 0.000 62.7 17.0 86.1 13.7
2017 02 28 12:00 266.7 0.00 0.000 67.3 19.6 75.3 16.7
2017 02 28 13:00 265.9 0.00 0.000 70.7 21.5 65.4 15.6
2017 02 28 14:00 265.1 0.00 0.000 72.9 22.7 56.72 12.9
2017 02 28 15:00 264.5 0.00 0.000 74.4 23.5 52.25 11.7
2017 02 28 16:00 264.5 0.00 0.000 73.3 22.9 54.01 13.0
2017 02 28 17:00 264.8 0.00 0.000 71.0 21.7 58.38 9.7
2017 02 28 18:00 Wet 362.6 0.44 11.180 56.1 13.4 93.6 5.5
2017 02 28 19:00 Wet 319.4 0.00 0.000 53.6 12.0 99.9 1.1
2017 02 28 20:00 281.0 0.00 0.000 60.4 15.8 92.2 8.4
2017 02 28 21:00 266.2 0.00 0.000 65.2 18.4 76.2 9.3
2017 02 28 22:00 266.2 0.00 0.000 65.7 18.7 76.7 9.2
2017 02 28 23:00 266.5 0.00 0.000 65.5 18.6 79.4 8.3
2017 02 28 24:00 266.9 0.00 0.000 64.8 18.2 83.6 10.5
2017 03 01 1:00 267.1 0.00 0.000 64.9 18.3 83.9 12.0
2017 03 01 2:00 266.9 0.00 0.000 66.3 19.1 78.9 14.5
2017 03 01 3:00 Wet 324.3 0.24 6.096 57.8 14.3 84.5 13.6
2017 03 01 4:00 Wet 313.3 0.03 0.762 51.5 10.8 95.9 13.1
2017 03 01 5:00 267.0 0.00 0.000 47.8 8.8 84.8 14.1
2017 03 01 6:00 267.0 0.00 0.000 45.7 7.6 85.7 11.9
2017 03 01 7:00 266.7 0.00 0.000 43.9 6.6 83.9 11.8
2017 03 01 8:00 266.4 0.00 0.000 42.3 5.7 81.5 12.8
2017 03 01 9:00 266.0 0.00 0.000 42.4 5.8 77 13.7
2017 03 01 10:00 265.5 0.00 0.000 43.5 6.4 68.08 14.7
2017 03 01 11:00 264.7 0.00 0.000 45.2 7.3 58.21 15.7
2017 03 01 12:00 264.2 0.00 0.000 47.4 8.5 52.11 14.7
2017 03 01 13:00 263.3 0.00 0.000 49.1 9.5 39.7 15.5
2017 03 01 14:00 262.7 0.00 0.000 50.1 10.1 35.06 15.9
2017 03 01 15:00 262.2 0.00 0.000 50.4 10.2 30.52 16.4
2017 03 01 16:00 261.7 0.00 0.000 50.8 10.4 28.8 15.4
2017 03 01 17:00 261.6 0.00 0.000 49.4 9.7 28.12 16.0
2017 03 01 18:00 261.6 0.00 0.000 47.7 8.7 30.54 11.9
2017 03 01 19:00 261.7 0.00 0.000 44.9 7.2 33.43 8.0
2017 03 01 20:00 262.2 0.00 0.000 42.9 6.1 38.31 5.8
2017 03 01 21:00 262.8 0.00 0.000 39.4 4.1 47.82 3.6
2017 03 01 22:00 263.1 0.00 0.000 38.0 3.3 49.31 3.1
2017 03 01 23:00 263.2 0.00 0.000 37.5 3.0 50.54 4.2
2017 03 01 24:00 263.2 0.00 0.000 36.9 2.7 54.37 6.4
2017 03 02 1:00 263.5 0.00 0.000 35.3 1.9 57.78 3.9
2017 03 02 2:00 263.9 0.00 0.000 0.0 0.1 65.35 2.5
2017 03 02 3:00 264.5 0.00 0.000 30.1 -1.1 70.2 3.1
2017 03 02 4:00 264.6 0.00 0.000 28.6 -1.9 74.3 2.7
2017 03 02 5:00 265.1 0.00 0.000 27.8 -2.3 76.1 1.9
2017 03 02 6:00 266.1 0.00 0.000 27.5 -2.5 76.7 0.6
2017 03 02 7:00 267.3 0.00 0.000 26.4 -3.1 80.7 1.7
2017 03 02 8:00 265.5 0.00 0.000 0.0 0.4 69.75 0.7
2017 03 02 9:00 264.4 0.00 0.000 37.4 3.0 58.61 2.9
2017 03 02 10:00 263.6 0.00 0.000 41.6 5.3 45.34 2.5
2017 03 02 11:00 262.7 0.00 0.000 44.5 6.9 34.14 4.9
2017 03 02 12:00 262.3 0.00 0.000 47.3 8.5 33.27 7.4
2017 03 02 13:00 261.7 0.00 0.000 50.3 10.2 28.24 9.4
2017 03 02 14:00 261.2 0.00 0.000 52.2 11.2 24.3 12.5
2017 03 02 15:00 260.9 0.00 0.000 53.2 11.8 23.88 13.3
2017 03 02 16:00 260.7 0.00 0.000 54.3 12.4 21.14 13.0
2017 03 02 17:00 260.5 0.00 0.000 53.6 12.0 22.37 13.7
2017 03 02 18:00 260.9 0.00 0.000 52.1 11.1 25.9 9.9
2017 03 02 19:00 261.0 0.00 0.000 49.3 9.6 29.5 6.0
2017 03 02 20:00 261.5 0.00 0.000 47.7 8.7 32.04 7.0
2017 03 02 21:00 261.7 0.00 0.000 45.2 7.4 38.01 7.1
2017 03 02 22:00 261.7 0.00 0.000 42.0 5.5 43.82 8.5
2017 03 02 23:00 261.9 0.00 0.000 38.7 3.7 44.4 5.1
2017 03 02 24:00 262.4 0.00 0.000 34.7 1.5 53.2 2.9
2017 03 03 1:00 262.6 0.00 0.000 34.6 1.5 54.42 4.5
2017 03 03 2:00 263.2 0.00 0.000 34.1 1.1 60.88 4.0
2017 03 03 3:00 263.6 0.00 0.000 0.0 0.2 69.47 4.0
2017 03 03 4:00 264.2 0.00 0.000 0.0 -0.3 72.2 3.2
2017 03 03 5:00 266.3 0.00 0.000 28.4 -2.0 80.1 1.3
2017 03 03 6:00 266.7 0.00 0.000 27.0 -2.8 83.5 2.8
2017 03 03 7:00 265.4 0.00 0.000 28.4 -2.0 80.6 2.9
2017 03 03 8:00 265.2 0.00 0.000 0.0 -0.5 76.3 3.1
2017 03 03 9:00 264.6 0.00 0.000 34.2 1.2 72.4 6.2
2017 03 03 10:00 264.0 0.00 0.000 38.9 3.8 60.39 5.0
2017 03 03 11:00 262.8 0.00 0.000 42.7 5.9 39.37 5.4
2017 03 03 12:00 261.9 0.00 0.000 45.9 7.7 34.16 4.6
2017 03 03 13:00 261.4 0.00 0.000 48.6 9.2 30.25 5.7
2017 03 03 14:00 261.0 0.00 0.000 50.3 10.2 29.85 6.5
2017 03 03 15:00 260.9 0.00 0.000 51.8 11.0 29.95 9.6
2017 03 03 16:00 260.9 0.00 0.000 51.9 11.1 29.9 11.6
2017 03 03 17:00 260.9 0.00 0.000 51.7 10.9 30.52 11.1
2017 03 03 18:00 261.1 0.00 0.000 49.7 9.9 32.64 11.8
2017 03 03 19:00 261.6 0.00 0.000 47.0 8.4 38.08 10.6
2017 03 03 20:00 261.6 0.00 0.000 44.8 7.1 45.19 13.7
2017 03 03 21:00 262.3 0.00 0.000 42.8 6.0 51.32 13.3
2017 03 03 22:00 262.6 0.00 0.000 41.2 5.1 57.38 11.8
2017 03 03 23:00 263.1 0.00 0.000 40.1 4.5 60.13 10.8
2017 03 03 24:00 263.1 0.00 0.000 39.2 4.0 60.17 11.1
2017 03 04 1:00 263.1 0.00 0.000 38.7 3.7 59.54 12.0
2017 03 04 2:00 263.1 0.00 0.000 38.0 3.3 61.29 10.1
2017 03 04 3:00 263.1 0.00 0.000 37.8 3.2 62.53 9.0
2017 03 04 4:00 263.1 0.00 0.000 37.4 3.0 63.78 8.5
2017 03 04 5:00 263.3 0.00 0.000 37.3 2.9 64.37 8.6
2017 03 04 6:00 263.7 0.00 0.000 37.5 3.1 64.43 7.5
2017 03 04 7:00 263.8 0.00 0.000 37.0 2.8 66.24 6.8
2017 03 04 8:00 263.7 0.00 0.000 40.1 4.5 61.33 7.1
2017 03 04 9:00 263.1 0.00 0.000 46.5 8.1 50.49 9.7
2017 03 04 10:00 262.9 0.00 0.000 50.1 10.1 44.01 12.1
2017 03 04 11:00 262.3 0.00 0.000 54.5 12.5 38.62 11.0
2017 03 04 12:00 261.6 0.00 0.000 59.8 15.4 30.46 12.3
2017 03 04 13:00 261.2 0.00 0.000 62.3 16.8 27.66 10.4
2017 03 04 14:00 260.7 0.00 0.000 63.9 17.7 25.19 11.0
2017 03 04 15:00 260.2 0.00 0.000 65.0 18.4 22.99 10.4
2017 03 04 16:00 260.1 0.00 0.000 65.1 18.4 21.77 10.0
2017 03 04 17:00 260.1 0.00 0.000 63.7 17.6 23.33 10.8
2017 03 04 18:00 260.1 0.00 0.000 60.0 15.5 27.04 8.5
2017 03 04 19:00 260.7 0.00 0.000 56.8 13.8 30.47 7.7
2017 03 04 20:00 260.9 0.00 0.000 55.7 13.2 32.48 9.4
2017 03 04 21:00 260.9 0.00 0.000 54.6 12.6 33.96 9.7
2017 03 04 22:00 260.9 0.00 0.000 53.9 12.2 35.37 11.6
2017 03 04 23:00 260.9 0.00 0.000 53.0 11.7 37.9 12.1
2017 03 04 24:00 261.2 0.00 0.000 52.4 11.4 39.75 11.5
2017 03 05 1:00 261.5 0.00 0.000 52.5 11.4 40.1 13.3
2017 03 05 2:00 261.6 0.00 0.000 51.9 11.1 41.72 12.2
2017 03 05 3:00 261.6 0.00 0.000 51.3 10.7 43.1 12.0
2017 03 05 4:00 261.6 0.00 0.000 50.9 10.5 44.03 11.7
2017 03 05 5:00 261.6 0.00 0.000 50.7 10.4 44.2 10.2
2017 03 05 6:00 261.6 0.00 0.000 50.5 10.3 44.46 8.7
2017 03 05 7:00 261.6 0.00 0.000 50.5 10.3 45.67 9.2
2017 03 05 8:00 261.7 0.00 0.000 50.6 10.3 49.86 8.5
2017 03 05 9:00 262.3 0.00 0.000 51.0 10.6 57.94 12.7
2017 03 05 10:00 262.9 0.00 0.000 51.5 10.8 69.86 15.0
2017 03 05 11:00 263.9 0.00 0.000 50.2 10.1 80.1 14.9
2017 03 05 12:00 264.8 0.00 0.000 49.0 9.4 86.1 14.8
2017 03 05 13:00 266.0 0.00 0.000 48.7 9.3 89.3 14.0
2017 03 05 14:00 265.7 0.00 0.000 49.5 9.7 86 14.0
2017 03 05 15:00 265.6 0.00 0.000 50.5 10.3 83.2 13.0
2017 03 05 16:00 265.0 0.00 0.000 51.7 10.9 79.2 14.6
2017 03 05 17:00 265.0 0.00 0.000 51.7 10.9 74.5 14.3
2017 03 05 18:00 265.0 0.00 0.000 51.1 10.6 72.8 14.7
2017 03 05 19:00 265.0 0.00 0.000 50.1 10.1 74.6 13.1
2017 03 05 20:00 265.0 0.00 0.000 49.5 9.7 75.9 14.5
2017 03 05 21:00 265.0 0.00 0.000 48.9 9.4 76.1 15.6
2017 03 05 22:00 265.3 0.00 0.000 47.8 8.8 79.2 15.0
2017 03 05 23:00 265.7 0.00 0.000 47.3 8.5 82.2 14.4
2017 03 05 24:00 265.7 0.00 0.000 48.2 9.0 82.2 15.4
2017 03 06 1:00 265.9 0.00 0.000 49.0 9.4 85.3 14.0
2017 03 06 2:00 266.5 0.00 0.000 49.9 10.0 89.5 13.8
2017 03 06 3:00 267.3 0.00 0.000 50.9 10.5 91 14.1
2017 03 06 4:00 271.3 0.00 0.000 51.0 10.6 94.5 13.2
2017 03 06 5:00 283.6 0.00 0.000 51.5 10.8 96.1 13.5
2017 03 06 6:00 Wet 306.6 0.00 0.000 51.9 11.1 97.1 14.7
2017 03 06 7:00 Wet 301.2 0.00 0.000 52.0 11.1 100.1 13.5
2017 03 06 8:00 Wet 302.5 0.01 0.254 52.6 11.4 100.2 13.2
2017 03 06 9:00 Wet 298.1 0.00 0.000 53.7 12.0 100.1 12.1
2017 03 06 10:00 Wet 303.2 0.01 0.254 54.9 12.7 100.1 12.3
2017 03 06 11:00 Wet 287.5 0.00 0.000 56.4 13.5 100.1 14.8
2017 03 06 12:00 268.1 0.00 0.000 59.3 15.2 95.3 16.7
2017 03 06 13:00 266.4 0.00 0.000 63.6 17.5 81.4 18.6
2017 03 06 14:00 265.8 0.00 0.000 65.7 18.7 74.9 17.1
2017 03 06 15:00 265.5 0.00 0.000 66.6 19.2 71.6 16.7
2017 03 06 16:00 265.5 0.00 0.000 67.0 19.5 69.98 16.1
2017 03 06 17:00 265.4 0.00 0.000 67.6 19.8 66.53 18.0
2017 03 06 18:00 265.5 0.00 0.000 65.8 18.8 73.1 18.3
2017 03 06 19:00 266.2 0.00 0.000 64.2 17.9 79.4 16.9
2017 03 06 20:00 266.2 0.00 0.000 64.0 17.8 81.1 18.8
2017 03 06 21:00 266.8 0.00 0.000 63.6 17.6 83.3 17.6
2017 03 06 22:00 266.7 0.00 0.000 64.3 17.9 81.2 18.7
2017 03 06 23:00 266.7 0.00 0.000 64.4 18.0 81.2 19.7
2017 03 06 24:00 266.2 0.00 0.000 65.6 18.7 78.3 16.5
2017 03 07 1:00 Wet 407.7 0.44 11.180 48.3 9.1 89.9 15.0
2017 03 07 2:00 Wet 417.2 0.11 2.794 42.8 6.0 95.4 10.7
2017 03 07 3:00 Wet 447.4 0.20 5.080 41.8 5.5 89.5 5.9
2017 03 07 4:00 Wet 340.6 0.01 0.254 41.3 5.1 90.5 3.4
2017 03 07 5:00 Wet 290.2 0.00 0.000 42.4 5.8 80.9 6.9
2017 03 07 6:00 265.8 0.00 0.000 42.9 6.1 71.2 9.6
2017 03 07 7:00 265.1 0.00 0.000 41.2 5.1 61.24 9.5
2017 03 07 8:00 264.8 0.00 0.000 39.8 4.3 62.46 9.1
2017 03 07 9:00 264.5 0.00 0.000 41.3 5.2 59.37 10.4
2017 03 07 10:00 264.4 0.00 0.000 44.0 6.7 54.61 10.2
2017 03 07 11:00 263.7 0.00 0.000 46.9 8.3 43.84 9.8
2017 03 07 12:00 262.9 0.00 0.000 49.1 9.5 35.45 10.2
2017 03 07 13:00 262.2 0.00 0.000 50.4 10.2 30.49 12.4
2017 03 07 14:00 261.6 0.00 0.000 52.3 11.3 27.21 15.3
2017 03 07 15:00 260.9 0.00 0.000 53.4 11.9 21.67 15.4
2017 03 07 16:00 260.4 0.00 0.000 54.2 12.4 18.88 14.6
2017 03 07 17:00 260.2 0.00 0.000 53.9 12.2 18.5 13.5
2017 03 07 18:00 260.2 0.00 0.000 52.4 11.4 20.82 11.0
2017 03 07 19:00 260.9 0.00 0.000 49.2 9.5 23.66 5.3
2017 03 07 20:00 261.0 0.00 0.000 47.3 8.5 24.76 3.0
2017 03 07 21:00 261.0 0.00 0.000 45.2 7.4 27.76 2.3
2017 03 07 22:00 261.5 0.00 0.000 43.7 6.5 30.43 3.3
2017 03 07 23:00 261.7 0.00 0.000 43.0 6.1 30.77 4.1
2017 03 07 24:00 261.7 0.00 0.000 42.7 5.9 30.23 4.2
2017 03 08 1:00 261.7 0.00 0.000 42.5 5.8 29.01 3.6
2017 03 08 2:00 261.4 0.00 0.000 42.2 5.7 27.75 3.3
2017 03 08 3:00 261.7 0.00 0.000 41.5 5.3 29.35 4.5
2017 03 08 4:00 261.7 0.00 0.000 41.0 5.0 29.6 4.6
2017 03 08 5:00 261.5 0.00 0.000 42.5 5.8 26.96 5.2
2017 03 08 6:00 261.3 0.00 0.000 41.7 5.4 28.98 5.0
2017 03 08 7:00 261.7 0.00 0.000 40.3 4.6 30.75 2.6
2017 03 08 8:00 261.4 0.00 0.000 43.0 6.1 33.17 2.3
2017 03 08 9:00 261.1 0.00 0.000 50.3 10.2 25.02 3.8
2017 03 08 10:00 260.9 0.00 0.000 53.9 12.2 23.56 6.6
2017 03 08 11:00 260.5 0.00 0.000 56.6 13.6 21.54 8.7
2017 03 08 12:00 260.0 0.00 0.000 60.0 15.5 18.41 8.3
2017 03 08 13:00 259.4 0.00 0.000 62.5 16.9 14.82 9.6
2017 03 08 14:00 258.9 0.00 0.000 63.5 17.5 14.23 9.7
2017 03 08 15:00 258.8 0.00 0.000 64.4 18.0 14.28 11.2
2017 03 08 16:00 258.7 0.00 0.000 64.8 18.3 13.4 11.5
2017 03 08 17:00 258.7 0.00 0.000 64.5 18.0 12.92 10.0
2017 03 08 18:00 258.8 0.00 0.000 62.0 16.7 13.77 9.0
2017 03 08 19:00 258.8 0.00 0.000 57.8 14.3 16.71 5.8
2017 03 08 20:00 259.4 0.00 0.000 55.5 13.0 20.73 5.9
2017 03 08 21:00 259.6 0.00 0.000 53.0 11.6 24.74 4.7
2017 03 08 22:00 259.9 0.00 0.000 51.5 10.8 28.3 6.0
2017 03 08 23:00 260.3 0.00 0.000 50.9 10.5 33.48 7.8
2017 03 08 24:00 260.7 0.00 0.000 49.7 9.8 39.69 6.7
2017 03 09 1:00 261.2 0.00 0.000 47.0 8.3 45.96 5.2
2017 03 09 2:00 261.7 0.00 0.000 46.3 7.9 47.63 6.1
2017 03 09 3:00 261.7 0.00 0.000 48.5 9.2 45.5 7.2
2017 03 09 4:00 261.7 0.00 0.000 47.8 8.8 47.01 5.2
2017 03 09 5:00 261.8 0.00 0.000 46.8 8.2 48.7 3.8
2017 03 09 6:00 262.3 0.00 0.000 46.9 8.3 48.59 2.6
2017 03 09 7:00 262.3 0.00 0.000 47.8 8.8 47.52 2.6
2017 03 09 8:00 261.7 0.00 0.000 52.4 11.3 43.44 2.9
2017 03 09 9:00 261.6 0.00 0.000 57.9 14.4 40.51 7.0
2017 03 09 10:00 261.6 0.00 0.000 62.3 16.8 42.39 8.0
2017 03 09 11:00 261.7 0.00 0.000 67.0 19.4 44.16 7.2
2017 03 09 12:00 261.4 0.00 0.000 70.5 21.4 41.57 8.4
2017 03 09 13:00 261.4 0.00 0.000 71.3 21.8 41.81 7.6
2017 03 09 14:00 261.4 0.00 0.000 71.6 22.0 42.81 5.4
2017 03 09 15:00 260.8 0.00 0.000 75.9 24.4 31.75 9.8
2017 03 09 16:00 260.6 0.00 0.000 75.1 23.9 32.8 11.7
2017 03 09 17:00 261.1 0.00 0.000 73.5 23.0 38.92 9.1
2017 03 09 18:00 Wet 295.7 0.00 0.000 60.6 15.9 68.66 12.8
2017 03 09 19:00 Wet 361.5 0.09 2.286 54.5 12.5 82.7 6.2
2017 03 09 20:00 Wet 347.2 0.13 3.302 53.8 12.1 85.9 6.5
2017 03 09 21:00 Wet 320.5 0.01 0.254 52.7 11.5 89.5 3.8
2017 03 09 22:00 Wet 310.9 0.00 0.000 51.3 10.7 92.4 5.8
2017 03 09 23:00 Wet 293.2 0.00 0.000 51.4 10.8 93 10.2
2017 03 09 24:00 267.9 0.00 0.000 47.1 8.4 82 15.1
2017 03 10 1:00 265.5 0.00 0.000 43.0 6.1 74 11.4
2017 03 10 2:00 265.1 0.00 0.000 40.4 4.7 71.8 11.9
2017 03 10 3:00 265.1 0.00 0.000 37.7 3.2 73 10.2
2017 03 10 4:00 265.1 0.00 0.000 35.9 2.2 75.6 8.9
2017 03 10 5:00 265.4 0.00 0.000 34.6 1.5 80.2 7.7
2017 03 10 6:00 265.9 0.00 0.000 0.0 0.8 83.5 7.3
2017 03 10 7:00 265.4 0.00 0.000 0.0 0.5 77.8 7.1
2017 03 10 8:00 264.6 0.00 0.000 34.1 1.1 72.2 9.8
2017 03 10 9:00 264.5 0.00 0.000 35.9 2.2 63.45 9.9
2017 03 10 10:00 264.2 0.00 0.000 37.4 3.0 58.39 10.4
2017 03 10 11:00 263.7 0.00 0.000 40.5 4.7 50.9 8.8
2017 03 10 12:00 263.1 0.00 0.000 42.1 5.6 48.63 9.4
2017 03 10 13:00 262.9 0.00 0.000 43.6 6.5 47.01 8.2
2017 03 10 14:00 262.3 0.00 0.000 45.1 7.3 41.52 8.3
2017 03 10 15:00 261.8 0.00 0.000 46.7 8.2 37.62 7.4
2017 03 10 16:00 261.6 0.00 0.000 45.9 7.7 36.28 7.1
2017 03 10 17:00 261.6 0.00 0.000 44.9 7.2 36.11 7.9
2017 03 10 18:00 261.6 0.00 0.000 43.6 6.4 37.12 7.0
2017 03 10 19:00 261.8 0.00 0.000 40.8 4.9 42.17 3.8
2017 03 10 20:00 262.4 0.00 0.000 38.9 3.8 45.22 4.5
2017 03 10 21:00 262.4 0.00 0.000 37.7 3.2 48.19 5.5
2017 03 10 22:00 262.4 0.00 0.000 37.9 3.3 46.56 9.8
2017 03 10 23:00 262.4 0.00 0.000 37.2 2.9 47 9.5
2017 03 10 24:00 262.4 0.00 0.000 36.5 2.5 48.22 5.7
2017 03 11 1:00 262.7 0.00 0.000 36.7 2.6 47.93 6.5
2017 03 11 2:00 Wet 399.3 0.06 1.524 0.0 1.0 68.2 6.6
2017 03 11 3:00 Wet 370.1 0.04 1.016 0.0 -0.2 84 5.6
2017 03 11 4:00 Wet 346.4 0.00 0.000 0.0 -0.4 88.5 4.6
2017 03 11 5:00 Wet 337.7 0.01 0.254 0.0 -0.9 91.5 5.6
2017 03 11 6:00 Wet 332.8 0.00 0.000 29.9 -1.1 92.4 5.1
2017 03 11 7:00 Wet 332.9 0.00 0.000 29.9 -1.2 93 4.8
2017 03 11 8:00 Wet 331.9 0.00 0.000 29.6 -1.3 90.5 6.0
2017 03 11 9:00 Wet 331.4 0.00 0.000 29.5 -1.4 84.4 4.9
2017 03 11 10:00 Wet 331.4 0.00 0.000 29.9 -1.2 81.8 4.9
2017 03 11 11:00 Wet 332.5 0.00 0.000 0.0 -0.9 80.8 4.1
2017 03 11 12:00 Wet 332.1 0.00 0.000 0.0 -0.8 78.4 5.3
2017 03 11 13:00 Wet 466.8 0.00 0.000 0.0 -0.4 80.6 3.9
2017 03 11 14:00 Wet 774.0 0.01 0.254 0.0 0.1 78.2 1.5
2017 03 11 15:00 Wet 854.0 0.09 2.286 0.0 0.7 77.4 2.7
2017 03 11 16:00 Wet 577.7 0.07 1.778 34.3 1.3 68.88 5.3
2017 03 11 17:00 Wet 315.8 0.00 0.000 34.7 1.5 70.3 6.5
2017 03 11 18:00 264.5 0.00 0.000 0.0 1.0 72.1 5.6
2017 03 11 19:00 265.0 0.00 0.000 0.0 0.7 76.9 5.0
2017 03 11 20:00 265.2 0.00 0.000 0.0 0.3 80 6.3
2017 03 11 21:00 265.2 0.00 0.000 0.0 -0.2 82.2 6.5
2017 03 11 22:00 265.2 0.00 0.000 0.0 -0.5 83.3 7.4
2017 03 11 23:00 265.2 0.00 0.000 29.7 -1.3 86.1 7.1
2017 03 11 24:00 265.3 0.00 0.000 29.1 -1.6 86.4 6.9
2017 03 12 1:00 265.3 0.00 0.000 28.5 -1.9 84.5 6.4
2017 03 12 2:00 266.5 0.00 0.000 27.0 -2.8 86.4 4.0
2017 03 12 3:00 267.6 0.00 0.000 25.3 -3.7 88.6 3.2
2017 03 12 4:00 268.4 0.00 0.000 24.1 -4.4 91.1 1.6
2017 03 12 5:00 271.1 0.00 0.000 23.1 -4.9 93.7 1.2
2017 03 12 6:00 273.6 0.00 0.000 22.5 -5.3 95 1.7
2017 03 12 7:00 275.6 0.00 0.000 22.4 -5.3 94.6 1.4
2017 03 12 8:00 275.1 0.00 0.000 27.0 -2.8 87.1 4.7
2017 03 12 9:00 266.2 0.00 0.000 29.8 -1.2 66.61 7.3
2017 03 12 10:00 264.0 0.00 0.000 0.0 0.4 58.01 8.1
2017 03 12 11:00 263.6 0.00 0.000 35.7 2.0 50.4 9.1
2017 03 12 12:00 262.9 0.00 0.000 39.4 4.1 44.24 5.1
2017 03 12 13:00 262.4 0.00 0.000 41.3 5.2 43.37 4.5
2017 03 12 14:00 261.9 0.00 0.000 43.5 6.4 41.14 5.0
2017 03 12 15:00 261.6 0.00 0.000 45.3 7.4 38.1 5.3
2017 03 12 16:00 261.6 0.00 0.000 46.3 8.0 37.83 9.8
2017 03 12 17:00 261.7 0.00 0.000 44.6 7.0 41.6 11.3
2017 03 12 18:00 262.3 0.00 0.000 42.0 5.6 49.36 13.1
2017 03 12 19:00 262.9 0.00 0.000 39.1 4.0 56.31 10.1
2017 03 12 20:00 263.1 0.00 0.000 37.1 2.8 60.73 8.6
2017 03 12 21:00 263.1 0.00 0.000 36.1 2.3 63.98 7.3
2017 03 12 22:00 263.6 0.00 0.000 36.2 2.4 66.07 4.9
2017 03 12 23:00 263.8 0.00 0.000 36.4 2.5 66.93 3.4
2017 03 12 24:00 265.2 0.00 0.000 34.6 1.5 77.9 5.4
2017 03 13 1:00 271.9 0.00 0.000 0.0 -0.2 97.5 6.1
2017 03 13 2:00 Wet 296.6 0.00 0.000 0.0 -0.2 98.5 8.2
2017 03 13 3:00 Wet 333.0 0.00 0.000 0.0 -0.1 98.7 8.4
2017 03 13 4:00 Wet 318.9 0.00 0.000 0.0 -0.1 98.7 7.0
2017 03 13 5:00 Wet 319.4 0.00 0.000 0.0 -0.1 99.3 6.2
2017 03 13 6:00 Wet 321.7 0.00 0.000 0.0 -0.2 99.4 6.5
2017 03 13 7:00 Wet 319.7 0.00 0.000 0.0 -0.2 99.5 5.8
2017 03 13 8:00 Wet 314.8 0.00 0.000 0.0 -0.1 99.5 4.8
2017 03 13 9:00 Wet 304.6 0.00 0.000 0.0 0.2 99.3 4.6
2017 03 13 10:00 Wet 288.3 0.05 1.270 0.0 0.5 99.4 2.9
2017 03 13 11:00 270.2 0.09 2.286 0.0 0.9 95.1 8.5
2017 03 13 12:00 279.7 0.02 0.508 0.0 -0.5 87.7 12.9
2017 03 13 13:00 265.4 0.01 0.254 0.0 -1.0 82.3 11.9
2017 03 13 14:00 264.7 0.05 1.270 0.0 -0.6 77.9 11.7
2017 03 13 15:00 265.1 0.00 0.000 29.8 -1.2 79.7 11.3
2017 03 13 16:00 265.2 0.00 0.000 29.7 -1.3 82.3 10.2
2017 03 13 17:00 265.6 0.00 0.000 29.8 -1.2 85.3 10.9
2017 03 13 18:00 267.0 0.00 0.000 29.8 -1.2 90.3 9.7
2017 03 13 19:00 279.0 0.00 0.000 30.1 -1.1 95.8 8.3
2017 03 13 20:00 Wet 341.1 0.00 0.000 0.0 -0.6 97.4 7.8
2017 03 13 21:00 Wet 504.2 0.00 0.000 0.0 -0.2 97.1 10.2
2017 03 13 22:00 Wet 436.6 0.00 0.000 0.0 -0.4 96.8 11.5
2017 03 13 23:00 Wet 326.7 0.00 0.000 0.0 -0.8 95.4 10.5
2017 03 13 24:00 Wet 329.3 0.00 0.000 29.9 -1.2 93.5 12.0
2017 03 14 1:00 Wet 329.3 0.00 0.000 29.3 -1.5 88.7 10.1
2017 03 14 2:00 Wet 328.8 0.00 0.000 29.1 -1.6 89.8 8.5
2017 03 14 3:00 Wet 328.6 0.00 0.000 28.7 -1.8 89.6 9.9
2017 03 14 4:00 Wet 327.9 0.00 0.000 28.0 -2.2 89.5 10.4
2017 03 14 5:00 Wet 327.4 0.00 0.000 27.7 -2.4 89.7 9.3
2017 03 14 6:00 Wet 326.8 0.00 0.000 27.3 -2.6 88.8 9.7
2017 03 14 7:00 Wet 326.2 0.00 0.000 27.0 -2.8 88.1 9.0
2017 03 14 8:00 Wet 325.3 0.00 0.000 26.7 -2.9 84.3 9.1
2017 03 14 9:00 Wet 324.2 0.00 0.000 26.9 -2.8 82.9 8.4
2017 03 14 10:00 Wet 322.5 0.00 0.000 27.0 -2.8 81.9 6.5
2017 03 14 11:00 Wet 320.8 0.00 0.000 27.0 -2.8 83.4 6.6
2017 03 14 12:00 Wet 319.0 0.01 0.254 27.4 -2.5 86.4 7.8
2017 03 14 13:00 Wet 315.8 0.00 0.000 29.2 -1.5 80.7 8.2
2017 03 14 14:00 Wet 319.2 0.02 0.508 29.6 -1.3 80.3 8.5
2017 03 14 15:00 Wet 294.1 0.00 0.000 28.9 -1.7 82.4 8.3
2017 03 14 16:00 Wet 285.4 0.00 0.000 28.3 -2.1 84.7 7.8
2017 03 14 17:00 273.4 0.00 0.000 28.5 -1.9 75.1 9.6
2017 03 14 18:00 265.9 0.00 0.000 28.0 -2.2 72.3 9.0
2017 03 14 19:00 265.3 0.00 0.000 27.1 -2.7 72.4 8.7
2017 03 14 20:00 265.0 0.00 0.000 26.5 -3.0 69.74 8.3
2017 03 14 21:00 264.9 0.00 0.000 25.0 -3.9 71.7 5.2
2017 03 14 22:00 265.3 0.00 0.000 23.6 -4.6 76.4 4.2
2017 03 14 23:00 265.4 0.00 0.000 22.5 -5.3 80 5.0
2017 03 14 24:00 266.1 0.00 0.000 21.0 -6.1 82 3.1
2017 03 15 1:00 267.2 0.00 0.000 19.6 -6.9 84.2 2.0
2017 03 15 2:00 267.7 0.00 0.000 19.6 -6.9 80.6 3.4
2017 03 15 3:00 266.6 0.00 0.000 19.1 -7.2 79.8 4.2
2017 03 15 4:00 265.6 0.00 0.000 18.5 -7.5 76.8 3.8
2017 03 15 5:00 265.5 0.00 0.000 17.8 -7.9 76.7 1.9
2017 03 15 6:00 265.6 0.00 0.000 16.5 -8.6 78.5 2.3
2017 03 15 7:00 266.2 0.00 0.000 16.1 -8.9 81.5 2.7
2017 03 15 8:00 264.6 0.00 0.000 19.8 -6.8 72 4.6
2017 03 15 9:00 264.1 0.00 0.000 23.1 -4.9 62.75 2.5
2017 03 15 10:00 263.8 0.00 0.000 25.8 -3.4 56.64 3.1
2017 03 15 11:00 263.3 0.00 0.000 29.0 -1.7 49.97 3.7
2017 03 15 12:00 263.0 0.00 0.000 0.0 -0.5 45.15 3.7
2017 03 15 13:00 262.3 0.00 0.000 35.0 1.6 40.38 3.1
2017 03 15 14:00 261.7 0.00 0.000 36.9 2.7 35.56 3.4
2017 03 15 15:00 261.4 0.00 0.000 38.7 3.7 31.68 4.1
2017 03 15 16:00 261.1 0.00 0.000 39.6 4.2 30.37 3.9
2017 03 15 17:00 261.7 0.00 0.000 38.5 3.6 30.92 2.8
2017 03 15 18:00 261.7 0.00 0.000 38.0 3.3 33.95 2.6
2017 03 15 19:00 261.7 0.00 0.000 36.9 2.7 36.22 4.0
2017 03 15 20:00 262.3 0.00 0.000 35.7 2.1 44.04 3.2
2017 03 15 21:00 262.5 0.00 0.000 35.8 2.1 45.23 2.0
2017 03 15 22:00 262.5 0.00 0.000 35.7 2.1 43.67 3.8
2017 03 15 23:00 262.5 0.00 0.000 35.2 1.8 47.96 5.0
2017 03 15 24:00 262.5 0.00 0.000 34.6 1.4 49.07 5.1
2017 03 16 1:00 262.5 0.00 0.000 34.6 1.5 44.18 7.5
2017 03 16 2:00 262.5 0.00 0.000 34.2 1.2 50.94 6.2
2017 03 16 3:00 262.6 0.00 0.000 34.1 1.1 55.37 5.2
2017 03 16 4:00 263.2 0.00 0.000 34.0 1.1 58.26 6.0
2017 03 16 5:00 263.2 0.00 0.000 0.0 0.9 62.62 6.6
2017 03 16 6:00 263.2 0.00 0.000 0.0 0.9 64.03 7.1
2017 03 16 7:00 263.2 0.00 0.000 0.0 0.8 65.42 8.1
2017 03 16 8:00 263.2 0.00 0.000 0.0 0.9 64.31 8.9
2017 03 16 9:00 263.2 0.00 0.000 35.1 1.7 61.27 10.4
2017 03 16 10:00 263.1 0.00 0.000 40.0 4.4 54.37 11.0
2017 03 16 11:00 263.1 0.00 0.000 43.8 6.5 51.05 12.2
2017 03 16 12:00 262.8 0.00 0.000 43.8 6.6 52.56 12.5
2017 03 16 13:00 263.0 0.00 0.000 42.6 5.9 55.93 13.6
2017 03 16 14:00 262.9 0.00 0.000 44.2 6.8 55.86 14.7
2017 03 16 15:00 262.9 0.00 0.000 44.8 7.1 56.37 13.0
2017 03 16 16:00 263.0 0.00 0.000 44.4 6.9 56.64 13.4
2017 03 16 17:00 263.0 0.00 0.000 43.5 6.4 57.61 14.2
2017 03 16 18:00 263.0 0.00 0.000 42.3 5.7 60.24 13.2
2017 03 16 19:00 263.3 0.00 0.000 40.4 4.7 64.66 13.7
2017 03 16 20:00 263.2 0.00 0.000 39.2 4.0 63.06 14.6
2017 03 16 21:00 263.1 0.00 0.000 39.4 4.1 62.19 13.6
2017 03 16 22:00 263.6 0.00 0.000 39.6 4.2 65.27 13.4
2017 03 16 23:00 263.7 0.00 0.000 40.0 4.4 70.2 11.8
2017 03 16 24:00 263.7 0.00 0.000 40.6 4.8 69.82 12.3
2017 03 17 1:00 263.7 0.00 0.000 40.9 5.0 66.84 12.5
2017 03 17 2:00 263.7 0.00 0.000 41.7 5.4 65.62 12.1
2017 03 17 3:00 263.7 0.00 0.000 41.9 5.5 66.26 11.8
2017 03 17 4:00 263.7 0.00 0.000 42.6 5.9 68.47 12.3
2017 03 17 5:00 264.1 0.00 0.000 43.3 6.3 71.8 11.1
2017 03 17 6:00 264.4 0.00 0.000 44.0 6.6 76.1 11.1
2017 03 17 7:00 265.1 0.00 0.000 44.8 7.1 83 9.5
2017 03 17 8:00 265.9 0.00 0.000 45.6 7.6 87.6 6.1
2017 03 17 9:00 266.7 0.00 0.000 46.0 7.8 90.1 6.6
2017 03 17 10:00 266.4 0.00 0.000 48.6 9.2 88.3 7.4
2017 03 17 11:00 266.4 0.00 0.000 51.1 10.6 87 6.4
2017 03 17 12:00 265.7 0.00 0.000 55.0 12.8 83.5 7.6
2017 03 17 13:00 265.1 0.00 0.000 58.8 14.9 78.1 7.4
2017 03 17 14:00 264.9 0.00 0.000 61.6 16.5 73.7 6.7
2017 03 17 15:00 264.5 0.00 0.000 64.7 18.1 70.1 6.1
2017 03 17 16:00 264.1 0.00 0.000 67.3 19.6 66.14 6.2
2017 03 17 17:00 264.8 0.00 0.000 66.9 19.4 68.03 3.0
2017 03 17 18:00 264.8 0.00 0.000 66.6 19.2 67.41 2.5
2017 03 17 19:00 265.7 0.00 0.000 64.0 17.8 71.4 0.4
2017 03 17 20:00 269.5 0.00 0.000 59.7 15.4 83 0.5
2017 03 17 21:00 Wet 305.8 0.00 0.000 56.4 13.6 89.8 0.7
2017 03 17 22:00 Wet 357.5 0.00 0.000 53.4 11.9 91.1 1.3
2017 03 17 23:00 Wet 364.1 0.00 0.000 52.3 11.3 85 0.5
2017 03 17 24:00 Wet 404.4 0.00 0.000 48.8 9.3 84.6 1.2
2017 03 18 1:00 Wet 322.2 0.00 0.000 50.8 10.4 66.57 5.0
2017 03 18 2:00 265.4 0.00 0.000 49.8 9.9 61.89 5.8
2017 03 18 3:00 265.0 0.00 0.000 47.8 8.8 59.37 7.0
2017 03 18 4:00 264.7 0.00 0.000 45.9 7.7 57.68 4.0
2017 03 18 5:00 265.0 0.00 0.000 42.8 6.0 61.58 3.6
2017 03 18 6:00 264.6 0.00 0.000 42.4 5.8 57.71 4.3
2017 03 18 7:00 264.6 0.00 0.000 40.4 4.7 61.69 5.3
2017 03 18 8:00 263.9 0.00 0.000 45.4 7.5 51.52 7.6
2017 03 18 9:00 263.4 0.00 0.000 48.3 9.1 43.57 8.6
2017 03 18 10:00 262.9 0.00 0.000 51.4 10.8 35.97 8.3
2017 03 18 11:00 261.9 0.00 0.000 54.7 12.6 27.21 10.1
2017 03 18 12:00 260.9 0.00 0.000 58.0 14.4 18.66 11.0
2017 03 18 13:00 260.2 0.00 0.000 60.7 16.0 16.74 10.5
2017 03 18 14:00 259.8 0.00 0.000 63.0 17.3 16.08 10.9
2017 03 18 15:00 259.4 0.00 0.000 64.6 18.1 17.76 9.6
2017 03 18 16:00 259.4 0.00 0.000 65.7 18.7 19.41 9.4
2017 03 18 17:00 259.4 0.00 0.000 65.3 18.5 19.74 8.4
2017 03 18 18:00 259.5 0.00 0.000 62.9 17.1 21.5 6.2
2017 03 18 19:00 260.1 0.00 0.000 56.5 13.6 27.95 2.6
2017 03 18 20:00 260.7 0.00 0.000 51.8 11.0 35.46 1.4
2017 03 18 21:00 261.1 0.00 0.000 49.9 10.0 37.03 0.8
2017 03 18 22:00 261.6 0.00 0.000 46.9 8.3 43.52 0.6
2017 03 18 23:00 261.9 0.00 0.000 45.3 7.4 47.32 1.0
2017 03 18 24:00 261.9 0.00 0.000 46.9 8.3 35.55 2.7
2017 03 19 1:00 261.7 0.00 0.000 44.1 6.7 39.36 1.2
2017 03 19 2:00 261.8 0.00 0.000 43.9 6.6 43.63 1.1
2017 03 19 3:00 261.7 0.00 0.000 46.6 8.1 36.5 3.8
2017 03 19 4:00 261.7 0.00 0.000 47.6 8.6 34.94 6.0
2017 03 19 5:00 261.4 0.00 0.000 46.2 7.9 36.13 8.6
2017 03 19 6:00 261.7 0.00 0.000 44.7 7.1 46.7 7.5
2017 03 19 7:00 261.9 0.00 0.000 44.4 6.9 54.13 7.9
2017 03 19 8:00 262.3 0.00 0.000 44.9 7.2 57.24 8.5
2017 03 19 9:00 262.3 0.00 0.000 46.8 8.2 55.88 10.6
2017 03 19 10:00 262.2 0.00 0.000 50.4 10.2 50.82 12.7
2017 03 19 11:00 261.6 0.00 0.000 52.6 11.5 45.81 13.5
2017 03 19 12:00 261.6 0.00 0.000 56.7 13.7 42.91 13.7
2017 03 19 13:00 261.5 0.00 0.000 58.3 14.6 41.82 13.8
2017 03 19 14:00 261.5 0.00 0.000 61.1 16.2 42.4 12.2
2017 03 19 15:00 261.4 0.00 0.000 63.0 17.2 41.26 12.9
2017 03 19 16:00 261.4 0.00 0.000 64.6 18.1 38.86 12.2
2017 03 19 17:00 261.4 0.00 0.000 64.3 17.9 39.47 12.8
2017 03 19 18:00 261.4 0.00 0.000 62.6 17.0 41.57 12.1
2017 03 19 19:00 261.7 0.00 0.000 58.9 15.0 46.24 11.3
2017 03 19 20:00 262.2 0.00 0.000 56.2 13.4 50.94 11.7
2017 03 19 21:00 262.2 0.00 0.000 53.9 12.2 55.75 11.9
2017 03 19 22:00 262.9 0.00 0.000 52.1 11.2 61.19 11.7
2017 03 19 23:00 262.9 0.00 0.000 51.0 10.6 65.41 10.8
2017 03 19 24:00 263.5 0.00 0.000 50.3 10.1 67.64 11.0
2017 03 20 1:00 263.7 0.00 0.000 49.5 9.7 68.45 9.6
2017 03 20 2:00 263.7 0.00 0.000 49.4 9.7 67.53 7.8
2017 03 20 3:00 263.7 0.00 0.000 49.5 9.7 66.7 7.6
2017 03 20 4:00 263.7 0.00 0.000 50.0 10.0 66.11 5.8
2017 03 20 5:00 263.7 0.00 0.000 49.7 9.9 67.87 4.6
2017 03 20 6:00 263.8 0.00 0.000 50.4 10.2 69.33 5.7
2017 03 20 7:00 264.2 0.00 0.000 51.6 10.9 71.2 5.2
2017 03 20 8:00 263.7 0.00 0.000 58.2 14.6 69.58 6.9
2017 03 20 9:00 263.7 0.00 0.000 62.9 17.2 66.19 8.8
2017 03 20 10:00 263.6 0.00 0.000 67.7 19.9 59.53 9.2
2017 03 20 11:00 263.2 0.00 0.000 72.6 22.6 51.43 11.5
2017 03 20 12:00 262.6 0.00 0.000 76.9 24.9 45.26 8.0
2017 03 20 13:00 261.7 0.00 0.000 80.5 26.9 40.84 5.4
2017 03 20 14:00 261.3 0.00 0.000 81.7 27.6 38.18 7.2
2017 03 20 15:00 261.1 0.00 0.000 82.8 28.2 35.79 7.4
2017 03 20 16:00 261.0 0.00 0.000 82.6 28.1 36.3 8.0
2017 03 20 17:00 261.2 0.00 0.000 82.1 27.8 36.05 8.3
2017 03 20 18:00 261.3 0.00 0.000 80.3 26.9 37.85 7.3
2017 03 20 19:00 262.0 0.00 0.000 74.9 23.8 45.99 3.9
2017 03 20 20:00 263.0 0.00 0.000 69.4 20.8 56.08 3.5
2017 03 20 21:00 263.4 0.00 0.000 67.8 19.9 58.75 3.7
2017 03 20 22:00 263.5 0.00 0.000 69.2 20.7 56.28 3.8
2017 03 20 23:00 263.5 0.00 0.000 65.9 18.9 64.88 6.2
2017 03 20 24:00 263.8 0.00 0.000 64.3 17.9 67.07 6.8
2017 03 21 1:00 264.2 0.00 0.000 61.4 16.4 68.35 5.8
2017 03 21 2:00 264.2 0.00 0.000 59.7 15.4 67.81 5.2
2017 03 21 3:00 264.2 0.00 0.000 57.2 14.0 71 4.0
2017 03 21 4:00 264.3 0.00 0.000 55.4 13.0 73.2 3.2
2017 03 21 5:00 264.4 0.00 0.000 54.4 12.4 75.4 4.4
2017 03 21 6:00 264.9 0.00 0.000 53.2 11.8 77.7 5.6
2017 03 21 7:00 265.0 0.00 0.000 52.3 11.3 79.6 5.7
2017 03 21 8:00 264.4 0.00 0.000 52.6 11.5 78.3 6.4
2017 03 21 9:00 Wet 322.0 0.02 0.508 51.2 10.7 80.9 6.5
2017 03 21 10:00 Wet 389.3 0.08 2.032 50.5 10.3 89.1 10.8
2017 03 21 11:00 Wet 372.5 0.03 0.762 51.2 10.7 91.6 8.2
2017 03 21 12:00 Wet 354.0 0.02 0.508 50.7 10.4 88.7 9.8
2017 03 21 13:00 Wet 298.0 0.00 0.000 51.6 10.9 85.1 7.4
2017 03 21 14:00 265.4 0.00 0.000 53.5 11.9 81.6 11.7
2017 03 21 15:00 264.8 0.00 0.000 53.6 12.0 75.1 11.9
2017 03 21 16:00 264.8 0.00 0.000 52.0 11.1 75.2 12.8
2017 03 21 17:00 265.0 0.00 0.000 50.0 10.0 78.4 11.9
2017 03 21 18:00 265.0 0.00 0.000 50.0 10.0 72.5 9.6
2017 03 21 19:00 264.4 0.00 0.000 50.1 10.0 67.27 8.0
2017 03 21 20:00 264.8 0.00 0.000 49.5 9.7 70.5 7.3
2017 03 21 21:00 Wet 298.2 0.00 0.000 46.8 8.2 79.8 9.1
2017 03 21 22:00 Wet 380.5 0.09 2.286 45.7 7.6 86.3 3.7
2017 03 21 23:00 Wet 290.4 0.00 0.000 46.5 8.0 81.4 5.6
2017 03 21 24:00 266.7 0.00 0.000 46.7 8.2 78.9 4.9
2017 03 22 1:00 265.2 0.00 0.000 46.9 8.3 73.1 5.3
2017 03 22 2:00 264.6 0.00 0.000 45.8 7.7 63.12 6.5
2017 03 22 3:00 264.4 0.00 0.000 44.4 6.9 64.54 5.9
2017 03 22 4:00 264.4 0.00 0.000 42.5 5.8 66.28 6.2
2017 03 22 5:00 264.4 0.00 0.000 42.2 5.6 63.5 7.2
2017 03 22 6:00 264.4 0.00 0.000 41.6 5.3 63.72 5.2
2017 03 22 7:00 264.3 0.00 0.000 41.0 5.0 62.81 6.2
2017 03 22 8:00 263.8 0.00 0.000 42.4 5.8 59.78 7.7
2017 03 22 9:00 263.7 0.00 0.000 43.6 6.4 57.06 10.3
2017 03 22 10:00 263.5 0.00 0.000 46.3 7.9 52.43 9.6
2017 03 22 11:00 263.0 0.00 0.000 50.1 10.0 46.68 9.6
2017 03 22 12:00 262.7 0.00 0.000 52.4 11.4 43.61 10.1
2017 03 22 13:00 262.1 0.00 0.000 54.3 12.4 39.73 8.9
2017 03 22 14:00 261.8 0.00 0.000 55.6 13.1 40.75 7.8
2017 03 22 15:00 261.5 0.00 0.000 56.9 13.8 38.14 7.8
2017 03 22 16:00 261.5 0.00 0.000 57.0 13.9 36.38 7.7
2017 03 22 17:00 261.5 0.00 0.000 55.6 13.1 33.08 8.9
2017 03 22 18:00 261.5 0.00 0.000 54.8 12.7 34.36 9.4
2017 03 22 19:00 261.6 0.00 0.000 53.6 12.0 35.98 8.2
2017 03 22 20:00 261.6 0.00 0.000 52.5 11.4 35.72 9.7
2017 03 22 21:00 261.6 0.00 0.000 51.3 10.7 35.11 10.8
2017 03 22 22:00 261.6 0.00 0.000 49.9 9.9 36.56 11.1
2017 03 22 23:00 261.6 0.00 0.000 48.7 9.3 42.48 10.5
2017 03 22 24:00 261.6 0.00 0.000 47.7 8.7 42.06 10.5
2017 03 23 1:00 261.6 0.00 0.000 46.9 8.3 38.79 10.6
2017 03 23 2:00 261.6 0.00 0.000 46.4 8.0 37.73 10.2
2017 03 23 3:00 261.6 0.00 0.000 45.8 7.7 39.4 8.9
2017 03 23 4:00 261.7 0.00 0.000 45.7 7.6 39.84 9.3
2017 03 23 5:00 261.7 0.00 0.000 45.3 7.4 39.86 12.0
2017 03 23 6:00 261.7 0.00 0.000 44.7 7.1 40.55 10.5
2017 03 23 7:00 261.7 0.00 0.000 44.7 7.1 42.06 10.8
2017 03 23 8:00 261.7 0.00 0.000 45.6 7.5 42.36 12.3
2017 03 23 9:00 261.6 0.00 0.000 49.1 9.5 38.81 15.0
2017 03 23 10:00 261.6 0.00 0.000 53.0 11.7 37.67 14.7
2017 03 23 11:00 261.6 0.00 0.000 58.0 14.5 39.49 14.3
2017 03 23 12:00 261.5 0.00 0.000 62.8 17.1 43.05 13.8
2017 03 23 13:00 261.5 0.00 0.000 66.1 19.0 45.16 12.2
2017 03 23 14:00 261.6 0.00 0.000 68.4 20.2 46.3 14.4
2017 03 23 15:00 261.9 0.00 0.000 70.6 21.4 47.67 14.9
2017 03 23 16:00 262.1 0.00 0.000 71.2 21.8 47.24 15.6
2017 03 23 17:00 262.1 0.00 0.000 71.4 21.9 46.92 16.1
2017 03 23 18:00 262.1 0.00 0.000 70.2 21.2 48.69 15.2
2017 03 23 19:00 262.7 0.00 0.000 67.5 19.7 53.53 15.1
2017 03 23 20:00 262.8 0.00 0.000 64.9 18.3 56.31 15.1
2017 03 23 21:00 263.0 0.00 0.000 63.0 17.2 59.5 14.6
2017 03 23 22:00 263.5 0.00 0.000 62.2 16.8 62.73 14.1
2017 03 23 23:00 263.5 0.00 0.000 62.1 16.7 64.22 15.1
2017 03 23 24:00 263.5 0.00 0.000 62.7 17.1 63.97 15.5
2017 03 24 1:00 263.5 0.00 0.000 62.5 17.0 64.03 14.8
2017 03 24 2:00 263.5 0.00 0.000 62.0 16.6 63.02 12.7
2017 03 24 3:00 263.5 0.00 0.000 61.9 16.6 59.79 9.9
2017 03 24 4:00 263.5 0.00 0.000 59.6 15.3 63.79 7.8
2017 03 24 5:00 263.6 0.00 0.000 60.1 15.6 60.81 7.5
2017 03 24 6:00 263.6 0.00 0.000 60.9 16.1 58.32 9.9
2017 03 24 7:00 263.5 0.00 0.000 60.4 15.8 62.46 12.0
2017 03 24 8:00 263.5 0.00 0.000 61.2 16.2 65.89 13.3
2017 03 24 9:00 263.6 0.00 0.000 64.0 17.8 67.17 18.3
2017 03 24 10:00 263.5 0.00 0.000 66.1 19.0 59.39 20.1
2017 03 24 11:00 262.9 0.00 0.000 68.2 20.1 54.52 20.6
2017 03 24 12:00 262.8 0.00 0.000 69.0 20.6 53.79 18.8
2017 03 24 13:00 262.8 0.00 0.000 68.4 20.2 53.23 17.8
2017 03 24 14:00 262.8 0.00 0.000 68.6 20.3 54.84 17.1
2017 03 24 15:00 262.8 0.00 0.000 68.8 20.4 55.25 16.5
2017 03 24 16:00 262.8 0.00 0.000 68.8 20.4 55.36 14.7
2017 03 24 17:00 262.8 0.00 0.000 68.4 20.2 56.21 14.4
2017 03 24 18:00 262.8 0.00 0.000 67.6 19.8 56.73 11.5
2017 03 24 19:00 Wet 303.1 0.17 4.318 61.2 16.2 77.1 12.4
2017 03 24 20:00 Wet 365.7 0.09 2.286 57.4 14.1 91.8 3.7
2017 03 24 21:00 Wet 411.2 0.37 9.400 55.1 12.8 91.6 12.8
2017 03 24 22:00 Wet 458.5 0.34 8.640 52.3 11.3 94.9 7.4
2017 03 24 23:00 Wet 396.8 0.06 1.524 51.9 11.1 95.9 3.4
2017 03 24 24:00 Wet 348.9 0.03 0.762 51.9 11.1 93.7 6.1
2017 03 25 1:00 Wet 346.7 0.05 1.270 51.5 10.8 92.3 8.7
2017 03 25 2:00 Wet 309.4 0.00 0.000 51.1 10.6 90.9 7.5
2017 03 25 3:00 280.8 0.00 0.000 50.7 10.4 93.5 6.8
2017 03 25 4:00 272.5 0.00 0.000 50.7 10.4 93.5 11.3
2017 03 25 5:00 268.7 0.00 0.000 51.2 10.7 91.8 10.2
2017 03 25 6:00 268.6 0.00 0.000 51.5 10.8 92.7 9.8
2017 03 25 7:00 269.1 0.00 0.000 51.9 11.0 93.5 7.0
2017 03 25 8:00 268.9 0.00 0.000 52.6 11.4 94.5 11.3
2017 03 25 9:00 276.3 0.00 0.000 53.3 11.9 95.7 10.8
2017 03 25 10:00 273.8 0.00 0.000 54.5 12.5 95.5 11.0
2017 03 25 11:00 Wet 286.6 0.02 0.508 55.6 13.1 93.1 7.5
2017 03 25 12:00 272.4 0.01 0.254 57.2 14.0 87 7.8
2017 03 25 13:00 265.4 0.00 0.000 59.8 15.4 76.1 9.0
2017 03 25 14:00 266.8 0.01 0.254 57.3 14.0 79.9 8.9
2017 03 25 15:00 275.3 0.05 1.270 58.0 14.5 77.6 10.8
2017 03 25 16:00 Wet 285.5 0.00 0.000 55.4 13.0 86.4 8.0
2017 03 25 17:00 Wet 286.9 0.02 0.508 53.2 11.8 86.6 10.9
2017 03 25 18:00 268.0 0.00 0.000 50.1 10.0 90.7 11.4
2017 03 25 19:00 267.1 0.00 0.000 49.0 9.5 88 8.8
2017 03 25 20:00 267.0 0.00 0.000 48.6 9.2 85.7 6.7
2017 03 25 21:00 267.0 0.00 0.000 47.6 8.7 86.3 7.2
2017 03 25 22:00 266.6 0.00 0.000 47.1 8.4 84.8 7.2
2017 03 25 23:00 266.7 0.00 0.000 46.8 8.2 85.7 6.5
2017 03 25 24:00 267.0 0.00 0.000 46.3 8.0 87.3 6.6
2017 03 26 1:00 267.0 0.00 0.000 46.1 7.8 87 5.9
2017 03 26 2:00 267.7 0.00 0.000 45.6 7.5 87.8 2.8
2017 03 26 3:00 268.0 0.00 0.000 45.4 7.4 89.9 3.1
2017 03 26 4:00 267.7 0.00 0.000 45.3 7.4 89.8 5.3
2017 03 26 5:00 267.4 0.00 0.000 45.4 7.5 89 4.7
2017 03 26 6:00 267.7 0.00 0.000 45.4 7.4 89.8 5.6
2017 03 26 7:00 267.7 0.00 0.000 45.2 7.3 90.4 6.4
2017 03 26 8:00 267.2 0.00 0.000 45.8 7.7 89 4.9
2017 03 26 9:00 265.9 0.00 0.000 48.4 9.1 83.7 4.8
2017 03 26 10:00 265.6 0.00 0.000 54.0 12.2 72.8 2.9
2017 03 26 11:00 264.9 0.00 0.000 55.8 13.2 70.9 7.3
2017 03 26 12:00 264.5 0.00 0.000 56.9 13.9 68.2 8.0
2017 03 26 13:00 264.2 0.00 0.000 60.6 15.9 62.55 7.0
2017 03 26 14:00 263.7 0.00 0.000 62.5 16.9 57.68 7.4
2017 03 26 15:00 263.4 0.00 0.000 63.3 17.4 55.16 6.8
2017 03 26 16:00 263.5 0.00 0.000 63.8 17.7 55.14 7.1
2017 03 26 17:00 263.5 0.00 0.000 62.9 17.2 56.2 6.6
2017 03 26 18:00 263.9 0.00 0.000 61.8 16.6 58.66 4.0
2017 03 26 19:00 264.3 0.00 0.000 59.5 15.3 64.46 3.0
2017 03 26 20:00 264.9 0.00 0.000 57.6 14.2 68.28 3.7
2017 03 26 21:00 264.9 0.00 0.000 56.7 13.7 69.87 4.7
2017 03 26 22:00 264.8 0.00 0.000 57.8 14.3 66.12 4.5
2017 03 26 23:00 264.9 0.00 0.000 57.0 13.9 67.88 1.9
2017 03 26 24:00 265.0 0.00 0.000 56.3 13.5 70.8 3.9
2017 03 27 1:00 Wet 304.6 0.00 0.000 55.3 12.9 76.6 2.9
2017 03 27 2:00 Wet 425.7 0.16 4.064 53.0 11.7 89.2 2.1
2017 03 27 3:00 Wet 397.8 0.17 4.318 52.6 11.4 94.3 9.0
2017 03 27 4:00 Wet 305.3 0.01 0.254 54.6 12.6 85.8 15.5
2017 03 27 5:00 280.7 0.01 0.254 53.6 12.0 91.3 6.1
2017 03 27 6:00 Wet 360.5 0.03 0.762 53.2 11.8 93.5 5.2
2017 03 27 7:00 Wet 385.8 0.12 3.048 53.0 11.6 95.1 10.0
2017 03 27 8:00 Wet 333.6 0.04 1.016 53.0 11.7 94.2 9.8
2017 03 27 9:00 Wet 317.6 0.00 0.000 53.6 12.0 92.6 9.1
2017 03 27 10:00 276.2 0.00 0.000 55.7 13.2 86.9 8.6
2017 03 27 11:00 266.5 0.00 0.000 57.5 14.2 83.9 7.4
2017 03 27 12:00 265.5 0.00 0.000 59.2 15.1 79.3 7.0
2017 03 27 13:00 265.1 0.00 0.000 60.6 15.9 75.8 6.9
2017 03 27 14:00 Wet 284.4 0.00 0.000 60.4 15.8 75.9 7.2
2017 03 27 15:00 275.4 0.00 0.000 61.7 16.5 72.9 7.8
2017 03 27 16:00 264.9 0.00 0.000 60.4 15.8 72.4 9.1
2017 03 27 17:00 264.9 0.00 0.000 60.4 15.8 71.2 9.6
2017 03 27 18:00 265.2 0.00 0.000 57.8 14.3 75.1 9.1
2017 03 27 19:00 265.9 0.00 0.000 55.0 12.8 83.1 8.2
2017 03 27 20:00 266.3 0.00 0.000 53.6 12.0 86.6 6.8
2017 03 27 21:00 266.9 0.00 0.000 52.4 11.3 89.3 9.3
2017 03 27 22:00 267.2 0.00 0.000 51.6 10.9 89.2 7.7
2017 03 27 23:00 267.6 0.00 0.000 51.2 10.7 90.5 5.2
2017 03 27 24:00 267.7 0.00 0.000 50.8 10.5 90.6 5.5
2017 03 28 1:00 269.6 0.00 0.000 49.9 9.9 92.1 3.3
2017 03 28 2:00 274.9 0.00 0.000 50.3 10.2 91.3 3.2
2017 03 28 3:00 Wet 364.4 0.00 0.000 49.9 9.9 94.4 3.9
2017 03 28 4:00 Wet 389.8 0.00 0.000 49.9 10.0 95.1 1.5
2017 03 28 5:00 Wet 397.3 0.00 0.000 49.9 9.9 95.5 3.1
2017 03 28 6:00 Wet 404.1 0.00 0.000 49.9 10.0 95.7 2.0
2017 03 28 7:00 Wet 414.0 0.00 0.000 50.3 10.2 95.5 1.3
2017 03 28 8:00 Wet 392.8 0.00 0.000 50.8 10.4 94.8 3.1
2017 03 28 9:00 Wet 332.3 0.00 0.000 51.9 11.0 92.6 4.8
2017 03 28 10:00 282.6 0.00 0.000 53.0 11.7 89.7 6.8
2017 03 28 11:00 266.5 0.00 0.000 54.6 12.6 85 6.3
2017 03 28 12:00 265.3 0.00 0.000 57.1 13.9 76.4 5.5
2017 03 28 13:00 264.8 0.00 0.000 58.2 14.6 72.3 5.1
2017 03 28 14:00 264.3 0.00 0.000 60.1 15.6 67.95 5.6
2017 03 28 15:00 264.2 0.00 0.000 61.5 16.4 65.16 6.3
2017 03 28 16:00 263.9 0.00 0.000 63.1 17.3 60.78 6.9
2017 03 28 17:00 264.1 0.00 0.000 63.2 17.3 61.42 8.5
2017 03 28 18:00 264.2 0.00 0.000 61.9 16.6 62.66 7.9
2017 03 28 19:00 264.7 0.00 0.000 58.4 14.6 69.79 6.4
2017 03 28 20:00 265.5 0.00 0.000 55.3 13.0 76.2 5.3
2017 03 28 21:00 265.7 0.00 0.000 54.2 12.3 79.4 6.2
2017 03 28 22:00 265.8 0.00 0.000 53.8 12.1 80.9 8.3
2017 03 28 23:00 266.3 0.00 0.000 52.7 11.5 83.5 10.3
2017 03 28 24:00 266.3 0.00 0.000 52.1 11.2 83.1 10.5
2017 03 29 1:00 266.3 0.00 0.000 51.5 10.8 84.3 9.2
2017 03 29 2:00 266.3 0.00 0.000 51.3 10.7 85.7 13.7
2017 03 29 3:00 266.3 0.00 0.000 51.6 10.9 85.2 14.4
2017 03 29 4:00 266.3 0.00 0.000 51.9 11.0 84.6 14.1
2017 03 29 5:00 266.3 0.00 0.000 52.1 11.2 85 14.1
2017 03 29 6:00 266.5 0.00 0.000 52.5 11.4 85.8 10.8
2017 03 29 7:00 277.9 0.01 0.254 52.1 11.2 89.3 10.3
2017 03 29 8:00 267.0 0.01 0.254 53.1 11.7 88.6 13.1
2017 03 29 9:00 266.3 0.00 0.000 55.2 12.9 86 15.2
2017 03 29 10:00 266.3 0.00 0.000 56.8 13.8 84.6 12.8
2017 03 29 11:00 267.1 0.00 0.000 57.7 14.3 84 12.5
2017 03 29 12:00 266.1 0.00 0.000 60.5 15.8 82.2 15.8
2017 03 29 13:00 265.5 0.00 0.000 65.8 18.8 71.8 16.7
2017 03 29 14:00 264.8 0.00 0.000 68.6 20.4 67.21 18.4
2017 03 29 15:00 265.1 0.00 0.000 68.1 20.0 69.29 16.8
2017 03 29 16:00 279.4 0.06 1.524 67.2 19.5 74.7 10.8
2017 03 29 17:00 Wet 295.1 0.02 0.508 65.9 18.8 82.1 9.1
2017 03 29 18:00 266.3 0.01 0.254 67.8 19.9 76.7 10.5
2017 03 29 19:00 266.4 0.00 0.000 66.5 19.1 78.1 12.6
2017 03 29 20:00 Wet 309.0 0.07 1.778 64.5 18.0 84.4 8.8
2017 03 29 21:00 Wet 367.5 0.57 14.480 61.9 16.6 91.2 9.7
2017 03 29 22:00 Wet 321.5 0.04 1.016 61.8 16.6 91.2 7.5
2017 03 29 23:00 Wet 293.7 0.00 0.000 61.5 16.4 91.3 6.5
2017 03 29 24:00 Wet 291.9 0.05 1.270 61.0 16.1 92.9 7.5
2017 03 30 1:00 Wet 290.0 0.00 0.000 61.2 16.2 82.8 11.3
2017 03 30 2:00 269.4 0.00 0.000 59.7 15.4 88.9 6.3
2017 03 30 3:00 271.9 0.01 0.254 58.7 14.8 92.3 4.3
2017 03 30 4:00 279.6 0.00 0.000 57.9 14.4 92.9 4.0
2017 03 30 5:00 Wet 319.7 0.00 0.000 56.4 13.6 95.2 3.2
2017 03 30 6:00 Wet 301.3 0.00 0.000 55.5 13.1 89.3 6.1
2017 03 30 7:00 270.7 0.00 0.000 53.3 11.8 87.8 6.5
2017 03 30 8:00 267.0 0.00 0.000 51.7 11.0 81.7 9.2
2017 03 30 9:00 266.5 0.00 0.000 50.2 10.1 81.3 10.7
2017 03 30 10:00 265.9 0.00 0.000 51.0 10.6 75.9 11.1
2017 03 30 11:00 265.3 0.00 0.000 51.5 10.8 69.95 12.6
2017 03 30 12:00 265.0 0.00 0.000 49.5 9.7 70 13.0
2017 03 30 13:00 264.9 0.00 0.000 49.7 9.8 68.8 11.5
2017 03 30 14:00 265.0 0.00 0.000 49.6 9.8 69.03 11.7
2017 03 30 15:00 265.0 0.00 0.000 49.0 9.4 70.8 13.0
2017 03 30 16:00 265.2 0.00 0.000 48.7 9.3 75 12.0
2017 03 30 17:00 265.7 0.00 0.000 48.2 9.0 76.7 11.7
2017 03 30 18:00 265.7 0.00 0.000 47.1 8.4 79.2 10.4
2017 03 30 19:00 267.0 0.00 0.000 46.2 7.9 84.7 8.9
2017 03 30 20:00 271.6 0.00 0.000 45.4 7.5 90.4 8.6
2017 03 30 21:00 267.9 0.00 0.000 45.9 7.7 88.5 8.9
2017 03 30 22:00 267.7 0.00 0.000 46.1 7.8 89.8 8.7
2017 03 30 23:00 268.4 0.00 0.000 46.5 8.1 91.5 8.6
2017 03 30 24:00 Wet 373.5 0.01 0.254 46.4 8.0 92.8 8.4
2017 03 31 1:00 Wet 375.6 0.00 0.000 46.0 7.8 93.5 9.0
2017 03 31 2:00 Wet 331.3 0.00 0.000 45.5 7.5 93.9 9.3
2017 03 31 3:00 Wet 375.1 0.00 0.000 45.0 7.2 94.7 8.8
2017 03 31 4:00 Wet 373.4 0.00 0.000 44.9 7.2 94.8 8.0
2017 03 31 5:00 Wet 371.1 0.00 0.000 44.9 7.2 93.6 7.9
2017 03 31 6:00 Wet 369.4 0.00 0.000 44.7 7.0 93.1 8.4
2017 03 31 7:00 Wet 285.0 0.00 0.000 44.5 7.0 90.6 6.6
2017 03 31 8:00 267.5 0.00 0.000 45.5 7.5 88 7.1
2017 03 31 9:00 267.1 0.00 0.000 45.9 7.7 85.3 8.4
2017 03 31 10:00 267.0 0.00 0.000 46.2 7.9 85.8 7.7
2017 03 31 11:00 266.2 0.00 0.000 47.2 8.5 82 7.6
2017 03 31 12:00 265.8 0.00 0.000 48.4 9.1 80.8 7.2
2017 03 31 13:00 265.6 0.00 0.000 49.4 9.7 80.1 7.4
2017 03 31 14:00 265.6 0.00 0.000 49.6 9.8 79.1 7.3
2017 03 31 15:00 265.6 0.00 0.000 50.0 10.0 77.8 7.5
2017 03 31 16:00 265.6 0.00 0.000 49.2 9.6 79.7 6.5
2017 03 31 17:00 265.6 0.00 0.000 48.2 9.0 80.2 6.9
2017 03 31 18:00 265.7 0.00 0.000 47.9 8.9 79.3 4.7
2017 03 31 19:00 266.0 0.00 0.000 47.7 8.7 79.6 4.4
2017 03 31 20:00 266.3 0.00 0.000 47.3 8.5 80.5 5.2
2017 03 31 21:00 266.3 0.00 0.000 46.6 8.1 81.4 5.4
2017 03 31 22:00 266.4 0.00 0.000 45.9 7.7 82.8 6.7
2017 03 31 23:00 266.4 0.00 0.000 45.4 7.5 84.4 7.0
2017 03 31 24:00 266.4 0.00 0.000 44.8 7.1 85.9 6.0
2017 04 01 1:00 266.4 0.00 0.000 44.5 6.9 86.1 6.6
2017 04 01 2:00 266.5 0.00 0.000 44.3 6.8 87.4 5.7
2017 04 01 3:00 266.5 0.00 0.000 44.3 6.8 87.3 5.8
2017 04 01 4:00 266.7 0.00 0.000 44.2 6.8 87.5 6.4
2017 04 01 5:00 267.0 0.00 0.000 43.9 6.6 88.6 7.1
2017 04 01 6:00 267.1 0.00 0.000 43.6 6.4 89.8 6.2
2017 04 01 7:00 267.5 0.00 0.000 43.1 6.2 91.2 6.4
2017 04 01 8:00 267.3 0.00 0.000 43.5 6.4 90.3 6.6
2017 04 01 9:00 266.5 0.00 0.000 44.2 6.8 88.7 5.6
2017 04 01 10:00 266.3 0.00 0.000 44.9 7.2 87.3 5.9
2017 04 01 11:00 265.6 0.00 0.000 46.7 8.2 83.6 6.0
2017 04 01 12:00 265.0 0.00 0.000 49.7 9.8 78.7 5.9
2017 04 01 13:00 264.5 0.00 0.000 55.3 12.9 69.87 4.3
2017 04 01 14:00 264.2 0.00 0.000 58.4 14.7 65.97 5.2
2017 04 01 15:00 264.0 0.00 0.000 61.0 16.1 61.56 6.4
2017 04 01 16:00 263.6 0.00 0.000 62.8 17.1 58.47 6.4
2017 04 01 17:00 263.9 0.00 0.000 62.5 16.9 58.19 7.3
2017 04 01 18:00 264.2 0.00 0.000 60.9 16.1 61.88 6.2
2017 04 01 19:00 264.9 0.00 0.000 57.7 14.3 67.61 4.8
2017 04 01 20:00 265.3 0.00 0.000 55.5 13.1 71 4.4
2017 04 01 21:00 265.2 0.00 0.000 54.9 12.7 70 4.9
2017 04 01 22:00 265.1 0.00 0.000 53.6 12.0 70.6 5.3
2017 04 01 23:00 265.5 0.00 0.000 52.3 11.3 74.1 7.5
2017 04 01 24:00 265.6 0.00 0.000 50.6 10.3 76.4 6.1
2017 04 02 1:00 265.7 0.00 0.000 49.4 9.7 76.5 5.8
2017 04 02 2:00 265.7 0.00 0.000 48.8 9.3 76.5 4.9
2017 04 02 3:00 265.7 0.00 0.000 48.1 8.9 78.2 5.1
2017 04 02 4:00 265.7 0.00 0.000 48.5 9.1 77.6 6.3
2017 04 02 5:00 265.7 0.00 0.000 48.5 9.2 76.9 7.3
2017 04 02 6:00 265.7 0.00 0.000 47.8 8.8 78.5 8.5
2017 04 02 7:00 265.7 0.00 0.000 47.5 8.6 80.4 6.0
2017 04 02 8:00 265.6 0.00 0.000 48.7 9.3 78.6 3.5
2017 04 02 9:00 265.0 0.00 0.000 51.4 10.8 75 6.0
2017 04 02 10:00 264.8 0.00 0.000 56.3 13.5 65.49 9.3
2017 04 02 11:00 264.3 0.00 0.000 59.8 15.5 60.86 10.0
2017 04 02 12:00 263.8 0.00 0.000 65.1 18.4 54.02 8.8
2017 04 02 13:00 263.5 0.00 0.000 68.7 20.4 49.28 13.2
2017 04 02 14:00 263.4 0.00 0.000 69.9 21.1 48.09 12.7
2017 04 02 15:00 263.4 0.00 0.000 68.1 20.1 49.87 12.0
2017 04 02 16:00 263.4 0.00 0.000 67.1 19.5 51.01 9.8
2017 04 02 17:00 263.4 0.00 0.000 65.7 18.7 52.98 7.6
2017 04 02 18:00 263.8 0.00 0.000 63.9 17.7 56.68 9.4
2017 04 02 19:00 Wet 285.0 0.01 0.254 60.0 15.6 70.5 5.7
2017 04 02 20:00 270.8 0.00 0.000 57.0 13.9 78.3 7.6
2017 04 02 21:00 266.3 0.00 0.000 55.5 13.0 81.3 5.1
2017 04 02 22:00 266.3 0.00 0.000 55.4 13.0 81.7 6.3
2017 04 02 23:00 266.6 0.00 0.000 54.7 12.6 83.6 5.3
2017 04 02 24:00 266.3 0.00 0.000 55.4 13.0 81.9 7.6
2017 04 03 1:00 268.0 0.00 0.000 54.6 12.5 87.6 8.1
2017 04 03 2:00 268.4 0.00 0.000 54.0 12.2 91 7.7
2017 04 03 3:00 269.7 0.00 0.000 53.9 12.1 91.9 6.3
2017 04 03 4:00 277.1 0.01 0.254 53.8 12.1 94 6.4
2017 04 03 5:00 Wet 310.2 0.01 0.254 54.0 12.2 96.3 6.8
2017 04 03 6:00 Wet 326.3 0.00 0.000 54.6 12.6 96.8 6.1
2017 04 03 7:00 Wet 328.8 0.00 0.000 55.3 12.9 96.5 6.5
2017 04 03 8:00 Wet 316.6 0.01 0.254 55.9 13.3 97.2 6.2
2017 04 03 9:00 Wet 300.0 0.00 0.000 56.7 13.7 94.6 9.1
2017 04 03 10:00 267.4 0.00 0.000 58.5 14.7 86.7 9.7
2017 04 03 11:00 266.3 0.00 0.000 60.3 15.7 80.5 10.4
2017 04 03 12:00 266.0 0.00 0.000 61.8 16.5 74.9 9.2
2017 04 03 13:00 265.1 0.00 0.000 64.0 17.8 62.86 12.5
2017 04 03 14:00 264.5 0.00 0.000 64.8 18.2 58.73 12.9
2017 04 03 15:00 276.2 0.02 0.508 62.7 17.1 67.32 14.1
2017 04 03 16:00 265.0 0.00 0.000 60.3 15.7 71.3 15.2
2017 04 03 17:00 265.4 0.00 0.000 59.3 15.1 72.8 15.1
2017 04 03 18:00 265.4 0.00 0.000 59.8 15.4 70.8 13.2
2017 04 03 19:00 265.5 0.00 0.000 59.1 15.0 73.2 10.1
2017 04 03 20:00 265.5 0.00 0.000 59.4 15.2 72.1 11.1
2017 04 03 21:00 265.8 0.00 0.000 58.5 14.8 74.1 8.2
2017 04 03 22:00 266.3 0.00 0.000 57.4 14.1 76.1 7.8
2017 04 03 23:00 266.5 0.00 0.000 55.5 13.1 79.2 7.5
2017 04 03 24:00 267.7 0.00 0.000 54.0 12.2 83.9 6.6
2017 04 04 1:00 270.5 0.00 0.000 52.7 11.5 86.8 5.1
2017 04 04 2:00 273.0 0.00 0.000 51.9 11.1 86.3 4.6
2017 04 04 3:00 272.3 0.00 0.000 51.2 10.7 85.6 3.7
2017 04 04 4:00 Wet 293.2 0.00 0.000 49.0 9.4 90.1 3.3
2017 04 04 5:00 Wet 326.7 0.00 0.000 48.8 9.3 92 3.5
2017 04 04 6:00 Wet 395.7 0.00 0.000 48.1 8.9 93.9 1.6
2017 04 04 7:00 Wet 430.6 0.00 0.000 49.3 9.6 91.2 1.7
2017 04 04 8:00 282.1 0.00 0.000 56.6 13.7 75.4 3.8
2017 04 04 9:00 265.0 0.00 0.000 61.7 16.5 67.2 3.7
2017 04 04 10:00 264.8 0.00 0.000 63.7 17.6 63.85 4.6
2017 04 04 11:00 264.1 0.00 0.000 65.2 18.4 56.22 4.5
2017 04 04 12:00 263.2 0.00 0.000 67.9 20.0 47.66 5.0
2017 04 04 13:00 262.9 0.00 0.000 67.7 19.8 48.26 5.6
2017 04 04 14:00 263.0 0.00 0.000 66.8 19.3 49.99 4.4
2017 04 04 15:00 262.2 0.00 0.000 69.6 20.9 43.87 6.2
2017 04 04 16:00 262.1 0.00 0.000 70.8 21.6 41.45 6.4
2017 04 04 17:00 262.1 0.00 0.000 71.1 21.7 41.84 8.6
2017 04 04 18:00 262.7 0.00 0.000 69.3 20.7 45.9 8.2
2017 04 04 19:00 262.9 0.00 0.000 67.9 19.9 49.17 9.7
2017 04 04 20:00 263.4 0.00 0.000 67.3 19.6 55.34 13.4
2017 04 04 21:00 264.0 0.00 0.000 66.6 19.2 57.57 15.6
2017 04 04 22:00 Wet 401.6 0.82 20.830 56.9 13.8 85.6 10.0
2017 04 04 23:00 Wet 419.3 0.28 7.110 53.0 11.7 98.4 4.9
2017 04 04 24:00 Wet 354.0 0.11 2.794 52.9 11.6 99.4 6.2
2017 04 05 1:00 Wet 313.7 0.02 0.508 53.2 11.8 93.2 9.5
2017 04 05 2:00 276.8 0.00 0.000 53.2 11.8 89.8 10.8
2017 04 05 3:00 267.7 0.00 0.000 52.7 11.5 88.1 7.8
2017 04 05 4:00 267.6 0.00 0.000 52.6 11.4 86.2 9.4
2017 04 05 5:00 268.1 0.00 0.000 52.1 11.1 87.6 9.0
2017 04 05 6:00 278.1 0.00 0.000 50.8 10.4 91.7 5.3
2017 04 05 7:00 273.7 0.00 0.000 51.2 10.7 92.6 4.9
2017 04 05 8:00 267.4 0.00 0.000 52.2 11.2 87.5 6.8
2017 04 05 9:00 266.3 0.00 0.000 51.4 10.8 80 10.2
2017 04 05 10:00 265.6 0.00 0.000 53.5 11.9 73.3 8.4
2017 04 05 11:00 265.1 0.00 0.000 53.7 12.0 71.8 12.3
2017 04 05 12:00 279.6 0.01 0.254 50.2 10.1 84 10.9
2017 04 05 13:00 Wet 294.0 0.00 0.000 46.3 8.0 88.2 15.9
2017 04 05 14:00 Wet 292.6 0.00 0.000 45.0 7.2 81.8 16.9
2017 04 05 15:00 269.1 0.00 0.000 43.5 6.4 78 16.7
2017 04 05 16:00 271.0 0.00 0.000 41.5 5.3 82 17.0
2017 04 05 17:00 Wet 320.0 0.01 0.254 40.8 4.9 84.3 15.1
2017 04 05 18:00 269.3 0.00 0.000 41.8 5.4 80.4 15.0
2017 04 05 19:00 Wet 320.9 0.00 0.000 41.4 5.2 84 15.4
2017 04 05 20:00 Wet 293.2 0.00 0.000 41.8 5.4 81.9 16.4
2017 04 05 21:00 Wet 332.2 0.00 0.000 41.3 5.2 82.5 15.5
2017 04 05 22:00 Wet 310.6 0.00 0.000 41.0 5.0 83.3 13.5
2017 04 05 23:00 Wet 369.0 0.02 0.508 40.6 4.8 85.2 13.6
2017 04 05 24:00 266.9 0.00 0.000 40.8 4.9 79.3 11.6
2017 04 06 1:00 266.0 0.00 0.000 40.5 4.7 75.4 10.1
2017 04 06 2:00 265.8 0.00 0.000 40.1 4.5 74.3 9.8
2017 04 06 3:00 265.8 0.00 0.000 39.8 4.3 73.7 8.8
2017 04 06 4:00 265.8 0.00 0.000 39.4 4.1 75.4 10.2
2017 04 06 5:00 265.8 0.00 0.000 40.5 4.7 74.9 10.4
2017 04 06 6:00 265.8 0.00 0.000 40.4 4.7 76 8.7
2017 04 06 7:00 265.6 0.00 0.000 40.9 4.9 76.8 9.8
2017 04 06 8:00 265.1 0.00 0.000 44.2 6.8 69.21 11.3
2017 04 06 9:00 264.7 0.00 0.000 47.5 8.6 62.32 12.9
2017 04 06 10:00 264.4 0.00 0.000 50.1 10.0 55.68 16.9
2017 04 06 11:00 263.9 0.00 0.000 52.0 11.1 50.39 18.5
2017 04 06 12:00 263.2 0.00 0.000 53.3 11.8 41.98 17.0
2017 04 06 13:00 262.8 0.00 0.000 54.1 12.3 37.9 16.2
2017 04 06 14:00 262.4 0.00 0.000 55.5 13.0 37.61 14.5
2017 04 06 15:00 262.1 0.00 0.000 55.5 13.1 34.89 14.2
2017 04 06 16:00 261.7 0.00 0.000 54.4 12.4 32.51 14.1
2017 04 06 17:00 261.6 0.00 0.000 55.0 12.8 31.58 13.3
2017 04 06 18:00 261.5 0.00 0.000 54.3 12.4 30.1 13.0
2017 04 06 19:00 261.8 0.00 0.000 51.9 11.1 33.52 9.4
2017 04 06 20:00 262.3 0.00 0.000 48.1 8.9 43.3 5.2
2017 04 06 21:00 263.0 0.00 0.000 45.8 7.7 48.87 4.3
2017 04 06 22:00 263.1 0.00 0.000 44.4 6.9 53 4.5
2017 04 06 23:00 263.5 0.00 0.000 42.7 6.0 59.73 4.6
2017 04 06 24:00 263.9 0.00 0.000 40.9 5.0 64.2 3.3
2017 04 07 1:00 264.9 0.00 0.000 38.2 3.4 71.8 2.8
2017 04 07 2:00 264.7 0.00 0.000 39.0 3.9 69.13 4.8
2017 04 07 3:00 264.9 0.00 0.000 37.7 3.1 72 4.3
2017 04 07 4:00 265.2 0.00 0.000 37.3 3.0 71.9 4.2
2017 04 07 5:00 265.4 0.00 0.000 35.6 2.0 75.9 3.8
2017 04 07 6:00 266.3 0.00 0.000 34.7 1.5 77.6 2.7
2017 04 07 7:00 264.2 0.00 0.000 38.3 3.5 70.3 3.2
2017 04 07 8:00 263.7 0.00 0.000 43.4 6.3 60.86 5.0
2017 04 07 9:00 263.4 0.00 0.000 47.7 8.7 51.55 5.7
2017 04 07 10:00 263.1 0.00 0.000 50.7 10.4 43.34 7.2
2017 04 07 11:00 262.8 0.00 0.000 53.2 11.8 38.15 6.5
2017 04 07 12:00 262.1 0.00 0.000 55.9 13.3 32.84 5.6
2017 04 07 13:00 261.5 0.00 0.000 57.4 14.1 30.01 6.5
2017 04 07 14:00 260.9 0.00 0.000 59.7 15.4 28.58 5.0
2017 04 07 15:00 260.3 0.00 0.000 61.4 16.3 25.28 4.3
2017 04 07 16:00 259.9 0.00 0.000 63.4 17.4 24.08 3.6
2017 04 07 17:00 259.6 0.00 0.000 63.5 17.5 22.09 2.7
2017 04 07 18:00 259.9 0.00 0.000 62.6 17.0 25.38 2.0
2017 04 07 19:00 260.8 0.00 0.000 57.6 14.2 29.71 2.5
2017 04 07 20:00 261.6 0.00 0.000 52.4 11.3 39.93 0.8
2017 04 07 21:00 262.6 0.00 0.000 48.7 9.3 52.68 0.7
2017 04 07 22:00 262.5 0.00 0.000 50.4 10.2 41.21 1.7
2017 04 07 23:00 262.3 0.00 0.000 50.8 10.5 37.35 1.7
2017 04 07 24:00 262.3 0.00 0.000 50.7 10.4 36.97 4.0
2017 04 08 1:00 262.2 0.00 0.000 49.9 10.0 37.96 3.4
2017 04 08 2:00 262.3 0.00 0.000 49.3 9.6 40.49 4.5
2017 04 08 3:00 262.3 0.00 0.000 48.7 9.3 42.85 3.3
2017 04 08 4:00 262.3 0.00 0.000 47.0 8.3 47.22 3.6
2017 04 08 5:00 262.8 0.00 0.000 46.0 7.8 51.05 3.9
2017 04 08 6:00 263.0 0.00 0.000 46.2 7.9 53.08 6.3
2017 04 08 7:00 262.5 0.00 0.000 47.3 8.5 54.31 7.8
2017 04 08 8:00 262.3 0.00 0.000 51.5 10.9 52.74 8.8
2017 04 08 9:00 262.5 0.00 0.000 57.4 14.1 49.87 11.3
2017 04 08 10:00 262.9 0.00 0.000 62.3 16.8 47.18 12.3
2017 04 08 11:00 262.6 0.00 0.000 65.8 18.8 44.93 13.1
2017 04 08 12:00 262.1 0.00 0.000 68.9 20.5 41.15 15.3
2017 04 08 13:00 261.8 0.00 0.000 71.5 22.0 37.05 15.2
2017 04 08 14:00 261.4 0.00 0.000 72.3 22.4 33.18 15.7
2017 04 08 15:00 261.2 0.00 0.000 72.9 22.7 32.93 14.8
2017 04 08 16:00 260.8 0.00 0.000 72.9 22.7 31.92 17.5
2017 04 08 17:00 261.1 0.00 0.000 71.9 22.2 33.72 16.6
2017 04 08 18:00 261.4 0.00 0.000 70.8 21.6 36.49 15.4
2017 04 08 19:00 261.4 0.00 0.000 68.8 20.5 36.76 13.2
2017 04 08 20:00 261.4 0.00 0.000 66.8 19.3 39.84 12.2
2017 04 08 21:00 261.7 0.00 0.000 65.6 18.6 42.77 12.7
2017 04 08 22:00 262.1 0.00 0.000 64.2 17.9 46.36 11.2
2017 04 08 23:00 262.2 0.00 0.000 62.9 17.1 50.29 10.5
2017 04 08 24:00 262.7 0.00 0.000 61.9 16.6 53.63 9.8
2017 04 09 1:00 262.8 0.00 0.000 61.0 16.1 56.7 9.2
2017 04 09 2:00 262.9 0.00 0.000 60.0 15.6 59.69 9.3
2017 04 09 3:00 263.5 0.00 0.000 58.4 14.7 64.66 9.2
2017 04 09 4:00 263.6 0.00 0.000 57.7 14.3 68.09 8.3
2017 04 09 5:00 263.9 0.00 0.000 57.6 14.2 70.8 9.4
2017 04 09 6:00 264.3 0.00 0.000 57.4 14.1 73.1 10.2
2017 04 09 7:00 264.2 0.00 0.000 58.3 14.6 73.3 11.5
2017 04 09 8:00 263.7 0.00 0.000 61.4 16.3 69.6 14.6
2017 04 09 9:00 263.9 0.00 0.000 63.8 17.7 67.38 16.5
2017 04 09 10:00 264.1 0.00 0.000 66.6 19.2 64.33 16.4
2017 04 09 11:00 263.8 0.00 0.000 69.7 21.0 60.06 16.1
2017 04 09 12:00 263.4 0.00 0.000 71.8 22.1 56.61 16.7
2017 04 09 13:00 263.4 0.00 0.000 71.9 22.2 56.66 18.3
2017 04 09 14:00 263.3 0.00 0.000 72.4 22.5 55.71 17.4
2017 04 09 15:00 263.0 0.00 0.000 72.6 22.6 54.87 18.6
2017 04 09 16:00 262.7 0.00 0.000 72.8 22.7 54.86 17.8
2017 04 09 17:00 262.9 0.00 0.000 71.9 22.1 56.18 18.8
2017 04 09 18:00 263.4 0.00 0.000 69.5 20.8 59.21 18.0
2017 04 09 19:00 263.4 0.00 0.000 68.6 20.4 61.2 14.5
2017 04 09 20:00 264.0 0.00 0.000 67.0 19.4 65.79 7.5
2017 04 09 21:00 264.2 0.00 0.000 65.5 18.6 69.51 5.1
2017 04 09 22:00 264.2 0.00 0.000 65.7 18.7 66.04 7.7
2017 04 09 23:00 264.1 0.00 0.000 66.2 19.0 61.95 11.5
2017 04 09 24:00 264.1 0.00 0.000 65.7 18.7 63.23 13.8
2017 04 10 1:00 264.2 0.00 0.000 64.9 18.3 66.12 10.9
2017 04 10 2:00 264.3 0.00 0.000 63.2 17.3 70.7 8.2
2017 04 10 3:00 264.8 0.00 0.000 62.2 16.8 73.3 8.1
2017 04 10 4:00 264.9 0.00 0.000 61.9 16.6 76.4 7.7
2017 04 10 5:00 265.2 0.00 0.000 61.9 16.6 78.4 9.0
2017 04 10 6:00 265.5 0.00 0.000 62.0 16.7 79.4 9.1
2017 04 10 7:00 265.5 0.00 0.000 62.5 16.9 80.6 9.7
2017 04 10 8:00 265.3 0.00 0.000 63.2 17.3 80.3 9.4
2017 04 10 9:00 265.0 0.00 0.000 64.0 17.8 78.8 10.0
2017 04 10 10:00 264.8 0.00 0.000 65.7 18.7 75.8 11.4
2017 04 10 11:00 264.5 0.00 0.000 67.7 19.8 72.4 11.8
2017 04 10 12:00 264.4 0.00 0.000 69.0 20.6 70.2 10.2
2017 04 10 13:00 264.1 0.00 0.000 70.9 21.6 67.44 10.1
2017 04 10 14:00 264.1 0.00 0.000 71.9 22.1 66.06 10.1
2017 04 10 15:00 264.2 0.00 0.000 71.1 21.7 67.05 7.9
2017 04 10 16:00 264.8 0.00 0.000 69.8 21.0 69.88 9.2
2017 04 10 17:00 264.3 0.00 0.000 70.8 21.5 62.28 7.7
2017 04 10 18:00 262.9 0.00 0.000 70.2 21.2 42.61 7.4
2017 04 10 19:00 262.3 0.00 0.000 67.3 19.6 36.34 4.8
2017 04 10 20:00 262.2 0.00 0.000 64.7 18.2 32.32 3.9
2017 04 10 21:00 262.7 0.00 0.000 60.3 15.7 41.94 3.9
2017 04 10 22:00 262.9 0.00 0.000 59.4 15.2 38.34 2.8
2017 04 10 23:00 262.9 0.00 0.000 56.5 13.6 44.63 3.8
2017 04 10 24:00 262.9 0.00 0.000 57.3 14.1 43.68 6.0
2017 04 11 1:00 262.9 0.00 0.000 54.0 12.2 52.92 4.7
2017 04 11 2:00 263.4 0.00 0.000 51.5 10.9 61.93 6.3
2017 04 11 3:00 264.0 0.00 0.000 48.1 9.0 71.5 5.4
2017 04 11 4:00 265.8 0.00 0.000 44.8 7.1 79.7 3.5
2017 04 11 5:00 265.8 0.00 0.000 44.8 7.1 82.6 6.5
2017 04 11 6:00 267.0 0.00 0.000 43.8 6.6 85.5 4.4
2017 04 11 7:00 268.4 0.00 0.000 43.4 6.3 87.8 4.2
2017 04 11 8:00 265.9 0.00 0.000 44.8 7.1 87.7 5.5
2017 04 11 9:00 264.9 0.00 0.000 46.2 7.9 85.8 5.7
2017 04 11 10:00 264.4 0.00 0.000 48.5 9.2 80.9 5.2
2017 04 11 11:00 263.7 0.00 0.000 52.7 11.5 71.8 3.5
2017 04 11 12:00 263.5 0.00 0.000 56.2 13.4 63.85 5.0
2017 04 11 13:00 262.9 0.00 0.000 59.1 15.1 56.45 4.2
2017 04 11 14:00 262.4 0.00 0.000 61.1 16.2 49.68 3.5
2017 04 11 15:00 261.6 0.00 0.000 63.6 17.6 40.26 3.1
2017 04 11 16:00 261.4 0.00 0.000 65.1 18.4 41.37 3.3
2017 04 11 17:00 261.4 0.00 0.000 66.6 19.2 37.61 3.4
2017 04 11 18:00 261.4 0.00 0.000 65.8 18.8 38.82 2.5
2017 04 11 19:00 262.3 0.00 0.000 60.5 15.9 45.35 3.0
2017 04 11 20:00 262.9 0.00 0.000 56.2 13.5 52.25 3.5
2017 04 11 21:00 263.6 0.00 0.000 53.6 12.0 55.76 4.1
2017 04 11 22:00 263.6 0.00 0.000 52.8 11.6 56.51 3.7
2017 04 11 23:00 263.7 0.00 0.000 51.4 10.8 58.79 2.4
2017 04 11 24:00 264.4 0.00 0.000 48.0 8.9 67.89 1.5
2017 04 12 1:00 264.4 0.00 0.000 49.3 9.6 65.94 3.4
2017 04 12 2:00 265.0 0.00 0.000 48.4 9.1 73.8 3.2
2017 04 12 3:00 265.6 0.00 0.000 48.5 9.1 77.3 4.1
2017 04 12 4:00 265.9 0.00 0.000 48.2 9.0 78.2 3.4
2017 04 12 5:00 268.4 0.00 0.000 47.7 8.7 78.7 1.9
2017 04 12 6:00 268.2 0.00 0.000 46.9 8.3 79.1 2.3
2017 04 12 7:00 265.0 0.00 0.000 49.0 9.5 76.9 4.5
2017 04 12 8:00 264.4 0.00 0.000 52.6 11.4 75.6 6.9
2017 04 12 9:00 264.3 0.00 0.000 56.1 13.4 70.2 7.4
2017 04 12 10:00 264.2 0.00 0.000 60.2 15.6 62.6 6.3
2017 04 12 11:00 263.6 0.00 0.000 63.5 17.5 53.41 6.9
2017 04 12 12:00 262.8 0.00 0.000 66.3 19.0 46.09 6.6
2017 04 12 13:00 262.2 0.00 0.000 69.2 20.7 43.53 5.1
2017 04 12 14:00 261.6 0.00 0.000 71.0 21.6 37.82 6.6
2017 04 12 15:00 261.0 0.00 0.000 72.7 22.6 32.66 6.2
2017 04 12 16:00 260.7 0.00 0.000 73.4 23.0 31.39 6.0
2017 04 12 17:00 260.7 0.00 0.000 72.8 22.6 30.79 5.6
2017 04 12 18:00 260.7 0.00 0.000 71.3 21.8 32.67 5.6
2017 04 12 19:00 261.5 0.00 0.000 67.4 19.7 37.95 5.3
2017 04 12 20:00 262.1 0.00 0.000 63.2 17.3 43.06 4.9
2017 04 12 21:00 262.0 0.00 0.000 63.4 17.4 40.59 7.5
2017 04 12 22:00 262.2 0.00 0.000 61.8 16.6 45.56 7.3
2017 04 12 23:00 262.2 0.00 0.000 62.2 16.8 46.59 9.2
2017 04 12 24:00 262.2 0.00 0.000 61.5 16.4 51.13 8.0
2017 04 13 1:00 262.8 0.00 0.000 60.9 16.1 57.69 8.9
2017 04 13 2:00 263.2 0.00 0.000 59.2 15.1 63.29 5.5
2017 04 13 3:00 263.8 0.00 0.000 57.3 14.1 68.16 2.2
2017 04 13 4:00 264.5 0.00 0.000 55.0 12.8 74.3 1.4
2017 04 13 5:00 265.1 0.00 0.000 54.0 12.2 77.4 0.7
2017 04 13 6:00 265.5 0.00 0.000 54.8 12.7 76.4 0.9
2017 04 13 7:00 264.9 0.00 0.000 56.4 13.5 74.3 0.6
2017 04 13 8:00 263.8 0.00 0.000 62.4 16.9 67.03 2.1
2017 04 13 9:00 263.6 0.00 0.000 66.9 19.4 64.35 4.6
2017 04 13 10:00 263.7 0.00 0.000 69.2 20.6 63.12 6.5
2017 04 13 11:00 263.4 0.00 0.000 71.0 21.6 58.45 5.7
2017 04 13 12:00 262.8 0.00 0.000 72.9 22.7 52.35 5.7
2017 04 13 13:00 262.3 0.00 0.000 74.9 23.8 47.51 4.7
2017 04 13 14:00 261.9 0.00 0.000 76.3 24.6 44.54 6.2
2017 04 13 15:00 261.5 0.00 0.000 76.9 25.0 41.14 6.1
2017 04 13 16:00 261.5 0.00 0.000 76.8 24.9 40.43 5.9
2017 04 13 17:00 261.9 0.00 0.000 75.8 24.4 42.46 6.2
2017 04 13 18:00 262.0 0.00 0.000 74.6 23.6 44.11 5.4
2017 04 13 19:00 262.7 0.00 0.000 71.9 22.1 48.35 4.0
2017 04 13 20:00 263.0 0.00 0.000 69.0 20.6 52.99 2.9
2017 04 13 21:00 263.5 0.00 0.000 67.7 19.9 56.19 2.6
2017 04 13 22:00 263.5 0.00 0.000 66.4 19.1 60.04 3.6
2017 04 13 23:00 263.5 0.00 0.000 66.4 19.1 58.66 4.3
2017 04 13 24:00 263.7 0.00 0.000 64.3 18.0 63.05 3.2
2017 04 14 1:00 264.2 0.00 0.000 63.7 17.6 66.07 2.8
2017 04 14 2:00 264.2 0.00 0.000 62.5 16.9 69.1 2.8
2017 04 14 3:00 264.6 0.00 0.000 62.0 16.6 72.1 2.3
2017 04 14 4:00 265.0 0.00 0.000 61.2 16.2 75.2 2.6
2017 04 14 5:00 265.6 0.00 0.000 60.3 15.7 78.1 2.8
2017 04 14 6:00 265.6 0.00 0.000 59.9 15.5 80.2 4.1
2017 04 14 7:00 265.1 0.00 0.000 62.4 16.9 78.2 5.4
2017 04 14 8:00 264.7 0.00 0.000 65.5 18.6 73.9 5.8
2017 04 14 9:00 264.2 0.00 0.000 69.0 20.6 67.27 6.0
2017 04 14 10:00 263.9 0.00 0.000 71.7 22.1 59.63 7.8
2017 04 14 11:00 263.3 0.00 0.000 74.1 23.4 50.74 9.7
2017 04 14 12:00 262.7 0.00 0.000 76.1 24.5 45.5 9.9
2017 04 14 13:00 262.2 0.00 0.000 76.0 24.5 43.65 10.8
2017 04 14 14:00 262.1 0.00 0.000 75.8 24.3 44.39 10.3
2017 04 14 15:00 262.7 0.00 0.000 73.5 23.1 52.05 9.8
2017 04 14 16:00 262.3 0.00 0.000 74.2 23.4 46.13 11.1
2017 04 14 17:00 262.3 0.00 0.000 74.8 23.8 46.24 9.9
2017 04 14 18:00 262.6 0.00 0.000 74.3 23.5 45.59 9.9
2017 04 14 19:00 262.7 0.00 0.000 72.8 22.7 46.04 9.2
2017 04 14 20:00 262.8 0.00 0.000 70.0 21.1 51.45 7.1
2017 04 14 21:00 262.8 0.00 0.000 69.0 20.5 54.09 8.7
2017 04 14 22:00 263.2 0.00 0.000 67.7 19.8 57.16 7.8
2017 04 14 23:00 263.5 0.00 0.000 66.9 19.4 60.55 7.2
2017 04 14 24:00 263.5 0.00 0.000 65.2 18.5 64.77 7.0
2017 04 15 1:00 264.1 0.00 0.000 64.2 17.9 66.02 7.4
2017 04 15 2:00 264.2 0.00 0.000 63.8 17.7 65.85 7.5
2017 04 15 3:00 264.2 0.00 0.000 62.5 17.0 68.15 6.6
2017 04 15 4:00 264.2 0.00 0.000 61.0 16.1 71.5 5.5
2017 04 15 5:00 264.8 0.00 0.000 59.8 15.4 75.1 5.5
2017 04 15 6:00 265.3 0.00 0.000 58.3 14.6 79.2 5.6
2017 04 15 7:00 264.7 0.00 0.000 59.8 15.4 77.6 8.3
2017 04 15 8:00 264.1 0.00 0.000 64.0 17.8 70.1 10.4
2017 04 15 9:00 263.6 0.00 0.000 67.9 20.0 62.78 12.3
2017 04 15 10:00 263.5 0.00 0.000 71.0 21.7 58.2 13.5
2017 04 15 11:00 263.3 0.00 0.000 73.0 22.8 53.99 14.2
2017 04 15 12:00 262.8 0.00 0.000 74.4 23.6 51.07 13.5
2017 04 15 13:00 262.7 0.00 0.000 76.0 24.4 49.23 12.7
2017 04 15 14:00 262.6 0.00 0.000 75.6 24.2 49.58 11.8
2017 04 15 15:00 262.5 0.00 0.000 75.8 24.4 47.69 11.0
2017 04 15 16:00 262.2 0.00 0.000 76.8 24.9 45.46 11.0
2017 04 15 17:00 262.2 0.00 0.000 75.8 24.3 45.86 11.2
2017 04 15 18:00 262.7 0.00 0.000 74.6 23.6 47.26 9.1
2017 04 15 19:00 262.7 0.00 0.000 72.7 22.6 50.77 8.9
2017 04 15 20:00 263.3 0.00 0.000 70.5 21.4 57.42 8.5
2017 04 15 21:00 263.4 0.00 0.000 69.1 20.6 62.32 10.4
2017 04 15 22:00 264.0 0.00 0.000 67.7 19.9 68.23 9.8
2017 04 15 23:00 264.6 0.00 0.000 66.3 19.0 74.3 9.1
2017 04 15 24:00 265.1 0.00 0.000 65.4 18.5 78.4 9.0
2017 04 16 1:00 265.8 0.00 0.000 64.2 17.9 82 7.9
2017 04 16 2:00 266.8 0.00 0.000 62.9 17.2 85.2 5.9
2017 04 16 3:00 268.3 0.00 0.000 62.1 16.7 87.5 5.6
2017 04 16 4:00 267.8 0.00 0.000 62.2 16.8 88.1 6.1
2017 04 16 5:00 269.3 0.00 0.000 61.4 16.4 90 5.3
2017 04 16 6:00 268.2 0.00 0.000 61.9 16.6 88.3 5.8
2017 04 16 7:00 Wet 301.5 0.00 0.000 62.7 17.1 85.4 1.9
2017 04 16 8:00 Wet 321.6 0.00 0.000 62.8 17.1 88.5 1.9
2017 04 16 9:00 Wet 323.7 0.01 0.254 63.2 17.4 87.4 1.6
2017 04 16 10:00 Wet 444.7 0.32 8.130 59.1 15.1 93.7 7.7
2017 04 16 11:00 Wet 406.0 0.06 1.524 59.5 15.3 93.4 5.3
2017 04 16 12:00 276.4 0.00 0.000 62.8 17.1 81.9 4.5
2017 04 16 13:00 264.1 0.00 0.000 67.7 19.9 71.4 2.8
2017 04 16 14:00 263.9 0.00 0.000 69.3 20.8 66.89 5.3
2017 04 16 15:00 263.5 0.00 0.000 70.0 21.1 63.26 6.4
2017 04 16 16:00 263.8 0.00 0.000 70.3 21.3 64.18 5.2
2017 04 16 17:00 264.1 0.00 0.000 70.0 21.1 67.78 4.5
2017 04 16 18:00 264.4 0.00 0.000 69.3 20.7 68.37 3.0
2017 04 16 19:00 265.1 0.00 0.000 66.6 19.2 73.3 1.9
2017 04 16 20:00 266.3 0.00 0.000 64.9 18.3 80.1 2.1
2017 04 16 21:00 274.0 0.00 0.000 62.0 16.7 86.5 1.9
2017 04 16 22:00 283.9 0.00 0.000 60.6 15.9 89.4 2.2
2017 04 16 23:00 Wet 290.9 0.00 0.000 60.8 16.0 89.6 2.2
2017 04 16 24:00 274.7 0.00 0.000 61.1 16.2 88.4 1.9
2017 04 17 1:00 269.3 0.00 0.000 60.8 16.0 88.8 3.8
2017 04 17 2:00 271.3 0.00 0.000 61.2 16.2 87.4 3.9
2017 04 17 3:00 Wet 432.6 0.05 1.270 59.4 15.2 92.1 6.4
2017 04 17 4:00 Wet 457.5 0.17 4.318 59.1 15.0 93 4.6
2017 04 17 5:00 Wet 418.3 0.21 5.334 58.8 14.9 95.1 6.7
2017 04 17 6:00 Wet 332.4 0.02 0.508 59.2 15.1 93.2 12.1
2017 04 17 7:00 282.0 0.00 0.000 59.8 15.4 89.8 6.8
2017 04 17 8:00 268.4 0.00 0.000 58.2 14.6 92.4 7.0
2017 04 17 9:00 267.6 0.00 0.000 58.6 14.8 91.6 5.9
2017 04 17 10:00 266.8 0.00 0.000 60.5 15.8 89.1 7.3
2017 04 17 11:00 266.9 0.00 0.000 59.3 15.2 90.3 7.6
2017 04 17 12:00 266.8 0.00 0.000 58.3 14.6 89.8 8.0
2017 04 17 13:00 266.0 0.00 0.000 60.6 15.9 83.7 7.0
2017 04 17 14:00 265.6 0.00 0.000 60.7 15.9 81.6 6.9
2017 04 17 15:00 265.3 0.00 0.000 62.2 16.8 79.3 5.8
2017 04 17 16:00 265.5 0.00 0.000 62.3 16.8 78.7 6.6
2017 04 17 17:00 265.6 0.00 0.000 61.4 16.3 80.7 6.9
2017 04 17 18:00 266.1 0.00 0.000 60.5 15.8 81.8 6.8
2017 04 17 19:00 266.2 0.00 0.000 58.8 14.9 84.6 6.4
2017 04 17 20:00 266.9 0.00 0.000 57.4 14.1 88.8 6.8
2017 04 17 21:00 266.9 0.00 0.000 57.0 13.9 88.9 5.2
2017 04 17 22:00 266.9 0.00 0.000 56.8 13.8 86.2 4.8
2017 04 17 23:00 266.8 0.00 0.000 56.6 13.6 83.9 4.1
2017 04 17 24:00 266.8 0.00 0.000 55.9 13.3 84.3 3.7
2017 04 18 1:00 267.0 0.00 0.000 55.1 12.8 87.2 4.3
2017 04 18 2:00 267.7 0.00 0.000 54.8 12.7 87.8 3.6
2017 04 18 3:00 268.0 0.00 0.000 54.8 12.6 88.2 2.8
2017 04 18 4:00 267.7 0.00 0.000 54.9 12.7 88.2 2.2
2017 04 18 5:00 268.8 0.00 0.000 54.6 12.6 89.5 1.8
2017 04 18 6:00 268.8 0.00 0.000 54.4 12.5 91 1.7
2017 04 18 7:00 268.3 0.00 0.000 54.6 12.6 92.7 4.3
2017 04 18 8:00 268.1 0.00 0.000 55.4 13.0 94.5 5.5
2017 04 18 9:00 266.8 0.00 0.000 58.0 14.4 91.7 5.6
2017 04 18 10:00 266.1 0.00 0.000 60.8 16.0 86.6 5.4
2017 04 18 11:00 265.5 0.00 0.000 63.7 17.6 80.4 5.9
2017 04 18 12:00 265.1 0.00 0.000 66.7 19.3 74.7 5.6
2017 04 18 13:00 264.5 0.00 0.000 69.8 21.0 68.27 4.5
2017 04 18 14:00 264.2 0.00 0.000 71.2 21.8 64.45 6.8
2017 04 18 15:00 263.9 0.00 0.000 72.1 22.3 61.48 7.4
2017 04 18 16:00 264.0 0.00 0.000 72.1 22.3 61.82 7.8
2017 04 18 17:00 263.8 0.00 0.000 72.8 22.7 59.73 6.0
2017 04 18 18:00 264.0 0.00 0.000 72.1 22.3 59.9 5.7
2017 04 18 19:00 264.7 0.00 0.000 68.8 20.5 66.72 5.6
2017 04 18 20:00 265.5 0.00 0.000 65.6 18.7 73 5.4
2017 04 18 21:00 266.0 0.00 0.000 64.2 17.9 75.2 4.4
2017 04 18 22:00 266.2 0.00 0.000 63.4 17.5 77.7 4.8
2017 04 18 23:00 266.2 0.00 0.000 63.3 17.4 79.3 5.9
2017 04 18 24:00 266.8 0.00 0.000 62.6 17.0 82 5.5
2017 04 19 1:00 268.4 0.00 0.000 61.4 16.3 86.3 4.5
2017 04 19 2:00 281.7 0.00 0.000 59.9 15.5 90 2.2
2017 04 19 3:00 Wet 327.4 0.00 0.000 58.8 14.9 93.2 1.8
2017 04 19 4:00 Wet 387.5 0.00 0.000 58.7 14.8 94 2.0
2017 04 19 5:00 Wet 451.4 0.00 0.000 58.4 14.7 95.1 2.2
2017 04 19 6:00 Wet 477.6 0.00 0.000 59.3 15.2 96.1 3.6
2017 04 19 7:00 Wet 437.9 0.00 0.000 60.9 16.1 97.3 3.9
2017 04 19 8:00 Wet 366.6 0.00 0.000 62.1 16.7 97.6 4.1
2017 04 19 9:00 Wet 288.1 0.00 0.000 65.9 18.9 91.9 6.1
2017 04 19 10:00 266.3 0.00 0.000 70.9 21.6 76.7 5.9
2017 04 19 11:00 265.1 0.00 0.000 73.3 23.0 63.74 8.6
2017 04 19 12:00 264.6 0.00 0.000 75.5 24.2 59.92 7.5
2017 04 19 13:00 264.0 0.00 0.000 77.2 25.1 53.64 10.5
2017 04 19 14:00 263.5 0.00 0.000 77.2 25.1 51.15 11.5
2017 04 19 15:00 263.4 0.00 0.000 77.3 25.1 47.84 12.0
2017 04 19 16:00 263.0 0.00 0.000 78.0 25.6 43.91 12.2
2017 04 19 17:00 262.8 0.00 0.000 77.6 25.4 44.25 10.8
2017 04 19 18:00 262.7 0.00 0.000 76.7 24.8 45.81 8.7
2017 04 19 19:00 263.3 0.00 0.000 74.3 23.5 51.4 6.9
2017 04 19 20:00 264.0 0.00 0.000 71.6 22.0 59.51 6.8
2017 04 19 21:00 264.4 0.00 0.000 70.0 21.1 65.91 8.4
2017 04 19 22:00 264.9 0.00 0.000 69.1 20.6 72.1 9.4
2017 04 19 23:00 265.5 0.00 0.000 68.2 20.1 75.7 9.8
2017 04 19 24:00 265.5 0.00 0.000 67.4 19.6 77.9 10.4
2017 04 20 1:00 266.1 0.00 0.000 66.3 19.1 80 8.6
2017 04 20 2:00 266.5 0.00 0.000 65.0 18.4 82 5.8
2017 04 20 3:00 266.8 0.00 0.000 64.4 18.0 82.9 5.3
2017 04 20 4:00 267.0 0.00 0.000 63.6 17.6 84.1 3.9
2017 04 20 5:00 266.9 0.00 0.000 64.0 17.8 82.8 5.2
2017 04 20 6:00 266.7 0.00 0.000 63.9 17.7 82.1 5.5
2017 04 20 7:00 265.9 0.00 0.000 65.6 18.6 79.2 6.5
2017 04 20 8:00 265.9 0.00 0.000 66.4 19.1 78.3 7.1
2017 04 20 9:00 265.3 0.00 0.000 68.8 20.4 75.6 7.9
2017 04 20 10:00 265.8 0.00 0.000 69.1 20.6 75.2 9.6
2017 04 20 11:00 Wet 356.6 0.08 2.032 66.8 19.3 84.8 4.6
2017 04 20 12:00 Wet 388.7 0.05 1.270 65.5 18.6 89.8 2.6
2017 04 20 13:00 Wet 355.2 0.06 1.524 65.2 18.5 92.8 7.8
2017 04 20 14:00 Wet 306.0 0.01 0.254 65.4 18.5 91.1 7.8
2017 04 20 15:00 Wet 329.1 0.07 1.778 65.4 18.5 92.6 6.0
2017 04 20 16:00 267.1 0.00 0.000 67.0 19.4 84.9 7.2
2017 04 20 17:00 273.5 0.00 0.000 65.7 18.7 88 4.4
2017 04 20 18:00 267.0 0.00 0.000 65.9 18.9 84.3 6.2
2017 04 20 19:00 267.2 0.00 0.000 64.4 18.0 83.6 3.1
2017 04 20 20:00 269.2 0.00 0.000 63.0 17.2 87.9 1.4
2017 04 20 21:00 269.6 0.00 0.000 61.6 16.5 86.2 4.3
2017 04 20 22:00 267.6 0.00 0.000 59.1 15.1 81.6 4.8
2017 04 20 23:00 266.8 0.00 0.000 58.3 14.6 77.1 5.9
2017 04 20 24:00 266.0 0.00 0.000 57.7 14.3 70.8 5.9
2017 04 21 1:00 Wet 288.5 0.00 0.000 56.8 13.8 71.4 4.5
2017 04 21 2:00 Wet 398.6 0.02 0.508 54.8 12.7 77.9 5.6
2017 04 21 3:00 Wet 407.5 0.12 3.048 53.0 11.7 84 6.6
2017 04 21 4:00 Wet 428.9 0.11 2.794 50.1 10.1 91.6 8.5
2017 04 21 5:00 Wet 379.9 0.01 0.254 50.2 10.1 92.2 7.3
2017 04 21 6:00 Wet 424.0 0.04 1.016 49.5 9.7 92 7.5
2017 04 21 7:00 Wet 450.1 0.11 2.794 48.9 9.4 92.7 4.7
2017 04 21 8:00 Wet 452.5 0.13 3.302 48.8 9.3 93.7 2.6
2017 04 21 9:00 Wet 422.4 0.08 2.032 48.5 9.2 94.3 5.8
2017 04 21 10:00 Wet 376.1 0.06 1.524 48.9 9.4 91.7 8.7
2017 04 21 11:00 272.1 0.00 0.000 50.7 10.4 88.8 9.7
2017 04 21 12:00 267.0 0.00 0.000 51.2 10.7 88.6 7.7
2017 04 21 13:00 Wet 360.0 0.04 1.016 50.6 10.3 90.4 6.1
2017 04 21 14:00 Wet 482.9 0.32 8.130 49.4 9.6 94.2 6.8
2017 04 21 15:00 Wet 467.2 0.20 5.080 48.3 9.1 94.5 7.2
2017 04 21 16:00 Wet 316.7 0.01 0.254 48.2 9.0 94.3 10.0
2017 04 21 17:00 273.5 0.00 0.000 48.2 9.0 91.8 9.6
2017 04 21 18:00 Wet 414.2 0.07 1.778 47.4 8.5 93.1 9.7
2017 04 21 19:00 Wet 403.4 0.05 1.270 46.9 8.3 92.9 9.8
2017 04 21 20:00 Wet 411.7 0.05 1.270 45.8 7.7 91.7 10.8
2017 04 21 21:00 Wet 454.7 0.17 4.318 45.4 7.5 92.8 11.9
2017 04 21 22:00 Wet 455.2 0.17 4.318 45.2 7.4 93.1 10.5
2017 04 21 23:00 Wet 340.7 0.00 0.000 45.5 7.5 92.2 9.3
2017 04 21 24:00 Wet 397.5 0.06 1.524 45.6 7.6 92.9 8.6
2017 04 22 1:00 Wet 299.5 0.00 0.000 45.8 7.7 92.3 10.2
2017 04 22 2:00 275.0 0.00 0.000 45.8 7.7 92.3 10.7
2017 04 22 3:00 272.0 0.00 0.000 46.1 7.8 92.9 6.7
2017 04 22 4:00 Wet 475.2 0.04 1.016 46.0 7.8 94.6 5.3
2017 04 22 5:00 Wet 436.9 0.04 1.016 45.5 7.5 95.2 6.8
2017 04 22 6:00 Wet 403.0 0.01 0.254 42.6 5.9 93.2 11.3
2017 04 22 7:00 Wet 395.0 0.01 0.254 40.9 4.9 92.6 10.6
2017 04 22 8:00 Wet 423.0 0.04 1.016 40.2 4.6 92.4 10.1
2017 04 22 9:00 Wet 399.5 0.03 0.762 40.4 4.7 92.6 9.4
2017 04 22 10:00 Wet 316.6 0.00 0.000 41.8 5.4 90.9 9.7
2017 04 22 11:00 Wet 360.8 0.00 0.000 44.2 6.8 89.4 8.9
2017 04 22 12:00 Wet 309.8 0.00 0.000 45.9 7.7 87.3 9.0
2017 04 22 13:00 Wet 432.1 0.00 0.000 45.7 7.6 89.9 8.2
2017 04 22 14:00 Wet 453.1 0.00 0.000 45.4 7.5 90.6 8.5
2017 04 22 15:00 Wet 445.4 0.01 0.254 44.9 7.2 91.7 8.7
2017 04 22 16:00 Wet 427.0 0.01 0.254 44.5 7.0 90.4 8.3
2017 04 22 17:00 Wet 316.7 0.00 0.000 45.9 7.7 86.6 5.9
2017 04 22 18:00 269.4 0.00 0.000 46.6 8.1 83.5 7.0
2017 04 22 19:00 Wet 368.7 0.00 0.000 46.4 8.0 83.9 6.3
2017 04 22 20:00 Wet 327.7 0.00 0.000 46.0 7.8 84.8 6.2
2017 04 22 21:00 280.5 0.00 0.000 46.2 7.9 83.3 5.3
2017 04 22 22:00 267.7 0.00 0.000 46.0 7.8 84.2 5.5
2017 04 22 23:00 267.3 0.00 0.000 46.5 8.1 80.5 8.0
2017 04 22 24:00 267.4 0.00 0.000 46.7 8.1 79.3 7.4
2017 04 23 1:00 267.1 0.00 0.000 46.2 7.9 80 5.2
2017 04 23 2:00 267.1 0.00 0.000 45.2 7.3 78.1 6.9
2017 04 23 3:00 267.1 0.00 0.000 43.6 6.4 77.1 6.6
2017 04 23 4:00 267.1 0.00 0.000 42.3 5.7 76.1 6.2
2017 04 23 5:00 267.1 0.00 0.000 40.7 4.8 79.5 6.2
2017 04 23 6:00 266.7 0.00 0.000 40.6 4.8 75.4 5.0
2017 04 23 7:00 265.4 0.00 0.000 44.6 7.0 67.85 5.1
2017 04 23 8:00 264.5 0.00 0.000 49.3 9.6 61.26 7.2
2017 04 23 9:00 264.3 0.00 0.000 52.6 11.4 53.77 9.8
2017 04 23 10:00 264.3 0.00 0.000 55.2 12.9 46.83 11.6
2017 04 23 11:00 263.8 0.00 0.000 57.7 14.3 43.31 10.9
2017 04 23 12:00 263.2 0.00 0.000 60.1 15.6 38.63 10.9
2017 04 23 13:00 262.7 0.00 0.000 62.7 17.1 34.26 10.7
2017 04 23 14:00 262.1 0.00 0.000 65.1 18.4 30.96 9.9
2017 04 23 15:00 261.5 0.00 0.000 66.5 19.1 28.87 9.5
2017 04 23 16:00 261.2 0.00 0.000 67.5 19.7 26.56 8.4
2017 04 23 17:00 260.7 0.00 0.000 67.9 19.9 26.56 6.6
2017 04 23 18:00 261.0 0.00 0.000 65.9 18.8 30.35 6.2
2017 04 23 19:00 262.0 0.00 0.000 59.4 15.2 41.39 4.4
2017 04 23 20:00 262.9 0.00 0.000 53.8 12.1 46.36 3.5
2017 04 23 21:00 263.3 0.00 0.000 51.4 10.8 50.15 2.2
2017 04 23 22:00 264.2 0.00 0.000 47.0 8.3 62.92 1.1
2017 04 23 23:00 265.6 0.00 0.000 44.9 7.2 64.63 1.8
2017 04 23 24:00 267.3 0.00 0.000 43.6 6.4 72.2 1.0
2017 04 24 1:00 273.7 0.00 0.000 40.5 4.7 79 1.9
2017 04 24 2:00 Wet 299.2 0.00 0.000 38.8 3.8 83.3 1.3
2017 04 24 3:00 Wet 352.9 0.00 0.000 36.5 2.5 91.3 1.5
2017 04 24 4:00 Wet 421.1 0.00 0.000 36.6 2.6 89.2 1.0
2017 04 24 5:00 Wet 452.9 0.00 0.000 36.4 2.4 89.6 1.0
2017 04 24 6:00 Wet 482.8 0.00 0.000 34.8 1.6 93.2 1.1
2017 04 24 7:00 Wet 430.9 0.00 0.000 42.8 6.0 79.5 0.5
2017 04 24 8:00 267.2 0.00 0.000 56.5 13.6 55.67 0.9
2017 04 24 9:00 262.3 0.00 0.000 62.8 17.1 34.12 4.9
2017 04 24 10:00 262.2 0.00 0.000 64.8 18.2 29.36 6.1
2017 04 24 11:00 261.7 0.00 0.000 66.5 19.1 29.35 5.3
2017 04 24 12:00 261.4 0.00 0.000 68.2 20.1 29.83 5.2
2017 04 24 13:00 260.8 0.00 0.000 69.8 21.0 27.49 7.0
2017 04 24 14:00 260.6 0.00 0.000 71.4 21.9 26.25 7.4
CST mV in mm F C % mph
Year Month Day Hour Leaf Wetness Total
Precipitation
Avg. Temp Avg. Rel.
Humidity
Wind
Speed

Back to the top of the page